<?xml version="1.0" encoding="UTF-8" standalone="no" ?>
<gpx xmlns="http://www.topografix.com/GPX/1/1" xmlns:xsi="http://www.w3.org/2001/XMLSchema-instance" xsi:schemaLocation="http://www.topografix.com/GPX/1/1 http://www.topografix.com/GPX/1/1/gpx.xsd" version="1.1" creator="VisuGPX - https://www.visugpx.com">
  <metadata>
    <name>RANDO QUEYRIERES BOUSSOULET 26 KM</name>
    <desc><![CDATA[RANDO QUEYRIERES BOUSSOULET26 KM .DEPART ARRIVEE QUEYRIERES.LA CHAUD MONTROUGE.MOULIN GUERIN.NEYZAC.BOUSSOULET.LA GRANGETTE.LAC BLEU.TESTAVOYRE.RAFFY.LE SUCHAILLOU.]]></desc>
  </metadata>
  <trk>
    <name><![CDATA[2025-09-02 17:21:16]]></name>
    <extensions>
      <line xmlns="http://www.topografix.com/GPX/gpx_style/0/2">
        <color>0000FF</color>
        <width>4</width>
      </line>
    </extensions>
    <trkseg>
      <trkpt lat="45.07315" lon="4.10019">
        <ele>1145.55</ele>
        <time>2025-09-02T07:34:38Z</time>
      </trkpt>
      <trkpt lat="45.07315" lon="4.10019">
        <ele>1147.47</ele>
        <time>2025-09-02T07:34:54Z</time>
      </trkpt>
      <trkpt lat="45.07316" lon="4.1002">
        <ele>1148.91</ele>
        <time>2025-09-02T07:35:12Z</time>
      </trkpt>
      <trkpt lat="45.07317" lon="4.1002">
        <ele>1148.43</ele>
        <time>2025-09-02T07:35:28Z</time>
      </trkpt>
      <trkpt lat="45.07315" lon="4.10017">
        <ele>1146.51</ele>
        <time>2025-09-02T07:35:51Z</time>
      </trkpt>
      <trkpt lat="45.07313" lon="4.10015">
        <ele>1147.47</ele>
        <time>2025-09-02T07:36:16Z</time>
      </trkpt>
      <trkpt lat="45.07314" lon="4.10008">
        <ele>1147.47</ele>
        <time>2025-09-02T07:36:44Z</time>
      </trkpt>
      <trkpt lat="45.07317" lon="4.10014">
        <ele>1147.47</ele>
        <time>2025-09-02T07:37:10Z</time>
      </trkpt>
      <trkpt lat="45.07325" lon="4.10001">
        <ele>1145.07</ele>
        <time>2025-09-02T07:37:33Z</time>
      </trkpt>
      <trkpt lat="45.07329" lon="4.0999">
        <ele>1143.63</ele>
        <time>2025-09-02T07:37:45Z</time>
      </trkpt>
      <trkpt lat="45.07336" lon="4.09973">
        <ele>1141.7</ele>
        <time>2025-09-02T07:37:58Z</time>
      </trkpt>
      <trkpt lat="45.07349" lon="4.09936">
        <ele>1136.42</ele>
        <time>2025-09-02T07:38:22Z</time>
      </trkpt>
      <trkpt lat="45.0735" lon="4.0993">
        <ele>1136.42</ele>
        <time>2025-09-02T07:38:26Z</time>
      </trkpt>
      <trkpt lat="45.07356" lon="4.09927">
        <ele>1145.07</ele>
        <time>2025-09-02T07:38:37Z</time>
      </trkpt>
      <trkpt lat="45.07347" lon="4.09911">
        <ele>1147.47</ele>
        <time>2025-09-02T07:38:49Z</time>
      </trkpt>
      <trkpt lat="45.07336" lon="4.09897">
        <ele>1149.39</ele>
        <time>2025-09-02T07:39:01Z</time>
      </trkpt>
      <trkpt lat="45.07325" lon="4.09882">
        <ele>1150.35</ele>
        <time>2025-09-02T07:39:13Z</time>
      </trkpt>
      <trkpt lat="45.07315" lon="4.0987">
        <ele>1149.87</ele>
        <time>2025-09-02T07:39:22Z</time>
      </trkpt>
      <trkpt lat="45.07305" lon="4.09858">
        <ele>1150.84</ele>
        <time>2025-09-02T07:39:32Z</time>
      </trkpt>
      <trkpt lat="45.07292" lon="4.09843">
        <ele>1149.87</ele>
        <time>2025-09-02T07:39:44Z</time>
      </trkpt>
      <trkpt lat="45.07279" lon="4.09825">
        <ele>1150.84</ele>
        <time>2025-09-02T07:39:58Z</time>
      </trkpt>
      <trkpt lat="45.07271" lon="4.09817">
        <ele>1153.24</ele>
        <time>2025-09-02T07:40:08Z</time>
      </trkpt>
      <trkpt lat="45.07259" lon="4.09816">
        <ele>1155.16</ele>
        <time>2025-09-02T07:40:25Z</time>
      </trkpt>
      <trkpt lat="45.07254" lon="4.09813">
        <ele>1156.12</ele>
        <time>2025-09-02T07:40:33Z</time>
      </trkpt>
      <trkpt lat="45.07235" lon="4.09797">
        <ele>1156.12</ele>
        <time>2025-09-02T07:40:50Z</time>
      </trkpt>
      <trkpt lat="45.07234" lon="4.09795">
        <ele>1156.12</ele>
        <time>2025-09-02T07:40:51Z</time>
      </trkpt>
      <trkpt lat="45.07224" lon="4.09779">
        <ele>1157.08</ele>
        <time>2025-09-02T07:41:09Z</time>
      </trkpt>
      <trkpt lat="45.07222" lon="4.09758">
        <ele>1157.08</ele>
        <time>2025-09-02T07:41:26Z</time>
      </trkpt>
      <trkpt lat="45.07222" lon="4.09734">
        <ele>1156.6</ele>
        <time>2025-09-02T07:41:45Z</time>
      </trkpt>
      <trkpt lat="45.07214" lon="4.09724">
        <ele>1155.64</ele>
        <time>2025-09-02T07:42:07Z</time>
      </trkpt>
      <trkpt lat="45.07211" lon="4.09727">
        <ele>1156.6</ele>
        <time>2025-09-02T07:42:36Z</time>
      </trkpt>
      <trkpt lat="45.07211" lon="4.09725">
        <ele>1158.05</ele>
        <time>2025-09-02T07:43:06Z</time>
      </trkpt>
      <trkpt lat="45.07206" lon="4.09737">
        <ele>1155.64</ele>
        <time>2025-09-02T07:43:21Z</time>
      </trkpt>
      <trkpt lat="45.07199" lon="4.09753">
        <ele>1148.91</ele>
        <time>2025-09-02T07:43:34Z</time>
      </trkpt>
      <trkpt lat="45.07196" lon="4.09731">
        <ele>1137.38</ele>
        <time>2025-09-02T07:43:57Z</time>
      </trkpt>
      <trkpt lat="45.07191" lon="4.09703">
        <ele>1132.09</ele>
        <time>2025-09-02T07:44:15Z</time>
      </trkpt>
      <trkpt lat="45.07177" lon="4.09669">
        <ele>1131.13</ele>
        <time>2025-09-02T07:44:36Z</time>
      </trkpt>
      <trkpt lat="45.0717" lon="4.09644">
        <ele>1127.76</ele>
        <time>2025-09-02T07:44:53Z</time>
      </trkpt>
      <trkpt lat="45.07157" lon="4.09614">
        <ele>1123.92</ele>
        <time>2025-09-02T07:45:13Z</time>
      </trkpt>
      <trkpt lat="45.0715" lon="4.09587">
        <ele>1120.07</ele>
        <time>2025-09-02T07:45:33Z</time>
      </trkpt>
      <trkpt lat="45.07144" lon="4.0956">
        <ele>1116.23</ele>
        <time>2025-09-02T07:45:54Z</time>
      </trkpt>
      <trkpt lat="45.07137" lon="4.09524">
        <ele>1112.86</ele>
        <time>2025-09-02T07:46:14Z</time>
      </trkpt>
      <trkpt lat="45.0713" lon="4.09493">
        <ele>1110.94</ele>
        <time>2025-09-02T07:46:31Z</time>
      </trkpt>
      <trkpt lat="45.07124" lon="4.09455">
        <ele>1107.58</ele>
        <time>2025-09-02T07:46:53Z</time>
      </trkpt>
      <trkpt lat="45.07116" lon="4.09426">
        <ele>1105.17</ele>
        <time>2025-09-02T07:47:14Z</time>
      </trkpt>
      <trkpt lat="45.07113" lon="4.09418">
        <ele>1103.73</ele>
        <time>2025-09-02T07:47:29Z</time>
      </trkpt>
      <trkpt lat="45.07109" lon="4.09399">
        <ele>1102.77</ele>
        <time>2025-09-02T07:47:47Z</time>
      </trkpt>
      <trkpt lat="45.07097" lon="4.09366">
        <ele>1099.89</ele>
        <time>2025-09-02T07:48:10Z</time>
      </trkpt>
      <trkpt lat="45.07087" lon="4.09339">
        <ele>1096.52</ele>
        <time>2025-09-02T07:48:32Z</time>
      </trkpt>
      <trkpt lat="45.07067" lon="4.09311">
        <ele>1090.75</ele>
        <time>2025-09-02T07:48:54Z</time>
      </trkpt>
      <trkpt lat="45.07052" lon="4.09291">
        <ele>1085.95</ele>
        <time>2025-09-02T07:49:11Z</time>
      </trkpt>
      <trkpt lat="45.0704" lon="4.09277">
        <ele>1082.1</ele>
        <time>2025-09-02T07:49:26Z</time>
      </trkpt>
      <trkpt lat="45.07027" lon="4.09254">
        <ele>1079.22</ele>
        <time>2025-09-02T07:49:45Z</time>
      </trkpt>
      <trkpt lat="45.07013" lon="4.09234">
        <ele>1076.33</ele>
        <time>2025-09-02T07:50:05Z</time>
      </trkpt>
      <trkpt lat="45.06991" lon="4.09236">
        <ele>1072.97</ele>
        <time>2025-09-02T07:50:28Z</time>
      </trkpt>
      <trkpt lat="45.06968" lon="4.09248">
        <ele>1068.16</ele>
        <time>2025-09-02T07:50:50Z</time>
      </trkpt>
      <trkpt lat="45.06951" lon="4.09242">
        <ele>1068.64</ele>
        <time>2025-09-02T07:51:03Z</time>
      </trkpt>
      <trkpt lat="45.06941" lon="4.09237">
        <ele>1068.16</ele>
        <time>2025-09-02T07:51:17Z</time>
      </trkpt>
      <trkpt lat="45.06934" lon="4.09226">
        <ele>1068.16</ele>
        <time>2025-09-02T07:51:26Z</time>
      </trkpt>
      <trkpt lat="45.06935" lon="4.09224">
        <ele>1068.16</ele>
        <time>2025-09-02T07:51:27Z</time>
      </trkpt>
      <trkpt lat="45.06935" lon="4.09221">
        <ele>1068.16</ele>
        <time>2025-09-02T07:51:28Z</time>
      </trkpt>
      <trkpt lat="45.06935" lon="4.0922">
        <ele>1067.68</ele>
        <time>2025-09-02T07:51:29Z</time>
      </trkpt>
      <trkpt lat="45.06936" lon="4.09219">
        <ele>1067.68</ele>
        <time>2025-09-02T07:51:30Z</time>
      </trkpt>
      <trkpt lat="45.06954" lon="4.09194">
        <ele>1066.72</ele>
        <time>2025-09-02T07:51:51Z</time>
      </trkpt>
      <trkpt lat="45.06974" lon="4.0917">
        <ele>1065.76</ele>
        <time>2025-09-02T07:52:10Z</time>
      </trkpt>
      <trkpt lat="45.06982" lon="4.0914">
        <ele>1064.8</ele>
        <time>2025-09-02T07:52:28Z</time>
      </trkpt>
      <trkpt lat="45.06982" lon="4.09135">
        <ele>1064.32</ele>
        <time>2025-09-02T07:52:31Z</time>
      </trkpt>
      <trkpt lat="45.06982" lon="4.09132">
        <ele>1063.84</ele>
        <time>2025-09-02T07:52:32Z</time>
      </trkpt>
      <trkpt lat="45.06984" lon="4.09097">
        <ele>1059.99</ele>
        <time>2025-09-02T07:52:52Z</time>
      </trkpt>
      <trkpt lat="45.06988" lon="4.09063">
        <ele>1058.07</ele>
        <time>2025-09-02T07:53:11Z</time>
      </trkpt>
      <trkpt lat="45.06986" lon="4.09029">
        <ele>1056.63</ele>
        <time>2025-09-02T07:53:30Z</time>
      </trkpt>
      <trkpt lat="45.06985" lon="4.09028">
        <ele>1056.15</ele>
        <time>2025-09-02T07:53:31Z</time>
      </trkpt>
      <trkpt lat="45.06985" lon="4.09026">
        <ele>1056.15</ele>
        <time>2025-09-02T07:53:32Z</time>
      </trkpt>
      <trkpt lat="45.06984" lon="4.09024">
        <ele>1055.67</ele>
        <time>2025-09-02T07:53:33Z</time>
      </trkpt>
      <trkpt lat="45.06984" lon="4.09021">
        <ele>1055.67</ele>
        <time>2025-09-02T07:53:34Z</time>
      </trkpt>
      <trkpt lat="45.06983" lon="4.09019">
        <ele>1055.67</ele>
        <time>2025-09-02T07:53:35Z</time>
      </trkpt>
      <trkpt lat="45.06983" lon="4.09016">
        <ele>1055.18</ele>
        <time>2025-09-02T07:53:36Z</time>
      </trkpt>
      <trkpt lat="45.06979" lon="4.08993">
        <ele>1057.11</ele>
        <time>2025-09-02T07:53:49Z</time>
      </trkpt>
      <trkpt lat="45.06976" lon="4.08965">
        <ele>1059.51</ele>
        <time>2025-09-02T07:54:03Z</time>
      </trkpt>
      <trkpt lat="45.06972" lon="4.08954">
        <ele>1059.51</ele>
        <time>2025-09-02T07:54:11Z</time>
      </trkpt>
      <trkpt lat="45.0697" lon="4.08952">
        <ele>1059.99</ele>
        <time>2025-09-02T07:54:12Z</time>
      </trkpt>
      <trkpt lat="45.06968" lon="4.08951">
        <ele>1059.51</ele>
        <time>2025-09-02T07:54:14Z</time>
      </trkpt>
      <trkpt lat="45.06951" lon="4.08955">
        <ele>1058.07</ele>
        <time>2025-09-02T07:54:29Z</time>
      </trkpt>
      <trkpt lat="45.06943" lon="4.08959">
        <ele>1057.59</ele>
        <time>2025-09-02T07:54:34Z</time>
      </trkpt>
      <trkpt lat="45.06938" lon="4.08959">
        <ele>1057.59</ele>
        <time>2025-09-02T07:54:40Z</time>
      </trkpt>
      <trkpt lat="45.06923" lon="4.08962">
        <ele>1055.18</ele>
        <time>2025-09-02T07:54:53Z</time>
      </trkpt>
      <trkpt lat="45.06898" lon="4.08975">
        <ele>1048.94</ele>
        <time>2025-09-02T07:55:15Z</time>
      </trkpt>
      <trkpt lat="45.06882" lon="4.0898">
        <ele>1045.57</ele>
        <time>2025-09-02T07:55:28Z</time>
      </trkpt>
      <trkpt lat="45.06873" lon="4.08981">
        <ele>1043.65</ele>
        <time>2025-09-02T07:55:39Z</time>
      </trkpt>
      <trkpt lat="45.06871" lon="4.08978">
        <ele>1043.65</ele>
        <time>2025-09-02T07:56:02Z</time>
      </trkpt>
      <trkpt lat="45.06862" lon="4.08981">
        <ele>1041.73</ele>
        <time>2025-09-02T07:56:24Z</time>
      </trkpt>
      <trkpt lat="45.06851" lon="4.08991">
        <ele>1038.84</ele>
        <time>2025-09-02T07:56:45Z</time>
      </trkpt>
      <trkpt lat="45.06851" lon="4.08993">
        <ele>1038.84</ele>
        <time>2025-09-02T07:56:46Z</time>
      </trkpt>
      <trkpt lat="45.06849" lon="4.08995">
        <ele>1038.84</ele>
        <time>2025-09-02T07:56:47Z</time>
      </trkpt>
      <trkpt lat="45.06833" lon="4.09026">
        <ele>1035.96</ele>
        <time>2025-09-02T07:57:04Z</time>
      </trkpt>
      <trkpt lat="45.06828" lon="4.09037">
        <ele>1035</ele>
        <time>2025-09-02T07:57:11Z</time>
      </trkpt>
      <trkpt lat="45.06826" lon="4.09038">
        <ele>1035</ele>
        <time>2025-09-02T07:57:12Z</time>
      </trkpt>
      <trkpt lat="45.06826" lon="4.09039">
        <ele>1034.52</ele>
        <time>2025-09-02T07:57:13Z</time>
      </trkpt>
      <trkpt lat="45.06813" lon="4.09067">
        <ele>1032.11</ele>
        <time>2025-09-02T07:57:31Z</time>
      </trkpt>
      <trkpt lat="45.06796" lon="4.091">
        <ele>1033.07</ele>
        <time>2025-09-02T07:57:52Z</time>
      </trkpt>
      <trkpt lat="45.06788" lon="4.09109">
        <ele>1033.55</ele>
        <time>2025-09-02T07:58:01Z</time>
      </trkpt>
      <trkpt lat="45.06768" lon="4.09105">
        <ele>1035</ele>
        <time>2025-09-02T07:58:16Z</time>
      </trkpt>
      <trkpt lat="45.06738" lon="4.09097">
        <ele>1036.92</ele>
        <time>2025-09-02T07:58:38Z</time>
      </trkpt>
      <trkpt lat="45.06707" lon="4.091">
        <ele>1035.96</ele>
        <time>2025-09-02T07:59:02Z</time>
      </trkpt>
      <trkpt lat="45.06704" lon="4.09102">
        <ele>1036.44</ele>
        <time>2025-09-02T07:59:04Z</time>
      </trkpt>
      <trkpt lat="45.06682" lon="4.0912">
        <ele>1036.44</ele>
        <time>2025-09-02T07:59:22Z</time>
      </trkpt>
      <trkpt lat="45.0666" lon="4.09139">
        <ele>1038.36</ele>
        <time>2025-09-02T07:59:42Z</time>
      </trkpt>
      <trkpt lat="45.06641" lon="4.09164">
        <ele>1038.84</ele>
        <time>2025-09-02T08:00:02Z</time>
      </trkpt>
      <trkpt lat="45.06616" lon="4.09185">
        <ele>1040.28</ele>
        <time>2025-09-02T08:00:23Z</time>
      </trkpt>
      <trkpt lat="45.06595" lon="4.09187">
        <ele>1043.17</ele>
        <time>2025-09-02T08:00:40Z</time>
      </trkpt>
      <trkpt lat="45.0658" lon="4.09186">
        <ele>1047.01</ele>
        <time>2025-09-02T08:00:57Z</time>
      </trkpt>
      <trkpt lat="45.06576" lon="4.09208">
        <ele>1050.38</ele>
        <time>2025-09-02T08:01:17Z</time>
      </trkpt>
      <trkpt lat="45.06568" lon="4.09217">
        <ele>1054.7</ele>
        <time>2025-09-02T08:01:39Z</time>
      </trkpt>
      <trkpt lat="45.0655" lon="4.09229">
        <ele>1057.11</ele>
        <time>2025-09-02T08:01:58Z</time>
      </trkpt>
      <trkpt lat="45.06537" lon="4.09243">
        <ele>1059.51</ele>
        <time>2025-09-02T08:02:16Z</time>
      </trkpt>
      <trkpt lat="45.06524" lon="4.09254">
        <ele>1059.99</ele>
        <time>2025-09-02T08:02:33Z</time>
      </trkpt>
      <trkpt lat="45.06507" lon="4.09271">
        <ele>1063.36</ele>
        <time>2025-09-02T08:02:54Z</time>
      </trkpt>
      <trkpt lat="45.06486" lon="4.09259">
        <ele>1066.24</ele>
        <time>2025-09-02T08:03:14Z</time>
      </trkpt>
      <trkpt lat="45.06468" lon="4.0925">
        <ele>1071.53</ele>
        <time>2025-09-02T08:03:33Z</time>
      </trkpt>
      <trkpt lat="45.06459" lon="4.09257">
        <ele>1072.49</ele>
        <time>2025-09-02T08:03:42Z</time>
      </trkpt>
      <trkpt lat="45.06452" lon="4.09264">
        <ele>1074.89</ele>
        <time>2025-09-02T08:03:52Z</time>
      </trkpt>
      <trkpt lat="45.06444" lon="4.0927">
        <ele>1076.33</ele>
        <time>2025-09-02T08:04:04Z</time>
      </trkpt>
      <trkpt lat="45.06436" lon="4.09278">
        <ele>1077.78</ele>
        <time>2025-09-02T08:04:16Z</time>
      </trkpt>
      <trkpt lat="45.06427" lon="4.09286">
        <ele>1080.18</ele>
        <time>2025-09-02T08:04:28Z</time>
      </trkpt>
      <trkpt lat="45.06414" lon="4.09283">
        <ele>1081.62</ele>
        <time>2025-09-02T08:04:42Z</time>
      </trkpt>
      <trkpt lat="45.06412" lon="4.09282">
        <ele>1081.62</ele>
        <time>2025-09-02T08:04:44Z</time>
      </trkpt>
      <trkpt lat="45.064" lon="4.09278">
        <ele>1083.06</ele>
        <time>2025-09-02T08:04:56Z</time>
      </trkpt>
      <trkpt lat="45.06384" lon="4.09276">
        <ele>1084.5</ele>
        <time>2025-09-02T08:05:10Z</time>
      </trkpt>
      <trkpt lat="45.06368" lon="4.09272">
        <ele>1086.91</ele>
        <time>2025-09-02T08:05:24Z</time>
      </trkpt>
      <trkpt lat="45.06348" lon="4.0927">
        <ele>1088.83</ele>
        <time>2025-09-02T08:05:42Z</time>
      </trkpt>
      <trkpt lat="45.06333" lon="4.09265">
        <ele>1089.31</ele>
        <time>2025-09-02T08:05:53Z</time>
      </trkpt>
      <trkpt lat="45.06319" lon="4.09258">
        <ele>1088.83</ele>
        <time>2025-09-02T08:06:04Z</time>
      </trkpt>
      <trkpt lat="45.06306" lon="4.09253">
        <ele>1090.27</ele>
        <time>2025-09-02T08:06:19Z</time>
      </trkpt>
      <trkpt lat="45.06294" lon="4.0925">
        <ele>1091.71</ele>
        <time>2025-09-02T08:06:33Z</time>
      </trkpt>
      <trkpt lat="45.0628" lon="4.09251">
        <ele>1091.71</ele>
        <time>2025-09-02T08:06:44Z</time>
      </trkpt>
      <trkpt lat="45.0627" lon="4.09252">
        <ele>1085.47</ele>
        <time>2025-09-02T08:07:03Z</time>
      </trkpt>
      <trkpt lat="45.06263" lon="4.09244">
        <ele>1082.1</ele>
        <time>2025-09-02T08:07:19Z</time>
      </trkpt>
      <trkpt lat="45.06254" lon="4.09238">
        <ele>1087.87</ele>
        <time>2025-09-02T08:07:35Z</time>
      </trkpt>
      <trkpt lat="45.0625" lon="4.09251">
        <ele>1087.87</ele>
        <time>2025-09-02T08:07:49Z</time>
      </trkpt>
      <trkpt lat="45.06247" lon="4.09257">
        <ele>1087.87</ele>
        <time>2025-09-02T08:07:54Z</time>
      </trkpt>
      <trkpt lat="45.06243" lon="4.09273">
        <ele>1088.83</ele>
        <time>2025-09-02T08:08:07Z</time>
      </trkpt>
      <trkpt lat="45.06237" lon="4.09295">
        <ele>1091.71</ele>
        <time>2025-09-02T08:08:22Z</time>
      </trkpt>
      <trkpt lat="45.06231" lon="4.09315">
        <ele>1090.75</ele>
        <time>2025-09-02T08:08:35Z</time>
      </trkpt>
      <trkpt lat="45.06226" lon="4.09333">
        <ele>1088.83</ele>
        <time>2025-09-02T08:08:46Z</time>
      </trkpt>
      <trkpt lat="45.06222" lon="4.09355">
        <ele>1087.87</ele>
        <time>2025-09-02T08:08:58Z</time>
      </trkpt>
      <trkpt lat="45.06219" lon="4.09374">
        <ele>1086.91</ele>
        <time>2025-09-02T08:09:09Z</time>
      </trkpt>
      <trkpt lat="45.06219" lon="4.09396">
        <ele>1087.39</ele>
        <time>2025-09-02T08:09:21Z</time>
      </trkpt>
      <trkpt lat="45.0622" lon="4.0941">
        <ele>1087.39</ele>
        <time>2025-09-02T08:09:28Z</time>
      </trkpt>
      <trkpt lat="45.06213" lon="4.09433">
        <ele>1081.62</ele>
        <time>2025-09-02T08:09:43Z</time>
      </trkpt>
      <trkpt lat="45.06212" lon="4.09435">
        <ele>1081.14</ele>
        <time>2025-09-02T08:09:44Z</time>
      </trkpt>
      <trkpt lat="45.06211" lon="4.09435">
        <ele>1080.66</ele>
        <time>2025-09-02T08:09:45Z</time>
      </trkpt>
      <trkpt lat="45.0621" lon="4.09436">
        <ele>1080.66</ele>
        <time>2025-09-02T08:09:46Z</time>
      </trkpt>
      <trkpt lat="45.06209" lon="4.09437">
        <ele>1080.18</ele>
        <time>2025-09-02T08:09:47Z</time>
      </trkpt>
      <trkpt lat="45.06192" lon="4.09463">
        <ele>1075.37</ele>
        <time>2025-09-02T08:10:08Z</time>
      </trkpt>
      <trkpt lat="45.06178" lon="4.09487">
        <ele>1073.45</ele>
        <time>2025-09-02T08:10:26Z</time>
      </trkpt>
      <trkpt lat="45.0616" lon="4.09504">
        <ele>1073.45</ele>
        <time>2025-09-02T08:10:44Z</time>
      </trkpt>
      <trkpt lat="45.06143" lon="4.0951">
        <ele>1079.7</ele>
        <time>2025-09-02T08:10:55Z</time>
      </trkpt>
      <trkpt lat="45.06134" lon="4.09504">
        <ele>1079.7</ele>
        <time>2025-09-02T08:11:04Z</time>
      </trkpt>
      <trkpt lat="45.06124" lon="4.09495">
        <ele>1080.66</ele>
        <time>2025-09-02T08:11:14Z</time>
      </trkpt>
      <trkpt lat="45.0611" lon="4.09483">
        <ele>1083.54</ele>
        <time>2025-09-02T08:11:27Z</time>
      </trkpt>
      <trkpt lat="45.06098" lon="4.09476">
        <ele>1084.5</ele>
        <time>2025-09-02T08:11:41Z</time>
      </trkpt>
      <trkpt lat="45.06089" lon="4.09472">
        <ele>1084.99</ele>
        <time>2025-09-02T08:11:52Z</time>
      </trkpt>
      <trkpt lat="45.06075" lon="4.09466">
        <ele>1088.35</ele>
        <time>2025-09-02T08:12:05Z</time>
      </trkpt>
      <trkpt lat="45.06057" lon="4.09462">
        <ele>1090.75</ele>
        <time>2025-09-02T08:12:16Z</time>
      </trkpt>
      <trkpt lat="45.06042" lon="4.09459">
        <ele>1092.2</ele>
        <time>2025-09-02T08:12:27Z</time>
      </trkpt>
      <trkpt lat="45.06039" lon="4.09459">
        <ele>1092.68</ele>
        <time>2025-09-02T08:12:30Z</time>
      </trkpt>
      <trkpt lat="45.06027" lon="4.09459">
        <ele>1093.64</ele>
        <time>2025-09-02T08:12:42Z</time>
      </trkpt>
      <trkpt lat="45.06013" lon="4.09459">
        <ele>1094.6</ele>
        <time>2025-09-02T08:12:52Z</time>
      </trkpt>
      <trkpt lat="45.05997" lon="4.09455">
        <ele>1096.52</ele>
        <time>2025-09-02T08:13:03Z</time>
      </trkpt>
      <trkpt lat="45.05983" lon="4.09449">
        <ele>1097.48</ele>
        <time>2025-09-02T08:13:17Z</time>
      </trkpt>
      <trkpt lat="45.05973" lon="4.09446">
        <ele>1097.96</ele>
        <time>2025-09-02T08:13:28Z</time>
      </trkpt>
      <trkpt lat="45.05972" lon="4.09446">
        <ele>1097.96</ele>
        <time>2025-09-02T08:13:29Z</time>
      </trkpt>
      <trkpt lat="45.05958" lon="4.0944">
        <ele>1099.4</ele>
        <time>2025-09-02T08:13:42Z</time>
      </trkpt>
      <trkpt lat="45.05954" lon="4.09438">
        <ele>1099.89</ele>
        <time>2025-09-02T08:13:46Z</time>
      </trkpt>
      <trkpt lat="45.05949" lon="4.09436">
        <ele>1100.85</ele>
        <time>2025-09-02T08:13:51Z</time>
      </trkpt>
      <trkpt lat="45.05938" lon="4.09432">
        <ele>1102.29</ele>
        <time>2025-09-02T08:14:01Z</time>
      </trkpt>
      <trkpt lat="45.05935" lon="4.09431">
        <ele>1102.77</ele>
        <time>2025-09-02T08:14:04Z</time>
      </trkpt>
      <trkpt lat="45.05927" lon="4.09429">
        <ele>1103.73</ele>
        <time>2025-09-02T08:14:11Z</time>
      </trkpt>
      <trkpt lat="45.05915" lon="4.09424">
        <ele>1105.65</ele>
        <time>2025-09-02T08:14:19Z</time>
      </trkpt>
      <trkpt lat="45.05912" lon="4.09422">
        <ele>1106.13</ele>
        <time>2025-09-02T08:14:21Z</time>
      </trkpt>
      <trkpt lat="45.0591" lon="4.09422">
        <ele>1106.13</ele>
        <time>2025-09-02T08:14:22Z</time>
      </trkpt>
      <trkpt lat="45.05907" lon="4.09421">
        <ele>1106.61</ele>
        <time>2025-09-02T08:14:23Z</time>
      </trkpt>
      <trkpt lat="45.05906" lon="4.09421">
        <ele>1106.61</ele>
        <time>2025-09-02T08:14:24Z</time>
      </trkpt>
      <trkpt lat="45.05894" lon="4.09415">
        <ele>1110.46</ele>
        <time>2025-09-02T08:14:35Z</time>
      </trkpt>
      <trkpt lat="45.05882" lon="4.09409">
        <ele>1112.38</ele>
        <time>2025-09-02T08:14:46Z</time>
      </trkpt>
      <trkpt lat="45.05865" lon="4.09404">
        <ele>1111.9</ele>
        <time>2025-09-02T08:15:05Z</time>
      </trkpt>
      <trkpt lat="45.05838" lon="4.09402">
        <ele>1106.61</ele>
        <time>2025-09-02T08:15:25Z</time>
      </trkpt>
      <trkpt lat="45.05819" lon="4.09408">
        <ele>1104.21</ele>
        <time>2025-09-02T08:15:45Z</time>
      </trkpt>
      <trkpt lat="45.05803" lon="4.09413">
        <ele>1105.65</ele>
        <time>2025-09-02T08:16:01Z</time>
      </trkpt>
      <trkpt lat="45.05786" lon="4.09432">
        <ele>1106.61</ele>
        <time>2025-09-02T08:16:18Z</time>
      </trkpt>
      <trkpt lat="45.05771" lon="4.09449">
        <ele>1108.54</ele>
        <time>2025-09-02T08:16:34Z</time>
      </trkpt>
      <trkpt lat="45.05758" lon="4.09471">
        <ele>1111.9</ele>
        <time>2025-09-02T08:16:53Z</time>
      </trkpt>
      <trkpt lat="45.05748" lon="4.09485">
        <ele>1114.31</ele>
        <time>2025-09-02T08:17:12Z</time>
      </trkpt>
      <trkpt lat="45.05729" lon="4.09495">
        <ele>1114.31</ele>
        <time>2025-09-02T08:17:41Z</time>
      </trkpt>
      <trkpt lat="45.05717" lon="4.09511">
        <ele>1114.31</ele>
        <time>2025-09-02T08:18:04Z</time>
      </trkpt>
      <trkpt lat="45.05712" lon="4.09543">
        <ele>1115.75</ele>
        <time>2025-09-02T08:18:28Z</time>
      </trkpt>
      <trkpt lat="45.05711" lon="4.09569">
        <ele>1120.55</ele>
        <time>2025-09-02T08:18:51Z</time>
      </trkpt>
      <trkpt lat="45.05698" lon="4.09585">
        <ele>1125.84</ele>
        <time>2025-09-02T08:19:13Z</time>
      </trkpt>
      <trkpt lat="45.05691" lon="4.09571">
        <ele>1132.57</ele>
        <time>2025-09-02T08:19:33Z</time>
      </trkpt>
      <trkpt lat="45.05683" lon="4.09584">
        <ele>1140.26</ele>
        <time>2025-09-02T08:19:53Z</time>
      </trkpt>
      <trkpt lat="45.05671" lon="4.09601">
        <ele>1141.7</ele>
        <time>2025-09-02T08:20:13Z</time>
      </trkpt>
      <trkpt lat="45.05662" lon="4.09591">
        <ele>1138.34</ele>
        <time>2025-09-02T08:20:36Z</time>
      </trkpt>
      <trkpt lat="45.05661" lon="4.09613">
        <ele>1146.51</ele>
        <time>2025-09-02T08:20:57Z</time>
      </trkpt>
      <trkpt lat="45.05651" lon="4.09628">
        <ele>1152.28</ele>
        <time>2025-09-02T08:21:18Z</time>
      </trkpt>
      <trkpt lat="45.0565" lon="4.09614">
        <ele>1157.08</ele>
        <time>2025-09-02T08:21:40Z</time>
      </trkpt>
      <trkpt lat="45.0564" lon="4.09614">
        <ele>1155.16</ele>
        <time>2025-09-02T08:21:58Z</time>
      </trkpt>
      <trkpt lat="45.05638" lon="4.09611">
        <ele>1155.16</ele>
        <time>2025-09-02T08:22:15Z</time>
      </trkpt>
      <trkpt lat="45.05639" lon="4.09614">
        <ele>1154.68</ele>
        <time>2025-09-02T08:22:28Z</time>
      </trkpt>
      <trkpt lat="45.05638" lon="4.0961">
        <ele>1155.64</ele>
        <time>2025-09-02T08:22:50Z</time>
      </trkpt>
      <trkpt lat="45.0564" lon="4.09613">
        <ele>1156.6</ele>
        <time>2025-09-02T08:23:14Z</time>
      </trkpt>
      <trkpt lat="45.05639" lon="4.09615">
        <ele>1155.16</ele>
        <time>2025-09-02T08:23:29Z</time>
      </trkpt>
      <trkpt lat="45.05636" lon="4.09621">
        <ele>1154.68</ele>
        <time>2025-09-02T08:23:43Z</time>
      </trkpt>
      <trkpt lat="45.05637" lon="4.09619">
        <ele>1153.24</ele>
        <time>2025-09-02T08:24:15Z</time>
      </trkpt>
      <trkpt lat="45.05633" lon="4.09617">
        <ele>1151.32</ele>
        <time>2025-09-02T08:25:00Z</time>
      </trkpt>
      <trkpt lat="45.05636" lon="4.09619">
        <ele>1154.2</ele>
        <time>2025-09-02T08:25:39Z</time>
      </trkpt>
      <trkpt lat="45.05634" lon="4.09618">
        <ele>1158.05</ele>
        <time>2025-09-02T08:26:16Z</time>
      </trkpt>
      <trkpt lat="45.05636" lon="4.09614">
        <ele>1158.05</ele>
        <time>2025-09-02T08:26:42Z</time>
      </trkpt>
      <trkpt lat="45.05638" lon="4.09614">
        <ele>1159.01</ele>
        <time>2025-09-02T08:27:14Z</time>
      </trkpt>
      <trkpt lat="45.05639" lon="4.09614">
        <ele>1158.53</ele>
        <time>2025-09-02T08:27:34Z</time>
      </trkpt>
      <trkpt lat="45.05639" lon="4.09614">
        <ele>1157.56</ele>
        <time>2025-09-02T08:27:55Z</time>
      </trkpt>
      <trkpt lat="45.0564" lon="4.09615">
        <ele>1157.56</ele>
        <time>2025-09-02T08:28:23Z</time>
      </trkpt>
      <trkpt lat="45.05638" lon="4.09613">
        <ele>1157.08</ele>
        <time>2025-09-02T08:28:39Z</time>
      </trkpt>
      <trkpt lat="45.05638" lon="4.09612">
        <ele>1158.05</ele>
        <time>2025-09-02T08:29:00Z</time>
      </trkpt>
      <trkpt lat="45.05644" lon="4.09607">
        <ele>1157.56</ele>
        <time>2025-09-02T08:29:18Z</time>
      </trkpt>
      <trkpt lat="45.05653" lon="4.09629">
        <ele>1154.68</ele>
        <time>2025-09-02T08:29:40Z</time>
      </trkpt>
      <trkpt lat="45.05658" lon="4.09628">
        <ele>1151.8</ele>
        <time>2025-09-02T08:29:55Z</time>
      </trkpt>
      <trkpt lat="45.05662" lon="4.09604">
        <ele>1146.51</ele>
        <time>2025-09-02T08:30:17Z</time>
      </trkpt>
      <trkpt lat="45.05666" lon="4.09595">
        <ele>1141.7</ele>
        <time>2025-09-02T08:30:36Z</time>
      </trkpt>
      <trkpt lat="45.05665" lon="4.09607">
        <ele>1132.09</ele>
        <time>2025-09-02T08:30:59Z</time>
      </trkpt>
      <trkpt lat="45.05666" lon="4.09588">
        <ele>1127.76</ele>
        <time>2025-09-02T08:31:11Z</time>
      </trkpt>
      <trkpt lat="45.05672" lon="4.09577">
        <ele>1121.52</ele>
        <time>2025-09-02T08:31:34Z</time>
      </trkpt>
      <trkpt lat="45.05694" lon="4.09577">
        <ele>1116.71</ele>
        <time>2025-09-02T08:31:54Z</time>
      </trkpt>
      <trkpt lat="45.05708" lon="4.09572">
        <ele>1125.84</ele>
        <time>2025-09-02T08:32:11Z</time>
      </trkpt>
      <trkpt lat="45.05713" lon="4.0956">
        <ele>1126.8</ele>
        <time>2025-09-02T08:32:26Z</time>
      </trkpt>
      <trkpt lat="45.05713" lon="4.09556">
        <ele>1124.4</ele>
        <time>2025-09-02T08:32:42Z</time>
      </trkpt>
      <trkpt lat="45.05714" lon="4.09555">
        <ele>1124.4</ele>
        <time>2025-09-02T08:32:44Z</time>
      </trkpt>
      <trkpt lat="45.05716" lon="4.0955">
        <ele>1123.44</ele>
        <time>2025-09-02T08:32:58Z</time>
      </trkpt>
      <trkpt lat="45.05718" lon="4.0954">
        <ele>1122</ele>
        <time>2025-09-02T08:33:15Z</time>
      </trkpt>
      <trkpt lat="45.05722" lon="4.09526">
        <ele>1118.63</ele>
        <time>2025-09-02T08:33:34Z</time>
      </trkpt>
      <trkpt lat="45.05735" lon="4.09511">
        <ele>1115.75</ele>
        <time>2025-09-02T08:33:54Z</time>
      </trkpt>
      <trkpt lat="45.05751" lon="4.09495">
        <ele>1110.94</ele>
        <time>2025-09-02T08:34:12Z</time>
      </trkpt>
      <trkpt lat="45.05756" lon="4.09487">
        <ele>1108.06</ele>
        <time>2025-09-02T08:34:24Z</time>
      </trkpt>
      <trkpt lat="45.05757" lon="4.09485">
        <ele>1108.06</ele>
        <time>2025-09-02T08:34:26Z</time>
      </trkpt>
      <trkpt lat="45.05763" lon="4.09472">
        <ele>1104.69</ele>
        <time>2025-09-02T08:34:35Z</time>
      </trkpt>
      <trkpt lat="45.05764" lon="4.09467">
        <ele>1104.69</ele>
        <time>2025-09-02T08:34:37Z</time>
      </trkpt>
      <trkpt lat="45.05764" lon="4.09465">
        <ele>1104.21</ele>
        <time>2025-09-02T08:34:38Z</time>
      </trkpt>
      <trkpt lat="45.05771" lon="4.09452">
        <ele>1101.81</ele>
        <time>2025-09-02T08:34:50Z</time>
      </trkpt>
      <trkpt lat="45.05784" lon="4.09428">
        <ele>1100.37</ele>
        <time>2025-09-02T08:35:09Z</time>
      </trkpt>
      <trkpt lat="45.05777" lon="4.09407">
        <ele>1097.48</ele>
        <time>2025-09-02T08:35:25Z</time>
      </trkpt>
      <trkpt lat="45.05767" lon="4.09401">
        <ele>1097.48</ele>
        <time>2025-09-02T08:35:42Z</time>
      </trkpt>
      <trkpt lat="45.05759" lon="4.09394">
        <ele>1096.52</ele>
        <time>2025-09-02T08:35:51Z</time>
      </trkpt>
      <trkpt lat="45.05757" lon="4.09394">
        <ele>1096.04</ele>
        <time>2025-09-02T08:35:52Z</time>
      </trkpt>
      <trkpt lat="45.05736" lon="4.09377">
        <ele>1094.6</ele>
        <time>2025-09-02T08:36:12Z</time>
      </trkpt>
      <trkpt lat="45.05717" lon="4.0936">
        <ele>1090.27</ele>
        <time>2025-09-02T08:36:33Z</time>
      </trkpt>
      <trkpt lat="45.05698" lon="4.0934">
        <ele>1086.91</ele>
        <time>2025-09-02T08:36:53Z</time>
      </trkpt>
      <trkpt lat="45.05688" lon="4.09329">
        <ele>1084.99</ele>
        <time>2025-09-02T08:37:09Z</time>
      </trkpt>
      <trkpt lat="45.05677" lon="4.09312">
        <ele>1081.62</ele>
        <time>2025-09-02T08:37:24Z</time>
      </trkpt>
      <trkpt lat="45.05661" lon="4.09288">
        <ele>1077.29</ele>
        <time>2025-09-02T08:37:45Z</time>
      </trkpt>
      <trkpt lat="45.05646" lon="4.09253">
        <ele>1073.93</ele>
        <time>2025-09-02T08:38:07Z</time>
      </trkpt>
      <trkpt lat="45.0563" lon="4.0923">
        <ele>1073.45</ele>
        <time>2025-09-02T08:38:25Z</time>
      </trkpt>
      <trkpt lat="45.0562" lon="4.09211">
        <ele>1076.81</ele>
        <time>2025-09-02T08:38:47Z</time>
      </trkpt>
      <trkpt lat="45.05619" lon="4.0921">
        <ele>1076.81</ele>
        <time>2025-09-02T08:38:49Z</time>
      </trkpt>
      <trkpt lat="45.05599" lon="4.09204">
        <ele>1079.7</ele>
        <time>2025-09-02T08:39:10Z</time>
      </trkpt>
      <trkpt lat="45.05568" lon="4.09202">
        <ele>1077.78</ele>
        <time>2025-09-02T08:39:29Z</time>
      </trkpt>
      <trkpt lat="45.05543" lon="4.09186">
        <ele>1065.76</ele>
        <time>2025-09-02T08:39:46Z</time>
      </trkpt>
      <trkpt lat="45.05539" lon="4.09182">
        <ele>1063.84</ele>
        <time>2025-09-02T08:39:51Z</time>
      </trkpt>
      <trkpt lat="45.05531" lon="4.09163">
        <ele>1061.91</ele>
        <time>2025-09-02T08:40:03Z</time>
      </trkpt>
      <trkpt lat="45.0552" lon="4.09157">
        <ele>1060.95</ele>
        <time>2025-09-02T08:40:19Z</time>
      </trkpt>
      <trkpt lat="45.05518" lon="4.09187">
        <ele>1057.59</ele>
        <time>2025-09-02T08:40:38Z</time>
      </trkpt>
      <trkpt lat="45.0552" lon="4.09218">
        <ele>1054.22</ele>
        <time>2025-09-02T08:41:00Z</time>
      </trkpt>
      <trkpt lat="45.05534" lon="4.09234">
        <ele>1051.82</ele>
        <time>2025-09-02T08:41:19Z</time>
      </trkpt>
      <trkpt lat="45.05546" lon="4.09257">
        <ele>1047.01</ele>
        <time>2025-09-02T08:41:41Z</time>
      </trkpt>
      <trkpt lat="45.05551" lon="4.0928">
        <ele>1047.49</ele>
        <time>2025-09-02T08:42:03Z</time>
      </trkpt>
      <trkpt lat="45.05553" lon="4.09313">
        <ele>1047.01</ele>
        <time>2025-09-02T08:42:21Z</time>
      </trkpt>
      <trkpt lat="45.05546" lon="4.09341">
        <ele>1046.53</ele>
        <time>2025-09-02T08:42:39Z</time>
      </trkpt>
      <trkpt lat="45.05543" lon="4.09367">
        <ele>1045.09</ele>
        <time>2025-09-02T08:42:59Z</time>
      </trkpt>
      <trkpt lat="45.05525" lon="4.09392">
        <ele>1043.65</ele>
        <time>2025-09-02T08:43:22Z</time>
      </trkpt>
      <trkpt lat="45.05499" lon="4.0942">
        <ele>1040.28</ele>
        <time>2025-09-02T08:43:43Z</time>
      </trkpt>
      <trkpt lat="45.05484" lon="4.09436">
        <ele>1038.36</ele>
        <time>2025-09-02T08:44:01Z</time>
      </trkpt>
      <trkpt lat="45.05472" lon="4.09459">
        <ele>1036.44</ele>
        <time>2025-09-02T08:44:21Z</time>
      </trkpt>
      <trkpt lat="45.05464" lon="4.09488">
        <ele>1034.04</ele>
        <time>2025-09-02T08:44:40Z</time>
      </trkpt>
      <trkpt lat="45.05454" lon="4.09518">
        <ele>1034.04</ele>
        <time>2025-09-02T08:45:03Z</time>
      </trkpt>
      <trkpt lat="45.05446" lon="4.09545">
        <ele>1035.48</ele>
        <time>2025-09-02T08:45:15Z</time>
      </trkpt>
      <trkpt lat="45.0544" lon="4.09579">
        <ele>1039.32</ele>
        <time>2025-09-02T08:45:35Z</time>
      </trkpt>
      <trkpt lat="45.05443" lon="4.09612">
        <ele>1037.88</ele>
        <time>2025-09-02T08:45:55Z</time>
      </trkpt>
      <trkpt lat="45.05445" lon="4.09612">
        <ele>1031.15</ele>
        <time>2025-09-02T08:46:18Z</time>
      </trkpt>
      <trkpt lat="45.05445" lon="4.09611">
        <ele>1027.31</ele>
        <time>2025-09-02T08:46:45Z</time>
      </trkpt>
      <trkpt lat="45.05448" lon="4.09625">
        <ele>1019.62</ele>
        <time>2025-09-02T08:47:08Z</time>
      </trkpt>
      <trkpt lat="45.05452" lon="4.09611">
        <ele>1013.85</ele>
        <time>2025-09-02T08:47:28Z</time>
      </trkpt>
      <trkpt lat="45.05442" lon="4.09619">
        <ele>1009.52</ele>
        <time>2025-09-02T08:47:50Z</time>
      </trkpt>
      <trkpt lat="45.05436" lon="4.09634">
        <ele>1003.27</ele>
        <time>2025-09-02T08:48:13Z</time>
      </trkpt>
      <trkpt lat="45.05429" lon="4.09637">
        <ele>998.47</ele>
        <time>2025-09-02T08:48:29Z</time>
      </trkpt>
      <trkpt lat="45.05425" lon="4.09622">
        <ele>994.62</ele>
        <time>2025-09-02T08:48:49Z</time>
      </trkpt>
      <trkpt lat="45.05421" lon="4.09605">
        <ele>992.7</ele>
        <time>2025-09-02T08:49:11Z</time>
      </trkpt>
      <trkpt lat="45.05425" lon="4.09585">
        <ele>989.33</ele>
        <time>2025-09-02T08:49:33Z</time>
      </trkpt>
      <trkpt lat="45.05421" lon="4.09561">
        <ele>985.01</ele>
        <time>2025-09-02T08:49:54Z</time>
      </trkpt>
      <trkpt lat="45.05413" lon="4.09522">
        <ele>981.64</ele>
        <time>2025-09-02T08:50:15Z</time>
      </trkpt>
      <trkpt lat="45.05408" lon="4.09515">
        <ele>978.76</ele>
        <time>2025-09-02T08:50:21Z</time>
      </trkpt>
      <trkpt lat="45.05387" lon="4.09494">
        <ele>971.07</ele>
        <time>2025-09-02T08:50:44Z</time>
      </trkpt>
      <trkpt lat="45.05379" lon="4.09484">
        <ele>972.51</ele>
        <time>2025-09-02T08:51:10Z</time>
      </trkpt>
      <trkpt lat="45.05382" lon="4.09475">
        <ele>973.47</ele>
        <time>2025-09-02T08:51:30Z</time>
      </trkpt>
      <trkpt lat="45.05367" lon="4.09458">
        <ele>980.68</ele>
        <time>2025-09-02T08:51:53Z</time>
      </trkpt>
      <trkpt lat="45.05336" lon="4.09417">
        <ele>972.51</ele>
        <time>2025-09-02T08:52:17Z</time>
      </trkpt>
      <trkpt lat="45.05314" lon="4.09395">
        <ele>966.26</ele>
        <time>2025-09-02T08:52:39Z</time>
      </trkpt>
      <trkpt lat="45.05313" lon="4.09393">
        <ele>965.78</ele>
        <time>2025-09-02T08:52:40Z</time>
      </trkpt>
      <trkpt lat="45.0531" lon="4.09381">
        <ele>963.38</ele>
        <time>2025-09-02T08:52:45Z</time>
      </trkpt>
      <trkpt lat="45.05297" lon="4.09373">
        <ele>960.01</ele>
        <time>2025-09-02T08:53:06Z</time>
      </trkpt>
      <trkpt lat="45.05282" lon="4.094">
        <ele>956.17</ele>
        <time>2025-09-02T08:53:27Z</time>
      </trkpt>
      <trkpt lat="45.05286" lon="4.09415">
        <ele>955.69</ele>
        <time>2025-09-02T08:53:51Z</time>
      </trkpt>
      <trkpt lat="45.05289" lon="4.0943">
        <ele>955.69</ele>
        <time>2025-09-02T08:54:13Z</time>
      </trkpt>
      <trkpt lat="45.05302" lon="4.09447">
        <ele>956.65</ele>
        <time>2025-09-02T08:54:34Z</time>
      </trkpt>
      <trkpt lat="45.05299" lon="4.09456">
        <ele>956.17</ele>
        <time>2025-09-02T08:54:58Z</time>
      </trkpt>
      <trkpt lat="45.05297" lon="4.09456">
        <ele>956.17</ele>
        <time>2025-09-02T08:55:24Z</time>
      </trkpt>
      <trkpt lat="45.05321" lon="4.09444">
        <ele>966.26</ele>
        <time>2025-09-02T08:55:51Z</time>
      </trkpt>
      <trkpt lat="45.05312" lon="4.0943">
        <ele>968.67</ele>
        <time>2025-09-02T08:56:14Z</time>
      </trkpt>
      <trkpt lat="45.05297" lon="4.09438">
        <ele>970.11</ele>
        <time>2025-09-02T08:56:35Z</time>
      </trkpt>
      <trkpt lat="45.05296" lon="4.09464">
        <ele>969.63</ele>
        <time>2025-09-02T08:56:56Z</time>
      </trkpt>
      <trkpt lat="45.05293" lon="4.09492">
        <ele>971.55</ele>
        <time>2025-09-02T08:57:20Z</time>
      </trkpt>
      <trkpt lat="45.05316" lon="4.09515">
        <ele>973.95</ele>
        <time>2025-09-02T08:57:43Z</time>
      </trkpt>
      <trkpt lat="45.05323" lon="4.09539">
        <ele>976.84</ele>
        <time>2025-09-02T08:58:05Z</time>
      </trkpt>
      <trkpt lat="45.05314" lon="4.09564">
        <ele>976.36</ele>
        <time>2025-09-02T08:58:30Z</time>
      </trkpt>
      <trkpt lat="45.0531" lon="4.09586">
        <ele>978.28</ele>
        <time>2025-09-02T08:58:53Z</time>
      </trkpt>
      <trkpt lat="45.05295" lon="4.09611">
        <ele>982.12</ele>
        <time>2025-09-02T08:59:16Z</time>
      </trkpt>
      <trkpt lat="45.05295" lon="4.09633">
        <ele>984.53</ele>
        <time>2025-09-02T08:59:36Z</time>
      </trkpt>
      <trkpt lat="45.05299" lon="4.09676">
        <ele>980.68</ele>
        <time>2025-09-02T09:00:00Z</time>
      </trkpt>
      <trkpt lat="45.05287" lon="4.09711">
        <ele>985.97</ele>
        <time>2025-09-02T09:00:20Z</time>
      </trkpt>
      <trkpt lat="45.05277" lon="4.09716">
        <ele>988.37</ele>
        <time>2025-09-02T09:00:38Z</time>
      </trkpt>
      <trkpt lat="45.05276" lon="4.09715">
        <ele>988.37</ele>
        <time>2025-09-02T09:00:39Z</time>
      </trkpt>
      <trkpt lat="45.05257" lon="4.09698">
        <ele>987.89</ele>
        <time>2025-09-02T09:01:06Z</time>
      </trkpt>
      <trkpt lat="45.0525" lon="4.09681">
        <ele>988.37</ele>
        <time>2025-09-02T09:01:26Z</time>
      </trkpt>
      <trkpt lat="45.05236" lon="4.09656">
        <ele>992.7</ele>
        <time>2025-09-02T09:01:50Z</time>
      </trkpt>
      <trkpt lat="45.05214" lon="4.09629">
        <ele>997.02</ele>
        <time>2025-09-02T09:02:18Z</time>
      </trkpt>
      <trkpt lat="45.05198" lon="4.09607">
        <ele>1002.31</ele>
        <time>2025-09-02T09:02:41Z</time>
      </trkpt>
      <trkpt lat="45.05199" lon="4.0958">
        <ele>1009.04</ele>
        <time>2025-09-02T09:03:04Z</time>
      </trkpt>
      <trkpt lat="45.0519" lon="4.09557">
        <ele>1019.62</ele>
        <time>2025-09-02T09:03:30Z</time>
      </trkpt>
      <trkpt lat="45.05164" lon="4.09527">
        <ele>1025.38</ele>
        <time>2025-09-02T09:03:54Z</time>
      </trkpt>
      <trkpt lat="45.05122" lon="4.09506">
        <ele>1025.38</ele>
        <time>2025-09-02T09:04:17Z</time>
      </trkpt>
      <trkpt lat="45.05103" lon="4.09483">
        <ele>1033.07</ele>
        <time>2025-09-02T09:04:37Z</time>
      </trkpt>
      <trkpt lat="45.05087" lon="4.09471">
        <ele>1040.28</ele>
        <time>2025-09-02T09:04:58Z</time>
      </trkpt>
      <trkpt lat="45.05056" lon="4.09452">
        <ele>1043.17</ele>
        <time>2025-09-02T09:05:21Z</time>
      </trkpt>
      <trkpt lat="45.05023" lon="4.09435">
        <ele>1047.01</ele>
        <time>2025-09-02T09:05:45Z</time>
      </trkpt>
      <trkpt lat="45.05009" lon="4.0943">
        <ele>1047.49</ele>
        <time>2025-09-02T09:05:54Z</time>
      </trkpt>
      <trkpt lat="45.04982" lon="4.09415">
        <ele>1054.22</ele>
        <time>2025-09-02T09:06:15Z</time>
      </trkpt>
      <trkpt lat="45.04961" lon="4.09413">
        <ele>1060.47</ele>
        <time>2025-09-02T09:06:33Z</time>
      </trkpt>
      <trkpt lat="45.04938" lon="4.09407">
        <ele>1063.84</ele>
        <time>2025-09-02T09:06:51Z</time>
      </trkpt>
      <trkpt lat="45.04921" lon="4.09392">
        <ele>1067.2</ele>
        <time>2025-09-02T09:07:07Z</time>
      </trkpt>
      <trkpt lat="45.04908" lon="4.09379">
        <ele>1068.64</ele>
        <time>2025-09-02T09:07:24Z</time>
      </trkpt>
      <trkpt lat="45.04889" lon="4.0936">
        <ele>1069.12</ele>
        <time>2025-09-02T09:07:44Z</time>
      </trkpt>
      <trkpt lat="45.04856" lon="4.09329">
        <ele>1063.84</ele>
        <time>2025-09-02T09:08:06Z</time>
      </trkpt>
      <trkpt lat="45.04833" lon="4.09303">
        <ele>1060.95</ele>
        <time>2025-09-02T09:08:26Z</time>
      </trkpt>
      <trkpt lat="45.04812" lon="4.09283">
        <ele>1059.51</ele>
        <time>2025-09-02T09:08:45Z</time>
      </trkpt>
      <trkpt lat="45.04789" lon="4.09266">
        <ele>1054.22</ele>
        <time>2025-09-02T09:09:05Z</time>
      </trkpt>
      <trkpt lat="45.04773" lon="4.09255">
        <ele>1050.38</ele>
        <time>2025-09-02T09:09:19Z</time>
      </trkpt>
      <trkpt lat="45.0475" lon="4.09253">
        <ele>1041.25</ele>
        <time>2025-09-02T09:09:35Z</time>
      </trkpt>
      <trkpt lat="45.04727" lon="4.0925">
        <ele>1038.84</ele>
        <time>2025-09-02T09:09:53Z</time>
      </trkpt>
      <trkpt lat="45.04705" lon="4.09235">
        <ele>1035.48</ele>
        <time>2025-09-02T09:10:11Z</time>
      </trkpt>
      <trkpt lat="45.04691" lon="4.09221">
        <ele>1033.55</ele>
        <time>2025-09-02T09:10:29Z</time>
      </trkpt>
      <trkpt lat="45.04669" lon="4.09216">
        <ele>1030.19</ele>
        <time>2025-09-02T09:10:48Z</time>
      </trkpt>
      <trkpt lat="45.04644" lon="4.09204">
        <ele>1025.38</ele>
        <time>2025-09-02T09:11:05Z</time>
      </trkpt>
      <trkpt lat="45.04608" lon="4.09183">
        <ele>1019.13</ele>
        <time>2025-09-02T09:11:30Z</time>
      </trkpt>
      <trkpt lat="45.04579" lon="4.09165">
        <ele>1014.33</ele>
        <time>2025-09-02T09:11:50Z</time>
      </trkpt>
      <trkpt lat="45.04564" lon="4.09162">
        <ele>1008.56</ele>
        <time>2025-09-02T09:12:08Z</time>
      </trkpt>
      <trkpt lat="45.04558" lon="4.09159">
        <ele>1002.31</ele>
        <time>2025-09-02T09:12:30Z</time>
      </trkpt>
      <trkpt lat="45.04559" lon="4.09161">
        <ele>1000.87</ele>
        <time>2025-09-02T09:12:49Z</time>
      </trkpt>
      <trkpt lat="45.04559" lon="4.09162">
        <ele>1000.87</ele>
        <time>2025-09-02T09:13:10Z</time>
      </trkpt>
      <trkpt lat="45.04555" lon="4.09163">
        <ele>999.91</ele>
        <time>2025-09-02T09:13:28Z</time>
      </trkpt>
      <trkpt lat="45.04546" lon="4.0916">
        <ele>999.43</ele>
        <time>2025-09-02T09:13:48Z</time>
      </trkpt>
      <trkpt lat="45.0453" lon="4.09152">
        <ele>999.43</ele>
        <time>2025-09-02T09:14:06Z</time>
      </trkpt>
      <trkpt lat="45.04515" lon="4.09138">
        <ele>1000.39</ele>
        <time>2025-09-02T09:14:24Z</time>
      </trkpt>
      <trkpt lat="45.04502" lon="4.09117">
        <ele>1000.87</ele>
        <time>2025-09-02T09:14:42Z</time>
      </trkpt>
      <trkpt lat="45.04486" lon="4.09096">
        <ele>1002.31</ele>
        <time>2025-09-02T09:14:59Z</time>
      </trkpt>
      <trkpt lat="45.04472" lon="4.09079">
        <ele>1002.79</ele>
        <time>2025-09-02T09:15:15Z</time>
      </trkpt>
      <trkpt lat="45.04459" lon="4.09067">
        <ele>1001.83</ele>
        <time>2025-09-02T09:15:29Z</time>
      </trkpt>
      <trkpt lat="45.04446" lon="4.09046">
        <ele>1000.39</ele>
        <time>2025-09-02T09:15:47Z</time>
      </trkpt>
      <trkpt lat="45.04429" lon="4.09025">
        <ele>1000.87</ele>
        <time>2025-09-02T09:16:07Z</time>
      </trkpt>
      <trkpt lat="45.04413" lon="4.09014">
        <ele>997.99</ele>
        <time>2025-09-02T09:16:23Z</time>
      </trkpt>
      <trkpt lat="45.044" lon="4.09002">
        <ele>995.1</ele>
        <time>2025-09-02T09:16:39Z</time>
      </trkpt>
      <trkpt lat="45.04385" lon="4.08988">
        <ele>990.78</ele>
        <time>2025-09-02T09:17:00Z</time>
      </trkpt>
      <trkpt lat="45.0438" lon="4.08987">
        <ele>986.93</ele>
        <time>2025-09-02T09:17:17Z</time>
      </trkpt>
      <trkpt lat="45.04379" lon="4.08982">
        <ele>985.97</ele>
        <time>2025-09-02T09:17:41Z</time>
      </trkpt>
      <trkpt lat="45.04376" lon="4.08984">
        <ele>986.93</ele>
        <time>2025-09-02T09:18:03Z</time>
      </trkpt>
      <trkpt lat="45.04363" lon="4.08983">
        <ele>986.45</ele>
        <time>2025-09-02T09:18:18Z</time>
      </trkpt>
      <trkpt lat="45.04345" lon="4.08971">
        <ele>984.53</ele>
        <time>2025-09-02T09:18:37Z</time>
      </trkpt>
      <trkpt lat="45.04328" lon="4.08955">
        <ele>985.01</ele>
        <time>2025-09-02T09:18:57Z</time>
      </trkpt>
      <trkpt lat="45.04313" lon="4.08939">
        <ele>984.53</ele>
        <time>2025-09-02T09:19:14Z</time>
      </trkpt>
      <trkpt lat="45.043" lon="4.08923">
        <ele>983.09</ele>
        <time>2025-09-02T09:19:32Z</time>
      </trkpt>
      <trkpt lat="45.04283" lon="4.08905">
        <ele>978.76</ele>
        <time>2025-09-02T09:19:52Z</time>
      </trkpt>
      <trkpt lat="45.04262" lon="4.08886">
        <ele>976.36</ele>
        <time>2025-09-02T09:20:12Z</time>
      </trkpt>
      <trkpt lat="45.04242" lon="4.0888">
        <ele>972.03</ele>
        <time>2025-09-02T09:20:31Z</time>
      </trkpt>
      <trkpt lat="45.0422" lon="4.08881">
        <ele>968.18</ele>
        <time>2025-09-02T09:20:50Z</time>
      </trkpt>
      <trkpt lat="45.04191" lon="4.08882">
        <ele>969.63</ele>
        <time>2025-09-02T09:21:09Z</time>
      </trkpt>
      <trkpt lat="45.04173" lon="4.0888">
        <ele>971.07</ele>
        <time>2025-09-02T09:21:24Z</time>
      </trkpt>
      <trkpt lat="45.04157" lon="4.08881">
        <ele>969.63</ele>
        <time>2025-09-02T09:21:41Z</time>
      </trkpt>
      <trkpt lat="45.04136" lon="4.08886">
        <ele>967.22</ele>
        <time>2025-09-02T09:21:57Z</time>
      </trkpt>
      <trkpt lat="45.04118" lon="4.08881">
        <ele>965.78</ele>
        <time>2025-09-02T09:22:09Z</time>
      </trkpt>
      <trkpt lat="45.041" lon="4.08875">
        <ele>964.82</ele>
        <time>2025-09-02T09:22:24Z</time>
      </trkpt>
      <trkpt lat="45.04082" lon="4.08869">
        <ele>963.86</ele>
        <time>2025-09-02T09:22:40Z</time>
      </trkpt>
      <trkpt lat="45.04072" lon="4.08864">
        <ele>961.94</ele>
        <time>2025-09-02T09:22:49Z</time>
      </trkpt>
      <trkpt lat="45.04061" lon="4.08844">
        <ele>957.13</ele>
        <time>2025-09-02T09:23:02Z</time>
      </trkpt>
      <trkpt lat="45.04057" lon="4.08827">
        <ele>954.73</ele>
        <time>2025-09-02T09:23:12Z</time>
      </trkpt>
      <trkpt lat="45.04052" lon="4.08814">
        <ele>953.77</ele>
        <time>2025-09-02T09:23:23Z</time>
      </trkpt>
      <trkpt lat="45.04051" lon="4.08814">
        <ele>953.28</ele>
        <time>2025-09-02T09:23:24Z</time>
      </trkpt>
      <trkpt lat="45.04041" lon="4.08808">
        <ele>950.88</ele>
        <time>2025-09-02T09:23:35Z</time>
      </trkpt>
      <trkpt lat="45.04033" lon="4.08805">
        <ele>948.96</ele>
        <time>2025-09-02T09:23:42Z</time>
      </trkpt>
      <trkpt lat="45.04032" lon="4.08805">
        <ele>948.96</ele>
        <time>2025-09-02T09:23:43Z</time>
      </trkpt>
      <trkpt lat="45.04021" lon="4.08804">
        <ele>946.07</ele>
        <time>2025-09-02T09:23:57Z</time>
      </trkpt>
      <trkpt lat="45.0402" lon="4.08807">
        <ele>944.63</ele>
        <time>2025-09-02T09:24:13Z</time>
      </trkpt>
      <trkpt lat="45.0402" lon="4.08806">
        <ele>944.63</ele>
        <time>2025-09-02T09:24:14Z</time>
      </trkpt>
      <trkpt lat="45.04022" lon="4.08805">
        <ele>945.59</ele>
        <time>2025-09-02T09:24:29Z</time>
      </trkpt>
      <trkpt lat="45.04022" lon="4.08802">
        <ele>948</ele>
        <time>2025-09-02T09:24:59Z</time>
      </trkpt>
      <trkpt lat="45.04016" lon="4.08802">
        <ele>947.04</ele>
        <time>2025-09-02T09:25:15Z</time>
      </trkpt>
      <trkpt lat="45.04016" lon="4.08806">
        <ele>947.04</ele>
        <time>2025-09-02T09:25:30Z</time>
      </trkpt>
      <trkpt lat="45.04014" lon="4.08805">
        <ele>948.96</ele>
        <time>2025-09-02T09:25:52Z</time>
      </trkpt>
      <trkpt lat="45.04018" lon="4.08805">
        <ele>949.44</ele>
        <time>2025-09-02T09:26:14Z</time>
      </trkpt>
      <trkpt lat="45.04006" lon="4.08806">
        <ele>949.92</ele>
        <time>2025-09-02T09:26:32Z</time>
      </trkpt>
      <trkpt lat="45.03986" lon="4.08804">
        <ele>952.32</ele>
        <time>2025-09-02T09:26:53Z</time>
      </trkpt>
      <trkpt lat="45.03967" lon="4.08794">
        <ele>956.17</ele>
        <time>2025-09-02T09:27:12Z</time>
      </trkpt>
      <trkpt lat="45.03951" lon="4.08785">
        <ele>959.05</ele>
        <time>2025-09-02T09:27:28Z</time>
      </trkpt>
      <trkpt lat="45.03935" lon="4.08767">
        <ele>963.86</ele>
        <time>2025-09-02T09:27:46Z</time>
      </trkpt>
      <trkpt lat="45.03918" lon="4.08746">
        <ele>968.18</ele>
        <time>2025-09-02T09:28:08Z</time>
      </trkpt>
      <trkpt lat="45.03894" lon="4.08734">
        <ele>971.07</ele>
        <time>2025-09-02T09:28:28Z</time>
      </trkpt>
      <trkpt lat="45.03873" lon="4.0873">
        <ele>973.95</ele>
        <time>2025-09-02T09:28:44Z</time>
      </trkpt>
      <trkpt lat="45.03868" lon="4.08737">
        <ele>974.43</ele>
        <time>2025-09-02T09:28:49Z</time>
      </trkpt>
      <trkpt lat="45.03867" lon="4.08739">
        <ele>974.43</ele>
        <time>2025-09-02T09:28:50Z</time>
      </trkpt>
      <trkpt lat="45.03866" lon="4.08741">
        <ele>974.43</ele>
        <time>2025-09-02T09:28:51Z</time>
      </trkpt>
      <trkpt lat="45.03861" lon="4.08764">
        <ele>973.95</ele>
        <time>2025-09-02T09:29:06Z</time>
      </trkpt>
      <trkpt lat="45.03854" lon="4.08794">
        <ele>973.95</ele>
        <time>2025-09-02T09:29:24Z</time>
      </trkpt>
      <trkpt lat="45.03845" lon="4.0882">
        <ele>973.95</ele>
        <time>2025-09-02T09:29:40Z</time>
      </trkpt>
      <trkpt lat="45.0384" lon="4.08822">
        <ele>972.03</ele>
        <time>2025-09-02T09:29:44Z</time>
      </trkpt>
      <trkpt lat="45.03824" lon="4.0884">
        <ele>973.95</ele>
        <time>2025-09-02T09:30:03Z</time>
      </trkpt>
      <trkpt lat="45.03823" lon="4.08848">
        <ele>974.43</ele>
        <time>2025-09-02T09:30:16Z</time>
      </trkpt>
      <trkpt lat="45.03809" lon="4.08868">
        <ele>976.36</ele>
        <time>2025-09-02T09:30:33Z</time>
      </trkpt>
      <trkpt lat="45.03799" lon="4.08876">
        <ele>975.88</ele>
        <time>2025-09-02T09:30:52Z</time>
      </trkpt>
      <trkpt lat="45.0379" lon="4.08888">
        <ele>977.8</ele>
        <time>2025-09-02T09:31:09Z</time>
      </trkpt>
      <trkpt lat="45.03793" lon="4.08914">
        <ele>975.88</ele>
        <time>2025-09-02T09:31:28Z</time>
      </trkpt>
      <trkpt lat="45.03779" lon="4.08917">
        <ele>979.24</ele>
        <time>2025-09-02T09:31:49Z</time>
      </trkpt>
      <trkpt lat="45.03767" lon="4.0894">
        <ele>985.01</ele>
        <time>2025-09-02T09:32:10Z</time>
      </trkpt>
      <trkpt lat="45.03768" lon="4.08972">
        <ele>984.53</ele>
        <time>2025-09-02T09:32:28Z</time>
      </trkpt>
      <trkpt lat="45.03759" lon="4.09005">
        <ele>985.01</ele>
        <time>2025-09-02T09:32:50Z</time>
      </trkpt>
      <trkpt lat="45.03756" lon="4.09031">
        <ele>985.49</ele>
        <time>2025-09-02T09:33:08Z</time>
      </trkpt>
      <trkpt lat="45.03755" lon="4.09054">
        <ele>986.93</ele>
        <time>2025-09-02T09:33:28Z</time>
      </trkpt>
      <trkpt lat="45.03749" lon="4.0909">
        <ele>989.33</ele>
        <time>2025-09-02T09:33:50Z</time>
      </trkpt>
      <trkpt lat="45.03739" lon="4.09121">
        <ele>995.1</ele>
        <time>2025-09-02T09:34:11Z</time>
      </trkpt>
      <trkpt lat="45.03739" lon="4.09139">
        <ele>994.62</ele>
        <time>2025-09-02T09:34:23Z</time>
      </trkpt>
      <trkpt lat="45.03738" lon="4.09142">
        <ele>994.14</ele>
        <time>2025-09-02T09:34:25Z</time>
      </trkpt>
      <trkpt lat="45.03734" lon="4.09147">
        <ele>993.66</ele>
        <time>2025-09-02T09:34:32Z</time>
      </trkpt>
      <trkpt lat="45.03708" lon="4.09144">
        <ele>995.1</ele>
        <time>2025-09-02T09:34:54Z</time>
      </trkpt>
      <trkpt lat="45.03688" lon="4.09136">
        <ele>991.74</ele>
        <time>2025-09-02T09:35:13Z</time>
      </trkpt>
      <trkpt lat="45.03669" lon="4.09121">
        <ele>991.74</ele>
        <time>2025-09-02T09:35:31Z</time>
      </trkpt>
      <trkpt lat="45.03648" lon="4.09104">
        <ele>988.37</ele>
        <time>2025-09-02T09:35:50Z</time>
      </trkpt>
      <trkpt lat="45.03628" lon="4.09093">
        <ele>987.41</ele>
        <time>2025-09-02T09:36:10Z</time>
      </trkpt>
      <trkpt lat="45.03624" lon="4.09083">
        <ele>991.74</ele>
        <time>2025-09-02T09:36:23Z</time>
      </trkpt>
      <trkpt lat="45.03613" lon="4.09087">
        <ele>990.3</ele>
        <time>2025-09-02T09:36:32Z</time>
      </trkpt>
      <trkpt lat="45.03612" lon="4.09088">
        <ele>990.3</ele>
        <time>2025-09-02T09:36:33Z</time>
      </trkpt>
      <trkpt lat="45.0361" lon="4.09089">
        <ele>990.78</ele>
        <time>2025-09-02T09:36:34Z</time>
      </trkpt>
      <trkpt lat="45.03592" lon="4.09101">
        <ele>987.41</ele>
        <time>2025-09-02T09:36:48Z</time>
      </trkpt>
      <trkpt lat="45.03575" lon="4.09106">
        <ele>990.3</ele>
        <time>2025-09-02T09:37:01Z</time>
      </trkpt>
      <trkpt lat="45.03557" lon="4.091">
        <ele>988.37</ele>
        <time>2025-09-02T09:37:14Z</time>
      </trkpt>
      <trkpt lat="45.03541" lon="4.09093">
        <ele>986.45</ele>
        <time>2025-09-02T09:37:28Z</time>
      </trkpt>
      <trkpt lat="45.03525" lon="4.09088">
        <ele>986.45</ele>
        <time>2025-09-02T09:37:40Z</time>
      </trkpt>
      <trkpt lat="45.03509" lon="4.09083">
        <ele>985.97</ele>
        <time>2025-09-02T09:37:52Z</time>
      </trkpt>
      <trkpt lat="45.03509" lon="4.09082">
        <ele>985.97</ele>
        <time>2025-09-02T09:37:53Z</time>
      </trkpt>
      <trkpt lat="45.03508" lon="4.0908">
        <ele>985.97</ele>
        <time>2025-09-02T09:37:54Z</time>
      </trkpt>
      <trkpt lat="45.03508" lon="4.09078">
        <ele>985.97</ele>
        <time>2025-09-02T09:37:55Z</time>
      </trkpt>
      <trkpt lat="45.03508" lon="4.09076">
        <ele>985.49</ele>
        <time>2025-09-02T09:37:56Z</time>
      </trkpt>
      <trkpt lat="45.03512" lon="4.0907">
        <ele>985.01</ele>
        <time>2025-09-02T09:38:04Z</time>
      </trkpt>
      <trkpt lat="45.03512" lon="4.09067">
        <ele>985.01</ele>
        <time>2025-09-02T09:38:05Z</time>
      </trkpt>
      <trkpt lat="45.03513" lon="4.09065">
        <ele>985.01</ele>
        <time>2025-09-02T09:38:06Z</time>
      </trkpt>
      <trkpt lat="45.03514" lon="4.09063">
        <ele>985.01</ele>
        <time>2025-09-02T09:38:07Z</time>
      </trkpt>
      <trkpt lat="45.03515" lon="4.09057">
        <ele>984.53</ele>
        <time>2025-09-02T09:38:12Z</time>
      </trkpt>
      <trkpt lat="45.03515" lon="4.09054">
        <ele>984.53</ele>
        <time>2025-09-02T09:38:13Z</time>
      </trkpt>
      <trkpt lat="45.03515" lon="4.09052">
        <ele>984.53</ele>
        <time>2025-09-02T09:38:14Z</time>
      </trkpt>
      <trkpt lat="45.03516" lon="4.09049">
        <ele>984.53</ele>
        <time>2025-09-02T09:38:15Z</time>
      </trkpt>
      <trkpt lat="45.03517" lon="4.09048">
        <ele>984.53</ele>
        <time>2025-09-02T09:38:16Z</time>
      </trkpt>
      <trkpt lat="45.03517" lon="4.09046">
        <ele>984.53</ele>
        <time>2025-09-02T09:38:17Z</time>
      </trkpt>
      <trkpt lat="45.03517" lon="4.09041">
        <ele>984.53</ele>
        <time>2025-09-02T09:38:22Z</time>
      </trkpt>
      <trkpt lat="45.03517" lon="4.09039">
        <ele>984.05</ele>
        <time>2025-09-02T09:38:23Z</time>
      </trkpt>
      <trkpt lat="45.03516" lon="4.09036">
        <ele>984.05</ele>
        <time>2025-09-02T09:38:24Z</time>
      </trkpt>
      <trkpt lat="45.03514" lon="4.09011">
        <ele>982.12</ele>
        <time>2025-09-02T09:38:36Z</time>
      </trkpt>
      <trkpt lat="45.03516" lon="4.08986">
        <ele>984.05</ele>
        <time>2025-09-02T09:38:50Z</time>
      </trkpt>
      <trkpt lat="45.03516" lon="4.08984">
        <ele>983.57</ele>
        <time>2025-09-02T09:38:51Z</time>
      </trkpt>
      <trkpt lat="45.03515" lon="4.08981">
        <ele>983.09</ele>
        <time>2025-09-02T09:38:52Z</time>
      </trkpt>
      <trkpt lat="45.03511" lon="4.08963">
        <ele>979.72</ele>
        <time>2025-09-02T09:39:03Z</time>
      </trkpt>
      <trkpt lat="45.03508" lon="4.08942">
        <ele>977.32</ele>
        <time>2025-09-02T09:39:17Z</time>
      </trkpt>
      <trkpt lat="45.03501" lon="4.0892">
        <ele>973.95</ele>
        <time>2025-09-02T09:39:33Z</time>
      </trkpt>
      <trkpt lat="45.03496" lon="4.08901">
        <ele>971.07</ele>
        <time>2025-09-02T09:39:44Z</time>
      </trkpt>
      <trkpt lat="45.03496" lon="4.08898">
        <ele>970.59</ele>
        <time>2025-09-02T09:39:46Z</time>
      </trkpt>
      <trkpt lat="45.03495" lon="4.08875">
        <ele>966.74</ele>
        <time>2025-09-02T09:39:59Z</time>
      </trkpt>
      <trkpt lat="45.03492" lon="4.08863">
        <ele>962.9</ele>
        <time>2025-09-02T09:40:07Z</time>
      </trkpt>
      <trkpt lat="45.03481" lon="4.08852">
        <ele>961.46</ele>
        <time>2025-09-02T09:40:18Z</time>
      </trkpt>
      <trkpt lat="45.03466" lon="4.08842">
        <ele>960.49</ele>
        <time>2025-09-02T09:40:31Z</time>
      </trkpt>
      <trkpt lat="45.03453" lon="4.08831">
        <ele>959.05</ele>
        <time>2025-09-02T09:40:43Z</time>
      </trkpt>
      <trkpt lat="45.03436" lon="4.08828">
        <ele>958.57</ele>
        <time>2025-09-02T09:40:55Z</time>
      </trkpt>
      <trkpt lat="45.03429" lon="4.0883">
        <ele>958.57</ele>
        <time>2025-09-02T09:41:01Z</time>
      </trkpt>
      <trkpt lat="45.03428" lon="4.0883">
        <ele>958.57</ele>
        <time>2025-09-02T09:41:02Z</time>
      </trkpt>
      <trkpt lat="45.03426" lon="4.08831">
        <ele>958.57</ele>
        <time>2025-09-02T09:41:03Z</time>
      </trkpt>
      <trkpt lat="45.03425" lon="4.08832">
        <ele>959.05</ele>
        <time>2025-09-02T09:41:04Z</time>
      </trkpt>
      <trkpt lat="45.03423" lon="4.08833">
        <ele>958.57</ele>
        <time>2025-09-02T09:41:05Z</time>
      </trkpt>
      <trkpt lat="45.03407" lon="4.08838">
        <ele>958.57</ele>
        <time>2025-09-02T09:41:18Z</time>
      </trkpt>
      <trkpt lat="45.03393" lon="4.08837">
        <ele>958.57</ele>
        <time>2025-09-02T09:41:30Z</time>
      </trkpt>
      <trkpt lat="45.03374" lon="4.08838">
        <ele>958.57</ele>
        <time>2025-09-02T09:41:44Z</time>
      </trkpt>
      <trkpt lat="45.03352" lon="4.08845">
        <ele>958.09</ele>
        <time>2025-09-02T09:41:58Z</time>
      </trkpt>
      <trkpt lat="45.03331" lon="4.08848">
        <ele>958.09</ele>
        <time>2025-09-02T09:42:14Z</time>
      </trkpt>
      <trkpt lat="45.03308" lon="4.08853">
        <ele>957.61</ele>
        <time>2025-09-02T09:42:32Z</time>
      </trkpt>
      <trkpt lat="45.03284" lon="4.08863">
        <ele>955.21</ele>
        <time>2025-09-02T09:42:51Z</time>
      </trkpt>
      <trkpt lat="45.03262" lon="4.08874">
        <ele>951.84</ele>
        <time>2025-09-02T09:43:09Z</time>
      </trkpt>
      <trkpt lat="45.03259" lon="4.08877">
        <ele>950.88</ele>
        <time>2025-09-02T09:43:12Z</time>
      </trkpt>
      <trkpt lat="45.03258" lon="4.08879">
        <ele>950.4</ele>
        <time>2025-09-02T09:43:13Z</time>
      </trkpt>
      <trkpt lat="45.03258" lon="4.0888">
        <ele>950.4</ele>
        <time>2025-09-02T09:43:14Z</time>
      </trkpt>
      <trkpt lat="45.03258" lon="4.08882">
        <ele>950.88</ele>
        <time>2025-09-02T09:43:15Z</time>
      </trkpt>
      <trkpt lat="45.03258" lon="4.08884">
        <ele>950.4</ele>
        <time>2025-09-02T09:43:16Z</time>
      </trkpt>
      <trkpt lat="45.03258" lon="4.08886">
        <ele>950.4</ele>
        <time>2025-09-02T09:43:17Z</time>
      </trkpt>
      <trkpt lat="45.03258" lon="4.08887">
        <ele>949.92</ele>
        <time>2025-09-02T09:43:18Z</time>
      </trkpt>
      <trkpt lat="45.03256" lon="4.08921">
        <ele>949.44</ele>
        <time>2025-09-02T09:43:39Z</time>
      </trkpt>
      <trkpt lat="45.03251" lon="4.08959">
        <ele>949.92</ele>
        <time>2025-09-02T09:44:00Z</time>
      </trkpt>
      <trkpt lat="45.03243" lon="4.08989">
        <ele>950.4</ele>
        <time>2025-09-02T09:44:18Z</time>
      </trkpt>
      <trkpt lat="45.03228" lon="4.09024">
        <ele>953.28</ele>
        <time>2025-09-02T09:44:41Z</time>
      </trkpt>
      <trkpt lat="45.03225" lon="4.09057">
        <ele>957.13</ele>
        <time>2025-09-02T09:44:58Z</time>
      </trkpt>
      <trkpt lat="45.03225" lon="4.09091">
        <ele>960.01</ele>
        <time>2025-09-02T09:45:17Z</time>
      </trkpt>
      <trkpt lat="45.03223" lon="4.09124">
        <ele>962.9</ele>
        <time>2025-09-02T09:45:35Z</time>
      </trkpt>
      <trkpt lat="45.03227" lon="4.09159">
        <ele>962.42</ele>
        <time>2025-09-02T09:45:54Z</time>
      </trkpt>
      <trkpt lat="45.03228" lon="4.09193">
        <ele>966.26</ele>
        <time>2025-09-02T09:46:12Z</time>
      </trkpt>
      <trkpt lat="45.03226" lon="4.09229">
        <ele>972.03</ele>
        <time>2025-09-02T09:46:31Z</time>
      </trkpt>
      <trkpt lat="45.03231" lon="4.09263">
        <ele>972.99</ele>
        <time>2025-09-02T09:46:50Z</time>
      </trkpt>
      <trkpt lat="45.03221" lon="4.09285">
        <ele>975.39</ele>
        <time>2025-09-02T09:47:07Z</time>
      </trkpt>
      <trkpt lat="45.03214" lon="4.09309">
        <ele>977.8</ele>
        <time>2025-09-02T09:47:25Z</time>
      </trkpt>
      <trkpt lat="45.03211" lon="4.0932">
        <ele>979.24</ele>
        <time>2025-09-02T09:47:32Z</time>
      </trkpt>
      <trkpt lat="45.0321" lon="4.09341">
        <ele>979.24</ele>
        <time>2025-09-02T09:47:43Z</time>
      </trkpt>
      <trkpt lat="45.03209" lon="4.09365">
        <ele>978.76</ele>
        <time>2025-09-02T09:47:59Z</time>
      </trkpt>
      <trkpt lat="45.03209" lon="4.09384">
        <ele>979.72</ele>
        <time>2025-09-02T09:48:11Z</time>
      </trkpt>
      <trkpt lat="45.03209" lon="4.09386">
        <ele>980.2</ele>
        <time>2025-09-02T09:48:12Z</time>
      </trkpt>
      <trkpt lat="45.03207" lon="4.09397">
        <ele>981.16</ele>
        <time>2025-09-02T09:48:19Z</time>
      </trkpt>
      <trkpt lat="45.03206" lon="4.09399">
        <ele>981.16</ele>
        <time>2025-09-02T09:48:20Z</time>
      </trkpt>
      <trkpt lat="45.03206" lon="4.094">
        <ele>981.16</ele>
        <time>2025-09-02T09:48:21Z</time>
      </trkpt>
      <trkpt lat="45.03205" lon="4.09401">
        <ele>981.16</ele>
        <time>2025-09-02T09:48:22Z</time>
      </trkpt>
      <trkpt lat="45.03194" lon="4.09418">
        <ele>980.68</ele>
        <time>2025-09-02T09:48:35Z</time>
      </trkpt>
      <trkpt lat="45.03187" lon="4.09438">
        <ele>982.6</ele>
        <time>2025-09-02T09:48:47Z</time>
      </trkpt>
      <trkpt lat="45.03187" lon="4.09453">
        <ele>986.45</ele>
        <time>2025-09-02T09:48:59Z</time>
      </trkpt>
      <trkpt lat="45.03194" lon="4.09472">
        <ele>989.33</ele>
        <time>2025-09-02T09:49:12Z</time>
      </trkpt>
      <trkpt lat="45.03197" lon="4.09485">
        <ele>988.85</ele>
        <time>2025-09-02T09:49:21Z</time>
      </trkpt>
      <trkpt lat="45.03197" lon="4.09498">
        <ele>988.85</ele>
        <time>2025-09-02T09:49:29Z</time>
      </trkpt>
      <trkpt lat="45.03197" lon="4.09499">
        <ele>988.85</ele>
        <time>2025-09-02T09:49:30Z</time>
      </trkpt>
      <trkpt lat="45.03196" lon="4.09501">
        <ele>989.33</ele>
        <time>2025-09-02T09:49:31Z</time>
      </trkpt>
      <trkpt lat="45.03186" lon="4.09524">
        <ele>989.81</ele>
        <time>2025-09-02T09:49:44Z</time>
      </trkpt>
      <trkpt lat="45.03171" lon="4.09551">
        <ele>988.37</ele>
        <time>2025-09-02T09:50:03Z</time>
      </trkpt>
      <trkpt lat="45.03158" lon="4.09581">
        <ele>989.81</ele>
        <time>2025-09-02T09:50:24Z</time>
      </trkpt>
      <trkpt lat="45.0315" lon="4.09615">
        <ele>993.66</ele>
        <time>2025-09-02T09:50:45Z</time>
      </trkpt>
      <trkpt lat="45.03149" lon="4.09649">
        <ele>999.43</ele>
        <time>2025-09-02T09:51:03Z</time>
      </trkpt>
      <trkpt lat="45.0314" lon="4.09665">
        <ele>1004.23</ele>
        <time>2025-09-02T09:51:14Z</time>
      </trkpt>
      <trkpt lat="45.03134" lon="4.09704">
        <ele>1007.6</ele>
        <time>2025-09-02T09:51:34Z</time>
      </trkpt>
      <trkpt lat="45.03135" lon="4.09707">
        <ele>1007.6</ele>
        <time>2025-09-02T09:51:35Z</time>
      </trkpt>
      <trkpt lat="45.03136" lon="4.09715">
        <ele>1007.6</ele>
        <time>2025-09-02T09:51:39Z</time>
      </trkpt>
      <trkpt lat="45.03138" lon="4.09735">
        <ele>1005.2</ele>
        <time>2025-09-02T09:51:53Z</time>
      </trkpt>
      <trkpt lat="45.03142" lon="4.09744">
        <ele>1005.2</ele>
        <time>2025-09-02T09:52:00Z</time>
      </trkpt>
      <trkpt lat="45.03146" lon="4.09745">
        <ele>1003.27</ele>
        <time>2025-09-02T09:52:15Z</time>
      </trkpt>
      <trkpt lat="45.03146" lon="4.09748">
        <ele>1000.39</ele>
        <time>2025-09-02T09:52:40Z</time>
      </trkpt>
      <trkpt lat="45.03145" lon="4.09749">
        <ele>996.06</ele>
        <time>2025-09-02T09:53:02Z</time>
      </trkpt>
      <trkpt lat="45.03142" lon="4.09751">
        <ele>992.7</ele>
        <time>2025-09-02T09:53:26Z</time>
      </trkpt>
      <trkpt lat="45.03142" lon="4.09746">
        <ele>988.37</ele>
        <time>2025-09-02T09:53:51Z</time>
      </trkpt>
      <trkpt lat="45.03142" lon="4.09748">
        <ele>987.89</ele>
        <time>2025-09-02T09:54:20Z</time>
      </trkpt>
      <trkpt lat="45.03141" lon="4.09747">
        <ele>987.41</ele>
        <time>2025-09-02T09:54:47Z</time>
      </trkpt>
      <trkpt lat="45.03141" lon="4.09746">
        <ele>986.93</ele>
        <time>2025-09-02T09:55:04Z</time>
      </trkpt>
      <trkpt lat="45.03142" lon="4.09747">
        <ele>985.97</ele>
        <time>2025-09-02T09:55:28Z</time>
      </trkpt>
      <trkpt lat="45.03146" lon="4.09744">
        <ele>986.93</ele>
        <time>2025-09-02T09:55:53Z</time>
      </trkpt>
      <trkpt lat="45.03145" lon="4.09742">
        <ele>986.45</ele>
        <time>2025-09-02T09:56:21Z</time>
      </trkpt>
      <trkpt lat="45.03145" lon="4.09743">
        <ele>986.93</ele>
        <time>2025-09-02T09:56:48Z</time>
      </trkpt>
      <trkpt lat="45.03142" lon="4.09743">
        <ele>990.3</ele>
        <time>2025-09-02T09:57:13Z</time>
      </trkpt>
      <trkpt lat="45.03141" lon="4.09743">
        <ele>990.3</ele>
        <time>2025-09-02T09:57:38Z</time>
      </trkpt>
      <trkpt lat="45.03142" lon="4.0974">
        <ele>989.33</ele>
        <time>2025-09-02T09:58:08Z</time>
      </trkpt>
      <trkpt lat="45.03142" lon="4.09744">
        <ele>991.26</ele>
        <time>2025-09-02T09:58:35Z</time>
      </trkpt>
      <trkpt lat="45.03141" lon="4.09743">
        <ele>991.74</ele>
        <time>2025-09-02T09:59:03Z</time>
      </trkpt>
      <trkpt lat="45.03141" lon="4.09743">
        <ele>989.81</ele>
        <time>2025-09-02T09:59:31Z</time>
      </trkpt>
      <trkpt lat="45.03143" lon="4.09745">
        <ele>988.85</ele>
        <time>2025-09-02T10:00:01Z</time>
      </trkpt>
      <trkpt lat="45.03145" lon="4.09743">
        <ele>988.37</ele>
        <time>2025-09-02T10:00:31Z</time>
      </trkpt>
      <trkpt lat="45.03144" lon="4.09743">
        <ele>986.93</ele>
        <time>2025-09-02T10:01:02Z</time>
      </trkpt>
      <trkpt lat="45.03143" lon="4.09741">
        <ele>987.89</ele>
        <time>2025-09-02T10:01:25Z</time>
      </trkpt>
      <trkpt lat="45.03137" lon="4.09741">
        <ele>992.7</ele>
        <time>2025-09-02T10:01:54Z</time>
      </trkpt>
      <trkpt lat="45.03139" lon="4.09749">
        <ele>989.81</ele>
        <time>2025-09-02T10:02:09Z</time>
      </trkpt>
      <trkpt lat="45.03136" lon="4.09755">
        <ele>986.45</ele>
        <time>2025-09-02T10:02:34Z</time>
      </trkpt>
      <trkpt lat="45.03141" lon="4.09753">
        <ele>985.01</ele>
        <time>2025-09-02T10:02:58Z</time>
      </trkpt>
      <trkpt lat="45.03141" lon="4.09749">
        <ele>983.09</ele>
        <time>2025-09-02T10:03:24Z</time>
      </trkpt>
      <trkpt lat="45.03144" lon="4.09752">
        <ele>982.6</ele>
        <time>2025-09-02T10:03:37Z</time>
      </trkpt>
      <trkpt lat="45.03143" lon="4.09748">
        <ele>981.64</ele>
        <time>2025-09-02T10:04:01Z</time>
      </trkpt>
      <trkpt lat="45.03145" lon="4.09748">
        <ele>981.16</ele>
        <time>2025-09-02T10:04:28Z</time>
      </trkpt>
      <trkpt lat="45.03144" lon="4.09752">
        <ele>982.6</ele>
        <time>2025-09-02T10:05:04Z</time>
      </trkpt>
      <trkpt lat="45.03143" lon="4.09748">
        <ele>981.64</ele>
        <time>2025-09-02T10:05:34Z</time>
      </trkpt>
      <trkpt lat="45.03145" lon="4.09748">
        <ele>978.76</ele>
        <time>2025-09-02T10:05:57Z</time>
      </trkpt>
      <trkpt lat="45.03143" lon="4.09748">
        <ele>979.24</ele>
        <time>2025-09-02T10:06:26Z</time>
      </trkpt>
      <trkpt lat="45.03143" lon="4.09751">
        <ele>980.2</ele>
        <time>2025-09-02T10:06:58Z</time>
      </trkpt>
      <trkpt lat="45.03144" lon="4.0975">
        <ele>979.72</ele>
        <time>2025-09-02T10:07:23Z</time>
      </trkpt>
      <trkpt lat="45.03143" lon="4.0975">
        <ele>979.72</ele>
        <time>2025-09-02T10:07:52Z</time>
      </trkpt>
      <trkpt lat="45.03144" lon="4.09751">
        <ele>980.2</ele>
        <time>2025-09-02T10:08:18Z</time>
      </trkpt>
      <trkpt lat="45.03138" lon="4.09755">
        <ele>980.68</ele>
        <time>2025-09-02T10:08:38Z</time>
      </trkpt>
      <trkpt lat="45.03135" lon="4.09766">
        <ele>984.05</ele>
        <time>2025-09-02T10:08:52Z</time>
      </trkpt>
      <trkpt lat="45.03136" lon="4.09773">
        <ele>985.01</ele>
        <time>2025-09-02T10:08:57Z</time>
      </trkpt>
      <trkpt lat="45.03134" lon="4.09803">
        <ele>987.41</ele>
        <time>2025-09-02T10:09:17Z</time>
      </trkpt>
      <trkpt lat="45.03125" lon="4.09831">
        <ele>991.26</ele>
        <time>2025-09-02T10:09:36Z</time>
      </trkpt>
      <trkpt lat="45.03122" lon="4.09836">
        <ele>991.74</ele>
        <time>2025-09-02T10:09:39Z</time>
      </trkpt>
      <trkpt lat="45.03121" lon="4.09838">
        <ele>991.74</ele>
        <time>2025-09-02T10:09:40Z</time>
      </trkpt>
      <trkpt lat="45.03109" lon="4.09864">
        <ele>992.7</ele>
        <time>2025-09-02T10:09:59Z</time>
      </trkpt>
      <trkpt lat="45.03095" lon="4.09895">
        <ele>997.51</ele>
        <time>2025-09-02T10:10:23Z</time>
      </trkpt>
      <trkpt lat="45.03082" lon="4.0992">
        <ele>1004.23</ele>
        <time>2025-09-02T10:10:41Z</time>
      </trkpt>
      <trkpt lat="45.03063" lon="4.09949">
        <ele>1008.08</ele>
        <time>2025-09-02T10:11:03Z</time>
      </trkpt>
      <trkpt lat="45.03044" lon="4.09969">
        <ele>1011.44</ele>
        <time>2025-09-02T10:11:25Z</time>
      </trkpt>
      <trkpt lat="45.03026" lon="4.09996">
        <ele>1014.33</ele>
        <time>2025-09-02T10:11:45Z</time>
      </trkpt>
      <trkpt lat="45.03022" lon="4.10012">
        <ele>1015.77</ele>
        <time>2025-09-02T10:12:03Z</time>
      </trkpt>
      <trkpt lat="45.03022" lon="4.10014">
        <ele>1016.25</ele>
        <time>2025-09-02T10:12:18Z</time>
      </trkpt>
      <trkpt lat="45.03018" lon="4.10038">
        <ele>1017.69</ele>
        <time>2025-09-02T10:12:37Z</time>
      </trkpt>
      <trkpt lat="45.03023" lon="4.10052">
        <ele>1018.17</ele>
        <time>2025-09-02T10:12:56Z</time>
      </trkpt>
      <trkpt lat="45.03026" lon="4.10091">
        <ele>1017.69</ele>
        <time>2025-09-02T10:13:20Z</time>
      </trkpt>
      <trkpt lat="45.03026" lon="4.10116">
        <ele>1021.06</ele>
        <time>2025-09-02T10:13:35Z</time>
      </trkpt>
      <trkpt lat="45.03013" lon="4.10133">
        <ele>1026.34</ele>
        <time>2025-09-02T10:13:54Z</time>
      </trkpt>
      <trkpt lat="45.02991" lon="4.10165">
        <ele>1035.48</ele>
        <time>2025-09-02T10:14:20Z</time>
      </trkpt>
      <trkpt lat="45.02975" lon="4.10196">
        <ele>1042.69</ele>
        <time>2025-09-02T10:14:45Z</time>
      </trkpt>
      <trkpt lat="45.02972" lon="4.10234">
        <ele>1047.01</ele>
        <time>2025-09-02T10:15:08Z</time>
      </trkpt>
      <trkpt lat="45.02959" lon="4.10252">
        <ele>1052.3</ele>
        <time>2025-09-02T10:15:30Z</time>
      </trkpt>
      <trkpt lat="45.02941" lon="4.10295">
        <ele>1054.7</ele>
        <time>2025-09-02T10:15:52Z</time>
      </trkpt>
      <trkpt lat="45.02935" lon="4.10322">
        <ele>1056.63</ele>
        <time>2025-09-02T10:16:08Z</time>
      </trkpt>
      <trkpt lat="45.02927" lon="4.1035">
        <ele>1061.91</ele>
        <time>2025-09-02T10:16:32Z</time>
      </trkpt>
      <trkpt lat="45.02924" lon="4.10385">
        <ele>1065.28</ele>
        <time>2025-09-02T10:16:55Z</time>
      </trkpt>
      <trkpt lat="45.02915" lon="4.10433">
        <ele>1069.6</ele>
        <time>2025-09-02T10:17:19Z</time>
      </trkpt>
      <trkpt lat="45.02905" lon="4.1047">
        <ele>1073.45</ele>
        <time>2025-09-02T10:17:44Z</time>
      </trkpt>
      <trkpt lat="45.02898" lon="4.10508">
        <ele>1076.81</ele>
        <time>2025-09-02T10:18:08Z</time>
      </trkpt>
      <trkpt lat="45.02897" lon="4.10547">
        <ele>1080.66</ele>
        <time>2025-09-02T10:18:30Z</time>
      </trkpt>
      <trkpt lat="45.02891" lon="4.10591">
        <ele>1080.66</ele>
        <time>2025-09-02T10:18:55Z</time>
      </trkpt>
      <trkpt lat="45.02889" lon="4.10594">
        <ele>1080.66</ele>
        <time>2025-09-02T10:18:58Z</time>
      </trkpt>
      <trkpt lat="45.02869" lon="4.10619">
        <ele>1084.02</ele>
        <time>2025-09-02T10:19:18Z</time>
      </trkpt>
      <trkpt lat="45.02856" lon="4.10628">
        <ele>1084.99</ele>
        <time>2025-09-02T10:19:34Z</time>
      </trkpt>
      <trkpt lat="45.02852" lon="4.10627">
        <ele>1086.43</ele>
        <time>2025-09-02T10:19:39Z</time>
      </trkpt>
      <trkpt lat="45.02835" lon="4.10638">
        <ele>1090.27</ele>
        <time>2025-09-02T10:19:59Z</time>
      </trkpt>
      <trkpt lat="45.02817" lon="4.1068">
        <ele>1092.2</ele>
        <time>2025-09-02T10:20:24Z</time>
      </trkpt>
      <trkpt lat="45.02806" lon="4.10684">
        <ele>1092.68</ele>
        <time>2025-09-02T10:20:44Z</time>
      </trkpt>
      <trkpt lat="45.02794" lon="4.10675">
        <ele>1093.64</ele>
        <time>2025-09-02T10:21:05Z</time>
      </trkpt>
      <trkpt lat="45.02772" lon="4.10668">
        <ele>1090.27</ele>
        <time>2025-09-02T10:21:18Z</time>
      </trkpt>
      <trkpt lat="45.0275" lon="4.10667">
        <ele>1089.79</ele>
        <time>2025-09-02T10:21:36Z</time>
      </trkpt>
      <trkpt lat="45.02729" lon="4.10664">
        <ele>1085.95</ele>
        <time>2025-09-02T10:21:56Z</time>
      </trkpt>
      <trkpt lat="45.02718" lon="4.10663">
        <ele>1084.5</ele>
        <time>2025-09-02T10:22:03Z</time>
      </trkpt>
      <trkpt lat="45.02697" lon="4.10675">
        <ele>1080.66</ele>
        <time>2025-09-02T10:22:23Z</time>
      </trkpt>
      <trkpt lat="45.02697" lon="4.10696">
        <ele>1080.18</ele>
        <time>2025-09-02T10:22:46Z</time>
      </trkpt>
      <trkpt lat="45.02695" lon="4.10728">
        <ele>1082.1</ele>
        <time>2025-09-02T10:23:08Z</time>
      </trkpt>
      <trkpt lat="45.02687" lon="4.10752">
        <ele>1086.43</ele>
        <time>2025-09-02T10:23:28Z</time>
      </trkpt>
      <trkpt lat="45.02682" lon="4.10779">
        <ele>1088.83</ele>
        <time>2025-09-02T10:23:46Z</time>
      </trkpt>
      <trkpt lat="45.02672" lon="4.10802">
        <ele>1090.75</ele>
        <time>2025-09-02T10:24:05Z</time>
      </trkpt>
      <trkpt lat="45.02658" lon="4.10818">
        <ele>1094.12</ele>
        <time>2025-09-02T10:24:27Z</time>
      </trkpt>
      <trkpt lat="45.0264" lon="4.1083">
        <ele>1097.48</ele>
        <time>2025-09-02T10:24:50Z</time>
      </trkpt>
      <trkpt lat="45.0262" lon="4.10824">
        <ele>1099.4</ele>
        <time>2025-09-02T10:25:08Z</time>
      </trkpt>
      <trkpt lat="45.02599" lon="4.10847">
        <ele>1101.33</ele>
        <time>2025-09-02T10:25:33Z</time>
      </trkpt>
      <trkpt lat="45.02583" lon="4.10863">
        <ele>1104.21</ele>
        <time>2025-09-02T10:25:56Z</time>
      </trkpt>
      <trkpt lat="45.0259" lon="4.10873">
        <ele>1110.94</ele>
        <time>2025-09-02T10:26:20Z</time>
      </trkpt>
      <trkpt lat="45.02586" lon="4.10894">
        <ele>1119.11</ele>
        <time>2025-09-02T10:26:41Z</time>
      </trkpt>
      <trkpt lat="45.02587" lon="4.10929">
        <ele>1123.92</ele>
        <time>2025-09-02T10:27:05Z</time>
      </trkpt>
      <trkpt lat="45.02596" lon="4.10957">
        <ele>1129.21</ele>
        <time>2025-09-02T10:27:30Z</time>
      </trkpt>
      <trkpt lat="45.02607" lon="4.10982">
        <ele>1133.53</ele>
        <time>2025-09-02T10:27:53Z</time>
      </trkpt>
      <trkpt lat="45.02619" lon="4.11015">
        <ele>1133.05</ele>
        <time>2025-09-02T10:28:14Z</time>
      </trkpt>
      <trkpt lat="45.02633" lon="4.11027">
        <ele>1131.13</ele>
        <time>2025-09-02T10:28:32Z</time>
      </trkpt>
      <trkpt lat="45.02648" lon="4.11034">
        <ele>1134.49</ele>
        <time>2025-09-02T10:28:55Z</time>
      </trkpt>
      <trkpt lat="45.02666" lon="4.11068">
        <ele>1141.7</ele>
        <time>2025-09-02T10:29:17Z</time>
      </trkpt>
      <trkpt lat="45.02677" lon="4.11104">
        <ele>1142.66</ele>
        <time>2025-09-02T10:29:38Z</time>
      </trkpt>
      <trkpt lat="45.02682" lon="4.1113">
        <ele>1136.9</ele>
        <time>2025-09-02T10:29:59Z</time>
      </trkpt>
      <trkpt lat="45.02686" lon="4.11128">
        <ele>1137.86</ele>
        <time>2025-09-02T10:30:27Z</time>
      </trkpt>
      <trkpt lat="45.02681" lon="4.11135">
        <ele>1141.22</ele>
        <time>2025-09-02T10:30:58Z</time>
      </trkpt>
      <trkpt lat="45.02664" lon="4.11161">
        <ele>1144.11</ele>
        <time>2025-09-02T10:31:21Z</time>
      </trkpt>
      <trkpt lat="45.02645" lon="4.11175">
        <ele>1145.07</ele>
        <time>2025-09-02T10:31:43Z</time>
      </trkpt>
      <trkpt lat="45.02614" lon="4.11189">
        <ele>1145.55</ele>
        <time>2025-09-02T10:32:06Z</time>
      </trkpt>
      <trkpt lat="45.02605" lon="4.11222">
        <ele>1146.03</ele>
        <time>2025-09-02T10:32:28Z</time>
      </trkpt>
      <trkpt lat="45.02601" lon="4.11251">
        <ele>1142.66</ele>
        <time>2025-09-02T10:32:50Z</time>
      </trkpt>
      <trkpt lat="45.02601" lon="4.11293">
        <ele>1147.95</ele>
        <time>2025-09-02T10:33:15Z</time>
      </trkpt>
      <trkpt lat="45.02601" lon="4.11319">
        <ele>1157.56</ele>
        <time>2025-09-02T10:33:35Z</time>
      </trkpt>
      <trkpt lat="45.02606" lon="4.11336">
        <ele>1169.58</ele>
        <time>2025-09-02T10:33:59Z</time>
      </trkpt>
      <trkpt lat="45.02604" lon="4.11345">
        <ele>1170.06</ele>
        <time>2025-09-02T10:34:19Z</time>
      </trkpt>
      <trkpt lat="45.02593" lon="4.11379">
        <ele>1165.26</ele>
        <time>2025-09-02T10:34:42Z</time>
      </trkpt>
      <trkpt lat="45.02594" lon="4.11402">
        <ele>1160.93</ele>
        <time>2025-09-02T10:35:03Z</time>
      </trkpt>
      <trkpt lat="45.02597" lon="4.11407">
        <ele>1158.53</ele>
        <time>2025-09-02T10:35:30Z</time>
      </trkpt>
      <trkpt lat="45.02597" lon="4.11409">
        <ele>1161.89</ele>
        <time>2025-09-02T10:36:00Z</time>
      </trkpt>
      <trkpt lat="45.02595" lon="4.1141">
        <ele>1167.66</ele>
        <time>2025-09-02T10:36:27Z</time>
      </trkpt>
      <trkpt lat="45.02608" lon="4.11404">
        <ele>1168.62</ele>
        <time>2025-09-02T10:36:50Z</time>
      </trkpt>
      <trkpt lat="45.02602" lon="4.11407">
        <ele>1179.19</ele>
        <time>2025-09-02T10:37:17Z</time>
      </trkpt>
      <trkpt lat="45.02599" lon="4.11407">
        <ele>1181.12</ele>
        <time>2025-09-02T10:37:46Z</time>
      </trkpt>
      <trkpt lat="45.02604" lon="4.11409">
        <ele>1181.12</ele>
        <time>2025-09-02T10:38:18Z</time>
      </trkpt>
      <trkpt lat="45.02606" lon="4.11405">
        <ele>1180.16</ele>
        <time>2025-09-02T10:38:44Z</time>
      </trkpt>
      <trkpt lat="45.02604" lon="4.11407">
        <ele>1182.08</ele>
        <time>2025-09-02T10:39:04Z</time>
      </trkpt>
      <trkpt lat="45.02596" lon="4.1141">
        <ele>1185.44</ele>
        <time>2025-09-02T10:39:31Z</time>
      </trkpt>
      <trkpt lat="45.02604" lon="4.11421">
        <ele>1185.92</ele>
        <time>2025-09-02T10:39:55Z</time>
      </trkpt>
      <trkpt lat="45.02613" lon="4.11449">
        <ele>1184</ele>
        <time>2025-09-02T10:40:19Z</time>
      </trkpt>
      <trkpt lat="45.02622" lon="4.11482">
        <ele>1181.6</ele>
        <time>2025-09-02T10:40:42Z</time>
      </trkpt>
      <trkpt lat="45.02635" lon="4.11529">
        <ele>1176.79</ele>
        <time>2025-09-02T10:41:11Z</time>
      </trkpt>
      <trkpt lat="45.0264" lon="4.11568">
        <ele>1176.79</ele>
        <time>2025-09-02T10:41:33Z</time>
      </trkpt>
      <trkpt lat="45.02646" lon="4.11607">
        <ele>1181.12</ele>
        <time>2025-09-02T10:41:54Z</time>
      </trkpt>
      <trkpt lat="45.02659" lon="4.11629">
        <ele>1182.08</ele>
        <time>2025-09-02T10:42:10Z</time>
      </trkpt>
      <trkpt lat="45.02685" lon="4.11652">
        <ele>1180.64</ele>
        <time>2025-09-02T10:42:33Z</time>
      </trkpt>
      <trkpt lat="45.02696" lon="4.11671">
        <ele>1179.19</ele>
        <time>2025-09-02T10:42:50Z</time>
      </trkpt>
      <trkpt lat="45.02701" lon="4.11707">
        <ele>1180.64</ele>
        <time>2025-09-02T10:43:06Z</time>
      </trkpt>
      <trkpt lat="45.02709" lon="4.11734">
        <ele>1180.16</ele>
        <time>2025-09-02T10:43:21Z</time>
      </trkpt>
      <trkpt lat="45.02736" lon="4.11761">
        <ele>1182.08</ele>
        <time>2025-09-02T10:43:44Z</time>
      </trkpt>
      <trkpt lat="45.02751" lon="4.11788">
        <ele>1184.48</ele>
        <time>2025-09-02T10:44:03Z</time>
      </trkpt>
      <trkpt lat="45.02752" lon="4.11797">
        <ele>1184.96</ele>
        <time>2025-09-02T10:44:08Z</time>
      </trkpt>
      <trkpt lat="45.02754" lon="4.11832">
        <ele>1185.44</ele>
        <time>2025-09-02T10:44:27Z</time>
      </trkpt>
      <trkpt lat="45.02762" lon="4.11858">
        <ele>1186.4</ele>
        <time>2025-09-02T10:44:44Z</time>
      </trkpt>
      <trkpt lat="45.02763" lon="4.11887">
        <ele>1188.33</ele>
        <time>2025-09-02T10:45:02Z</time>
      </trkpt>
      <trkpt lat="45.02763" lon="4.11914">
        <ele>1189.29</ele>
        <time>2025-09-02T10:45:18Z</time>
      </trkpt>
      <trkpt lat="45.02764" lon="4.11933">
        <ele>1192.17</ele>
        <time>2025-09-02T10:45:32Z</time>
      </trkpt>
      <trkpt lat="45.02765" lon="4.11958">
        <ele>1192.65</ele>
        <time>2025-09-02T10:45:47Z</time>
      </trkpt>
      <trkpt lat="45.02765" lon="4.11991">
        <ele>1194.58</ele>
        <time>2025-09-02T10:46:06Z</time>
      </trkpt>
      <trkpt lat="45.02765" lon="4.1202">
        <ele>1195.54</ele>
        <time>2025-09-02T10:46:22Z</time>
      </trkpt>
      <trkpt lat="45.02765" lon="4.12046">
        <ele>1197.46</ele>
        <time>2025-09-02T10:46:38Z</time>
      </trkpt>
      <trkpt lat="45.02763" lon="4.12078">
        <ele>1199.86</ele>
        <time>2025-09-02T10:46:56Z</time>
      </trkpt>
      <trkpt lat="45.02761" lon="4.12108">
        <ele>1201.79</ele>
        <time>2025-09-02T10:47:14Z</time>
      </trkpt>
      <trkpt lat="45.02759" lon="4.12151">
        <ele>1204.19</ele>
        <time>2025-09-02T10:47:37Z</time>
      </trkpt>
      <trkpt lat="45.02763" lon="4.12182">
        <ele>1204.19</ele>
        <time>2025-09-02T10:47:54Z</time>
      </trkpt>
      <trkpt lat="45.02776" lon="4.12211">
        <ele>1204.67</ele>
        <time>2025-09-02T10:48:12Z</time>
      </trkpt>
      <trkpt lat="45.02792" lon="4.12234">
        <ele>1204.19</ele>
        <time>2025-09-02T10:48:30Z</time>
      </trkpt>
      <trkpt lat="45.02798" lon="4.12261">
        <ele>1206.11</ele>
        <time>2025-09-02T10:48:48Z</time>
      </trkpt>
      <trkpt lat="45.02798" lon="4.12268">
        <ele>1206.11</ele>
        <time>2025-09-02T10:48:52Z</time>
      </trkpt>
      <trkpt lat="45.02804" lon="4.12293">
        <ele>1207.55</ele>
        <time>2025-09-02T10:49:09Z</time>
      </trkpt>
      <trkpt lat="45.02809" lon="4.12302">
        <ele>1207.55</ele>
        <time>2025-09-02T10:49:21Z</time>
      </trkpt>
      <trkpt lat="45.0282" lon="4.12301">
        <ele>1207.55</ele>
        <time>2025-09-02T10:49:38Z</time>
      </trkpt>
      <trkpt lat="45.02826" lon="4.12295">
        <ele>1206.59</ele>
        <time>2025-09-02T10:50:03Z</time>
      </trkpt>
      <trkpt lat="45.02829" lon="4.12291">
        <ele>1205.63</ele>
        <time>2025-09-02T10:50:22Z</time>
      </trkpt>
      <trkpt lat="45.02828" lon="4.12289">
        <ele>1205.63</ele>
        <time>2025-09-02T10:50:25Z</time>
      </trkpt>
      <trkpt lat="45.02821" lon="4.12287">
        <ele>1208.03</ele>
        <time>2025-09-02T10:50:46Z</time>
      </trkpt>
      <trkpt lat="45.02823" lon="4.12288">
        <ele>1215.24</ele>
        <time>2025-09-02T10:51:11Z</time>
      </trkpt>
      <trkpt lat="45.02807" lon="4.12292">
        <ele>1217.17</ele>
        <time>2025-09-02T10:51:35Z</time>
      </trkpt>
      <trkpt lat="45.028" lon="4.12302">
        <ele>1212.36</ele>
        <time>2025-09-02T10:51:51Z</time>
      </trkpt>
      <trkpt lat="45.028" lon="4.123">
        <ele>1212.84</ele>
        <time>2025-09-02T10:52:05Z</time>
      </trkpt>
      <trkpt lat="45.02798" lon="4.12306">
        <ele>1213.32</ele>
        <time>2025-09-02T10:52:25Z</time>
      </trkpt>
      <trkpt lat="45.02796" lon="4.12314">
        <ele>1213.32</ele>
        <time>2025-09-02T10:53:11Z</time>
      </trkpt>
      <trkpt lat="45.02793" lon="4.12311">
        <ele>1212.84</ele>
        <time>2025-09-02T10:53:41Z</time>
      </trkpt>
      <trkpt lat="45.02795" lon="4.12308">
        <ele>1212.36</ele>
        <time>2025-09-02T10:54:14Z</time>
      </trkpt>
      <trkpt lat="45.02797" lon="4.12311">
        <ele>1212.84</ele>
        <time>2025-09-02T10:54:43Z</time>
      </trkpt>
      <trkpt lat="45.02794" lon="4.12314">
        <ele>1212.84</ele>
        <time>2025-09-02T10:55:25Z</time>
      </trkpt>
      <trkpt lat="45.02801" lon="4.12308">
        <ele>1209</ele>
        <time>2025-09-02T10:55:58Z</time>
      </trkpt>
      <trkpt lat="45.02798" lon="4.12311">
        <ele>1209.48</ele>
        <time>2025-09-02T10:56:40Z</time>
      </trkpt>
      <trkpt lat="45.02793" lon="4.12311">
        <ele>1208.51</ele>
        <time>2025-09-02T10:57:20Z</time>
      </trkpt>
      <trkpt lat="45.02794" lon="4.12314">
        <ele>1209</ele>
        <time>2025-09-02T10:58:02Z</time>
      </trkpt>
      <trkpt lat="45.02797" lon="4.12309">
        <ele>1206.11</ele>
        <time>2025-09-02T10:58:43Z</time>
      </trkpt>
      <trkpt lat="45.02797" lon="4.12306">
        <ele>1201.79</ele>
        <time>2025-09-02T10:59:29Z</time>
      </trkpt>
      <trkpt lat="45.02795" lon="4.12305">
        <ele>1203.71</ele>
        <time>2025-09-02T11:00:15Z</time>
      </trkpt>
      <trkpt lat="45.02793" lon="4.12309">
        <ele>1203.71</ele>
        <time>2025-09-02T11:00:49Z</time>
      </trkpt>
      <trkpt lat="45.02792" lon="4.12311">
        <ele>1205.63</ele>
        <time>2025-09-02T11:01:29Z</time>
      </trkpt>
      <trkpt lat="45.02798" lon="4.12307">
        <ele>1200.34</ele>
        <time>2025-09-02T11:02:16Z</time>
      </trkpt>
      <trkpt lat="45.02796" lon="4.12308">
        <ele>1203.71</ele>
        <time>2025-09-02T11:02:56Z</time>
      </trkpt>
      <trkpt lat="45.02792" lon="4.12304">
        <ele>1203.71</ele>
        <time>2025-09-02T11:03:36Z</time>
      </trkpt>
      <trkpt lat="45.02793" lon="4.12299">
        <ele>1201.3</ele>
        <time>2025-09-02T11:04:13Z</time>
      </trkpt>
      <trkpt lat="45.02796" lon="4.123">
        <ele>1198.42</ele>
        <time>2025-09-02T11:04:43Z</time>
      </trkpt>
      <trkpt lat="45.02792" lon="4.1231">
        <ele>1203.71</ele>
        <time>2025-09-02T11:05:18Z</time>
      </trkpt>
      <trkpt lat="45.02791" lon="4.12309">
        <ele>1204.67</ele>
        <time>2025-09-02T11:05:57Z</time>
      </trkpt>
      <trkpt lat="45.02792" lon="4.12311">
        <ele>1203.71</ele>
        <time>2025-09-02T11:06:38Z</time>
      </trkpt>
      <trkpt lat="45.028" lon="4.12308">
        <ele>1201.79</ele>
        <time>2025-09-02T11:07:18Z</time>
      </trkpt>
      <trkpt lat="45.02801" lon="4.12308">
        <ele>1200.82</ele>
        <time>2025-09-02T11:07:54Z</time>
      </trkpt>
      <trkpt lat="45.02794" lon="4.12307">
        <ele>1190.73</ele>
        <time>2025-09-02T11:08:29Z</time>
      </trkpt>
      <trkpt lat="45.02794" lon="4.12308">
        <ele>1194.09</ele>
        <time>2025-09-02T11:09:02Z</time>
      </trkpt>
      <trkpt lat="45.02801" lon="4.12309">
        <ele>1196.98</ele>
        <time>2025-09-02T11:09:35Z</time>
      </trkpt>
      <trkpt lat="45.02799" lon="4.12312">
        <ele>1200.82</ele>
        <time>2025-09-02T11:10:16Z</time>
      </trkpt>
      <trkpt lat="45.028" lon="4.12308">
        <ele>1203.23</ele>
        <time>2025-09-02T11:10:53Z</time>
      </trkpt>
      <trkpt lat="45.02798" lon="4.12309">
        <ele>1199.86</ele>
        <time>2025-09-02T11:11:26Z</time>
      </trkpt>
      <trkpt lat="45.02797" lon="4.12314">
        <ele>1204.19</ele>
        <time>2025-09-02T11:12:01Z</time>
      </trkpt>
      <trkpt lat="45.02799" lon="4.12307">
        <ele>1202.27</ele>
        <time>2025-09-02T11:12:34Z</time>
      </trkpt>
      <trkpt lat="45.02798" lon="4.12311">
        <ele>1202.27</ele>
        <time>2025-09-02T11:13:12Z</time>
      </trkpt>
      <trkpt lat="45.02795" lon="4.12314">
        <ele>1206.11</ele>
        <time>2025-09-02T11:13:44Z</time>
      </trkpt>
      <trkpt lat="45.02799" lon="4.12303">
        <ele>1196.98</ele>
        <time>2025-09-02T11:14:15Z</time>
      </trkpt>
      <trkpt lat="45.028" lon="4.12302">
        <ele>1196.98</ele>
        <time>2025-09-02T11:14:46Z</time>
      </trkpt>
      <trkpt lat="45.02798" lon="4.12309">
        <ele>1194.58</ele>
        <time>2025-09-02T11:15:16Z</time>
      </trkpt>
      <trkpt lat="45.02799" lon="4.12309">
        <ele>1196.98</ele>
        <time>2025-09-02T11:15:45Z</time>
      </trkpt>
      <trkpt lat="45.02801" lon="4.12311">
        <ele>1197.46</ele>
        <time>2025-09-02T11:16:13Z</time>
      </trkpt>
      <trkpt lat="45.02801" lon="4.12312">
        <ele>1203.71</ele>
        <time>2025-09-02T11:16:48Z</time>
      </trkpt>
      <trkpt lat="45.02798" lon="4.12312">
        <ele>1204.19</ele>
        <time>2025-09-02T11:17:18Z</time>
      </trkpt>
      <trkpt lat="45.02799" lon="4.12311">
        <ele>1202.27</ele>
        <time>2025-09-02T11:17:45Z</time>
      </trkpt>
      <trkpt lat="45.02803" lon="4.12311">
        <ele>1201.3</ele>
        <time>2025-09-02T11:18:13Z</time>
      </trkpt>
      <trkpt lat="45.02801" lon="4.12315">
        <ele>1201.3</ele>
        <time>2025-09-02T11:18:48Z</time>
      </trkpt>
      <trkpt lat="45.02802" lon="4.12313">
        <ele>1202.75</ele>
        <time>2025-09-02T11:19:21Z</time>
      </trkpt>
      <trkpt lat="45.02802" lon="4.12315">
        <ele>1201.79</ele>
        <time>2025-09-02T11:19:53Z</time>
      </trkpt>
      <trkpt lat="45.02805" lon="4.12315">
        <ele>1197.94</ele>
        <time>2025-09-02T11:20:25Z</time>
      </trkpt>
      <trkpt lat="45.02803" lon="4.12314">
        <ele>1197.46</ele>
        <time>2025-09-02T11:20:58Z</time>
      </trkpt>
      <trkpt lat="45.02803" lon="4.12314">
        <ele>1201.3</ele>
        <time>2025-09-02T11:21:22Z</time>
      </trkpt>
      <trkpt lat="45.02802" lon="4.12316">
        <ele>1201.79</ele>
        <time>2025-09-02T11:21:52Z</time>
      </trkpt>
      <trkpt lat="45.028" lon="4.12306">
        <ele>1199.86</ele>
        <time>2025-09-02T11:22:15Z</time>
      </trkpt>
      <trkpt lat="45.02801" lon="4.12305">
        <ele>1203.71</ele>
        <time>2025-09-02T11:22:40Z</time>
      </trkpt>
      <trkpt lat="45.02799" lon="4.12302">
        <ele>1207.55</ele>
        <time>2025-09-02T11:23:07Z</time>
      </trkpt>
      <trkpt lat="45.02799" lon="4.12307">
        <ele>1204.67</ele>
        <time>2025-09-02T11:23:35Z</time>
      </trkpt>
      <trkpt lat="45.02801" lon="4.12308">
        <ele>1199.86</ele>
        <time>2025-09-02T11:24:12Z</time>
      </trkpt>
      <trkpt lat="45.02801" lon="4.12309">
        <ele>1198.42</ele>
        <time>2025-09-02T11:24:53Z</time>
      </trkpt>
      <trkpt lat="45.02802" lon="4.12309">
        <ele>1196.02</ele>
        <time>2025-09-02T11:25:25Z</time>
      </trkpt>
      <trkpt lat="45.02803" lon="4.12313">
        <ele>1196.98</ele>
        <time>2025-09-02T11:25:58Z</time>
      </trkpt>
      <trkpt lat="45.02801" lon="4.12314">
        <ele>1199.86</ele>
        <time>2025-09-02T11:26:28Z</time>
      </trkpt>
      <trkpt lat="45.02805" lon="4.12311">
        <ele>1200.34</ele>
        <time>2025-09-02T11:27:01Z</time>
      </trkpt>
      <trkpt lat="45.02807" lon="4.12311">
        <ele>1200.82</ele>
        <time>2025-09-02T11:27:36Z</time>
      </trkpt>
      <trkpt lat="45.02805" lon="4.12307">
        <ele>1199.38</ele>
        <time>2025-09-02T11:28:05Z</time>
      </trkpt>
      <trkpt lat="45.02804" lon="4.12306">
        <ele>1201.3</ele>
        <time>2025-09-02T11:28:23Z</time>
      </trkpt>
      <trkpt lat="45.02803" lon="4.12305">
        <ele>1206.11</ele>
        <time>2025-09-02T11:28:42Z</time>
      </trkpt>
      <trkpt lat="45.02806" lon="4.12291">
        <ele>1206.59</ele>
        <time>2025-09-02T11:28:59Z</time>
      </trkpt>
      <trkpt lat="45.02802" lon="4.12296">
        <ele>1206.59</ele>
        <time>2025-09-02T11:29:16Z</time>
      </trkpt>
      <trkpt lat="45.02806" lon="4.123">
        <ele>1206.11</ele>
        <time>2025-09-02T11:29:41Z</time>
      </trkpt>
      <trkpt lat="45.02804" lon="4.123">
        <ele>1206.11</ele>
        <time>2025-09-02T11:29:58Z</time>
      </trkpt>
      <trkpt lat="45.02804" lon="4.12304">
        <ele>1206.59</ele>
        <time>2025-09-02T11:30:17Z</time>
      </trkpt>
      <trkpt lat="45.02806" lon="4.1231">
        <ele>1204.67</ele>
        <time>2025-09-02T11:30:34Z</time>
      </trkpt>
      <trkpt lat="45.02814" lon="4.12322">
        <ele>1203.71</ele>
        <time>2025-09-02T11:30:50Z</time>
      </trkpt>
      <trkpt lat="45.02818" lon="4.1232">
        <ele>1202.27</ele>
        <time>2025-09-02T11:31:10Z</time>
      </trkpt>
      <trkpt lat="45.02827" lon="4.12323">
        <ele>1201.3</ele>
        <time>2025-09-02T11:31:33Z</time>
      </trkpt>
      <trkpt lat="45.02833" lon="4.12335">
        <ele>1198.42</ele>
        <time>2025-09-02T11:31:49Z</time>
      </trkpt>
      <trkpt lat="45.02843" lon="4.12347">
        <ele>1199.38</ele>
        <time>2025-09-02T11:32:07Z</time>
      </trkpt>
      <trkpt lat="45.02858" lon="4.12356">
        <ele>1198.42</ele>
        <time>2025-09-02T11:32:26Z</time>
      </trkpt>
      <trkpt lat="45.02869" lon="4.12357">
        <ele>1199.86</ele>
        <time>2025-09-02T11:32:44Z</time>
      </trkpt>
      <trkpt lat="45.02876" lon="4.12367">
        <ele>1197.46</ele>
        <time>2025-09-02T11:33:01Z</time>
      </trkpt>
      <trkpt lat="45.02887" lon="4.12377">
        <ele>1196.98</ele>
        <time>2025-09-02T11:33:17Z</time>
      </trkpt>
      <trkpt lat="45.02888" lon="4.1238">
        <ele>1196.98</ele>
        <time>2025-09-02T11:33:20Z</time>
      </trkpt>
      <trkpt lat="45.02893" lon="4.12403">
        <ele>1195.54</ele>
        <time>2025-09-02T11:33:41Z</time>
      </trkpt>
      <trkpt lat="45.02897" lon="4.12422">
        <ele>1195.54</ele>
        <time>2025-09-02T11:33:52Z</time>
      </trkpt>
      <trkpt lat="45.02903" lon="4.12454">
        <ele>1189.77</ele>
        <time>2025-09-02T11:34:09Z</time>
      </trkpt>
      <trkpt lat="45.02909" lon="4.12477">
        <ele>1180.16</ele>
        <time>2025-09-02T11:34:26Z</time>
      </trkpt>
      <trkpt lat="45.0292" lon="4.12498">
        <ele>1176.79</ele>
        <time>2025-09-02T11:34:42Z</time>
      </trkpt>
      <trkpt lat="45.02929" lon="4.12508">
        <ele>1174.87</ele>
        <time>2025-09-02T11:34:53Z</time>
      </trkpt>
      <trkpt lat="45.02951" lon="4.12524">
        <ele>1170.54</ele>
        <time>2025-09-02T11:35:12Z</time>
      </trkpt>
      <trkpt lat="45.02961" lon="4.12547">
        <ele>1166.7</ele>
        <time>2025-09-02T11:35:27Z</time>
      </trkpt>
      <trkpt lat="45.02955" lon="4.1258">
        <ele>1164.29</ele>
        <time>2025-09-02T11:35:46Z</time>
      </trkpt>
      <trkpt lat="45.02948" lon="4.12607">
        <ele>1163.81</ele>
        <time>2025-09-02T11:36:03Z</time>
      </trkpt>
      <trkpt lat="45.02942" lon="4.12639">
        <ele>1164.77</ele>
        <time>2025-09-02T11:36:21Z</time>
      </trkpt>
      <trkpt lat="45.0294" lon="4.12658">
        <ele>1166.22</ele>
        <time>2025-09-02T11:36:32Z</time>
      </trkpt>
      <trkpt lat="45.0292" lon="4.12683">
        <ele>1169.1</ele>
        <time>2025-09-02T11:36:53Z</time>
      </trkpt>
      <trkpt lat="45.0291" lon="4.12712">
        <ele>1171.5</ele>
        <time>2025-09-02T11:37:13Z</time>
      </trkpt>
      <trkpt lat="45.02908" lon="4.12738">
        <ele>1173.91</ele>
        <time>2025-09-02T11:37:33Z</time>
      </trkpt>
      <trkpt lat="45.02908" lon="4.12741">
        <ele>1174.39</ele>
        <time>2025-09-02T11:37:35Z</time>
      </trkpt>
      <trkpt lat="45.02903" lon="4.12772">
        <ele>1175.35</ele>
        <time>2025-09-02T11:37:52Z</time>
      </trkpt>
      <trkpt lat="45.02895" lon="4.12802">
        <ele>1178.23</ele>
        <time>2025-09-02T11:38:09Z</time>
      </trkpt>
      <trkpt lat="45.02893" lon="4.12813">
        <ele>1179.67</ele>
        <time>2025-09-02T11:38:14Z</time>
      </trkpt>
      <trkpt lat="45.02885" lon="4.12826">
        <ele>1182.56</ele>
        <time>2025-09-02T11:38:24Z</time>
      </trkpt>
      <trkpt lat="45.0288" lon="4.1283">
        <ele>1184.48</ele>
        <time>2025-09-02T11:38:30Z</time>
      </trkpt>
      <trkpt lat="45.02875" lon="4.12837">
        <ele>1185.44</ele>
        <time>2025-09-02T11:38:37Z</time>
      </trkpt>
      <trkpt lat="45.02863" lon="4.12848">
        <ele>1187.37</ele>
        <time>2025-09-02T11:38:50Z</time>
      </trkpt>
      <trkpt lat="45.02853" lon="4.12857">
        <ele>1189.29</ele>
        <time>2025-09-02T11:39:01Z</time>
      </trkpt>
      <trkpt lat="45.02833" lon="4.12868">
        <ele>1191.69</ele>
        <time>2025-09-02T11:39:19Z</time>
      </trkpt>
      <trkpt lat="45.02812" lon="4.12885">
        <ele>1192.17</ele>
        <time>2025-09-02T11:39:39Z</time>
      </trkpt>
      <trkpt lat="45.02802" lon="4.12896">
        <ele>1191.21</ele>
        <time>2025-09-02T11:39:51Z</time>
      </trkpt>
      <trkpt lat="45.0279" lon="4.12915">
        <ele>1191.69</ele>
        <time>2025-09-02T11:40:04Z</time>
      </trkpt>
      <trkpt lat="45.02784" lon="4.12926">
        <ele>1193.13</ele>
        <time>2025-09-02T11:40:13Z</time>
      </trkpt>
      <trkpt lat="45.02784" lon="4.12927">
        <ele>1193.13</ele>
        <time>2025-09-02T11:40:14Z</time>
      </trkpt>
      <trkpt lat="45.02783" lon="4.1293">
        <ele>1193.61</ele>
        <time>2025-09-02T11:40:15Z</time>
      </trkpt>
      <trkpt lat="45.02777" lon="4.12942">
        <ele>1195.06</ele>
        <time>2025-09-02T11:40:25Z</time>
      </trkpt>
      <trkpt lat="45.02771" lon="4.12959">
        <ele>1197.46</ele>
        <time>2025-09-02T11:40:36Z</time>
      </trkpt>
      <trkpt lat="45.02763" lon="4.12976">
        <ele>1200.34</ele>
        <time>2025-09-02T11:40:48Z</time>
      </trkpt>
      <trkpt lat="45.02759" lon="4.12996">
        <ele>1203.71</ele>
        <time>2025-09-02T11:41:00Z</time>
      </trkpt>
      <trkpt lat="45.02756" lon="4.13014">
        <ele>1205.15</ele>
        <time>2025-09-02T11:41:11Z</time>
      </trkpt>
      <trkpt lat="45.02753" lon="4.13036">
        <ele>1208.03</ele>
        <time>2025-09-02T11:41:27Z</time>
      </trkpt>
      <trkpt lat="45.02743" lon="4.13068">
        <ele>1209.96</ele>
        <time>2025-09-02T11:41:47Z</time>
      </trkpt>
      <trkpt lat="45.02729" lon="4.13094">
        <ele>1213.32</ele>
        <time>2025-09-02T11:42:07Z</time>
      </trkpt>
      <trkpt lat="45.02714" lon="4.13122">
        <ele>1217.65</ele>
        <time>2025-09-02T11:42:23Z</time>
      </trkpt>
      <trkpt lat="45.02711" lon="4.1315">
        <ele>1220.05</ele>
        <time>2025-09-02T11:42:39Z</time>
      </trkpt>
      <trkpt lat="45.02711" lon="4.13152">
        <ele>1220.05</ele>
        <time>2025-09-02T11:42:40Z</time>
      </trkpt>
      <trkpt lat="45.02711" lon="4.13154">
        <ele>1220.05</ele>
        <time>2025-09-02T11:42:41Z</time>
      </trkpt>
      <trkpt lat="45.02717" lon="4.13178">
        <ele>1219.09</ele>
        <time>2025-09-02T11:42:58Z</time>
      </trkpt>
      <trkpt lat="45.02719" lon="4.13199">
        <ele>1220.53</ele>
        <time>2025-09-02T11:43:15Z</time>
      </trkpt>
      <trkpt lat="45.02722" lon="4.13224">
        <ele>1223.42</ele>
        <time>2025-09-02T11:43:32Z</time>
      </trkpt>
      <trkpt lat="45.02724" lon="4.13251">
        <ele>1226.3</ele>
        <time>2025-09-02T11:43:52Z</time>
      </trkpt>
      <trkpt lat="45.02725" lon="4.13266">
        <ele>1227.26</ele>
        <time>2025-09-02T11:44:08Z</time>
      </trkpt>
      <trkpt lat="45.02724" lon="4.13289">
        <ele>1226.3</ele>
        <time>2025-09-02T11:44:28Z</time>
      </trkpt>
      <trkpt lat="45.02726" lon="4.13287">
        <ele>1229.66</ele>
        <time>2025-09-02T11:44:58Z</time>
      </trkpt>
      <trkpt lat="45.02726" lon="4.13306">
        <ele>1227.26</ele>
        <time>2025-09-02T11:45:13Z</time>
      </trkpt>
      <trkpt lat="45.02728" lon="4.13334">
        <ele>1227.26</ele>
        <time>2025-09-02T11:45:27Z</time>
      </trkpt>
      <trkpt lat="45.02726" lon="4.13349">
        <ele>1228.7</ele>
        <time>2025-09-02T11:45:36Z</time>
      </trkpt>
      <trkpt lat="45.02718" lon="4.13376">
        <ele>1232.07</ele>
        <time>2025-09-02T11:45:54Z</time>
      </trkpt>
      <trkpt lat="45.02709" lon="4.1341">
        <ele>1233.99</ele>
        <time>2025-09-02T11:46:15Z</time>
      </trkpt>
      <trkpt lat="45.02696" lon="4.13431">
        <ele>1237.83</ele>
        <time>2025-09-02T11:46:29Z</time>
      </trkpt>
      <trkpt lat="45.02688" lon="4.13443">
        <ele>1239.76</ele>
        <time>2025-09-02T11:46:38Z</time>
      </trkpt>
      <trkpt lat="45.02676" lon="4.13473">
        <ele>1240.72</ele>
        <time>2025-09-02T11:46:55Z</time>
      </trkpt>
      <trkpt lat="45.02666" lon="4.13503">
        <ele>1241.68</ele>
        <time>2025-09-02T11:47:12Z</time>
      </trkpt>
      <trkpt lat="45.02654" lon="4.13523">
        <ele>1242.64</ele>
        <time>2025-09-02T11:47:26Z</time>
      </trkpt>
      <trkpt lat="45.02642" lon="4.13546">
        <ele>1244.08</ele>
        <time>2025-09-02T11:47:40Z</time>
      </trkpt>
      <trkpt lat="45.02626" lon="4.13575">
        <ele>1247.93</ele>
        <time>2025-09-02T11:47:59Z</time>
      </trkpt>
      <trkpt lat="45.02606" lon="4.13604">
        <ele>1250.81</ele>
        <time>2025-09-02T11:48:22Z</time>
      </trkpt>
      <trkpt lat="45.02583" lon="4.1363">
        <ele>1253.22</ele>
        <time>2025-09-02T11:48:44Z</time>
      </trkpt>
      <trkpt lat="45.02565" lon="4.13649">
        <ele>1256.1</ele>
        <time>2025-09-02T11:48:59Z</time>
      </trkpt>
      <trkpt lat="45.02552" lon="4.13664">
        <ele>1257.06</ele>
        <time>2025-09-02T11:49:13Z</time>
      </trkpt>
      <trkpt lat="45.02537" lon="4.1368">
        <ele>1258.98</ele>
        <time>2025-09-02T11:49:27Z</time>
      </trkpt>
      <trkpt lat="45.02524" lon="4.13701">
        <ele>1259.46</ele>
        <time>2025-09-02T11:49:42Z</time>
      </trkpt>
      <trkpt lat="45.02524" lon="4.13704">
        <ele>1259.46</ele>
        <time>2025-09-02T11:49:43Z</time>
      </trkpt>
      <trkpt lat="45.02524" lon="4.13734">
        <ele>1258.98</ele>
        <time>2025-09-02T11:49:57Z</time>
      </trkpt>
      <trkpt lat="45.02529" lon="4.13759">
        <ele>1257.06</ele>
        <time>2025-09-02T11:50:10Z</time>
      </trkpt>
      <trkpt lat="45.02531" lon="4.13785">
        <ele>1256.1</ele>
        <time>2025-09-02T11:50:26Z</time>
      </trkpt>
      <trkpt lat="45.02535" lon="4.13809">
        <ele>1255.14</ele>
        <time>2025-09-02T11:50:39Z</time>
      </trkpt>
      <trkpt lat="45.02539" lon="4.13834">
        <ele>1254.66</ele>
        <time>2025-09-02T11:50:52Z</time>
      </trkpt>
      <trkpt lat="45.02539" lon="4.13836">
        <ele>1254.66</ele>
        <time>2025-09-02T11:50:53Z</time>
      </trkpt>
      <trkpt lat="45.02539" lon="4.13838">
        <ele>1254.66</ele>
        <time>2025-09-02T11:50:54Z</time>
      </trkpt>
      <trkpt lat="45.02541" lon="4.13869">
        <ele>1253.22</ele>
        <time>2025-09-02T11:51:10Z</time>
      </trkpt>
      <trkpt lat="45.02544" lon="4.13899">
        <ele>1254.18</ele>
        <time>2025-09-02T11:51:25Z</time>
      </trkpt>
      <trkpt lat="45.02545" lon="4.13926">
        <ele>1253.22</ele>
        <time>2025-09-02T11:51:39Z</time>
      </trkpt>
      <trkpt lat="45.02546" lon="4.13933">
        <ele>1253.22</ele>
        <time>2025-09-02T11:51:43Z</time>
      </trkpt>
      <trkpt lat="45.02546" lon="4.13935">
        <ele>1253.22</ele>
        <time>2025-09-02T11:51:44Z</time>
      </trkpt>
      <trkpt lat="45.02546" lon="4.13937">
        <ele>1253.22</ele>
        <time>2025-09-02T11:51:45Z</time>
      </trkpt>
      <trkpt lat="45.02547" lon="4.13966">
        <ele>1253.22</ele>
        <time>2025-09-02T11:52:00Z</time>
      </trkpt>
      <trkpt lat="45.02555" lon="4.13994">
        <ele>1251.29</ele>
        <time>2025-09-02T11:52:15Z</time>
      </trkpt>
      <trkpt lat="45.02557" lon="4.14009">
        <ele>1251.77</ele>
        <time>2025-09-02T11:52:24Z</time>
      </trkpt>
      <trkpt lat="45.02557" lon="4.14011">
        <ele>1251.77</ele>
        <time>2025-09-02T11:52:25Z</time>
      </trkpt>
      <trkpt lat="45.02557" lon="4.14013">
        <ele>1251.77</ele>
        <time>2025-09-02T11:52:26Z</time>
      </trkpt>
      <trkpt lat="45.02558" lon="4.14015">
        <ele>1251.77</ele>
        <time>2025-09-02T11:52:27Z</time>
      </trkpt>
      <trkpt lat="45.02558" lon="4.14017">
        <ele>1251.77</ele>
        <time>2025-09-02T11:52:28Z</time>
      </trkpt>
      <trkpt lat="45.02559" lon="4.14019">
        <ele>1251.77</ele>
        <time>2025-09-02T11:52:29Z</time>
      </trkpt>
      <trkpt lat="45.02559" lon="4.14022">
        <ele>1251.77</ele>
        <time>2025-09-02T11:52:30Z</time>
      </trkpt>
      <trkpt lat="45.02559" lon="4.14024">
        <ele>1251.77</ele>
        <time>2025-09-02T11:52:31Z</time>
      </trkpt>
      <trkpt lat="45.02563" lon="4.14048">
        <ele>1251.77</ele>
        <time>2025-09-02T11:52:45Z</time>
      </trkpt>
      <trkpt lat="45.02566" lon="4.14066">
        <ele>1251.77</ele>
        <time>2025-09-02T11:52:58Z</time>
      </trkpt>
      <trkpt lat="45.02569" lon="4.14097">
        <ele>1251.77</ele>
        <time>2025-09-02T11:53:17Z</time>
      </trkpt>
      <trkpt lat="45.02572" lon="4.14125">
        <ele>1251.77</ele>
        <time>2025-09-02T11:53:32Z</time>
      </trkpt>
      <trkpt lat="45.02575" lon="4.14148">
        <ele>1251.77</ele>
        <time>2025-09-02T11:53:45Z</time>
      </trkpt>
      <trkpt lat="45.02582" lon="4.14171">
        <ele>1251.29</ele>
        <time>2025-09-02T11:53:58Z</time>
      </trkpt>
      <trkpt lat="45.0259" lon="4.14196">
        <ele>1249.85</ele>
        <time>2025-09-02T11:54:14Z</time>
      </trkpt>
      <trkpt lat="45.02595" lon="4.14219">
        <ele>1249.37</ele>
        <time>2025-09-02T11:54:28Z</time>
      </trkpt>
      <trkpt lat="45.02603" lon="4.14246">
        <ele>1248.41</ele>
        <time>2025-09-02T11:54:44Z</time>
      </trkpt>
      <trkpt lat="45.02612" lon="4.14269">
        <ele>1248.41</ele>
        <time>2025-09-02T11:54:57Z</time>
      </trkpt>
      <trkpt lat="45.0262" lon="4.14288">
        <ele>1248.89</ele>
        <time>2025-09-02T11:55:10Z</time>
      </trkpt>
      <trkpt lat="45.02627" lon="4.14305">
        <ele>1248.41</ele>
        <time>2025-09-02T11:55:25Z</time>
      </trkpt>
      <trkpt lat="45.02632" lon="4.14318">
        <ele>1250.33</ele>
        <time>2025-09-02T11:55:38Z</time>
      </trkpt>
      <trkpt lat="45.02632" lon="4.14319">
        <ele>1250.33</ele>
        <time>2025-09-02T11:55:39Z</time>
      </trkpt>
      <trkpt lat="45.02633" lon="4.14324">
        <ele>1250.81</ele>
        <time>2025-09-02T11:55:59Z</time>
      </trkpt>
      <trkpt lat="45.02635" lon="4.14323">
        <ele>1253.7</ele>
        <time>2025-09-02T11:56:13Z</time>
      </trkpt>
      <trkpt lat="45.02637" lon="4.14325">
        <ele>1256.1</ele>
        <time>2025-09-02T11:56:41Z</time>
      </trkpt>
      <trkpt lat="45.02633" lon="4.14326">
        <ele>1255.62</ele>
        <time>2025-09-02T11:57:05Z</time>
      </trkpt>
      <trkpt lat="45.02633" lon="4.14323">
        <ele>1256.1</ele>
        <time>2025-09-02T11:57:24Z</time>
      </trkpt>
      <trkpt lat="45.02632" lon="4.14323">
        <ele>1256.58</ele>
        <time>2025-09-02T11:57:38Z</time>
      </trkpt>
      <trkpt lat="45.02633" lon="4.14324">
        <ele>1256.58</ele>
        <time>2025-09-02T11:57:54Z</time>
      </trkpt>
      <trkpt lat="45.02636" lon="4.14329">
        <ele>1256.1</ele>
        <time>2025-09-02T11:58:07Z</time>
      </trkpt>
      <trkpt lat="45.0264" lon="4.14331">
        <ele>1255.62</ele>
        <time>2025-09-02T11:58:27Z</time>
      </trkpt>
      <trkpt lat="45.0264" lon="4.14333">
        <ele>1255.62</ele>
        <time>2025-09-02T11:58:28Z</time>
      </trkpt>
      <trkpt lat="45.02641" lon="4.14334">
        <ele>1255.62</ele>
        <time>2025-09-02T11:58:29Z</time>
      </trkpt>
      <trkpt lat="45.02655" lon="4.1436">
        <ele>1255.62</ele>
        <time>2025-09-02T11:58:47Z</time>
      </trkpt>
      <trkpt lat="45.02669" lon="4.14378">
        <ele>1256.1</ele>
        <time>2025-09-02T11:59:02Z</time>
      </trkpt>
      <trkpt lat="45.02689" lon="4.14398">
        <ele>1254.66</ele>
        <time>2025-09-02T11:59:20Z</time>
      </trkpt>
      <trkpt lat="45.02707" lon="4.14415">
        <ele>1252.74</ele>
        <time>2025-09-02T11:59:36Z</time>
      </trkpt>
      <trkpt lat="45.02727" lon="4.14434">
        <ele>1248.89</ele>
        <time>2025-09-02T11:59:55Z</time>
      </trkpt>
      <trkpt lat="45.02741" lon="4.14443">
        <ele>1246.97</ele>
        <time>2025-09-02T12:00:09Z</time>
      </trkpt>
      <trkpt lat="45.02743" lon="4.14447">
        <ele>1246.49</ele>
        <time>2025-09-02T12:00:12Z</time>
      </trkpt>
      <trkpt lat="45.02743" lon="4.14465">
        <ele>1244.08</ele>
        <time>2025-09-02T12:00:25Z</time>
      </trkpt>
      <trkpt lat="45.02736" lon="4.14501">
        <ele>1247.45</ele>
        <time>2025-09-02T12:00:45Z</time>
      </trkpt>
      <trkpt lat="45.02746" lon="4.14521">
        <ele>1248.41</ele>
        <time>2025-09-02T12:00:58Z</time>
      </trkpt>
      <trkpt lat="45.02764" lon="4.14547">
        <ele>1250.81</ele>
        <time>2025-09-02T12:01:15Z</time>
      </trkpt>
      <trkpt lat="45.0278" lon="4.14568">
        <ele>1251.77</ele>
        <time>2025-09-02T12:01:29Z</time>
      </trkpt>
      <trkpt lat="45.02796" lon="4.14587">
        <ele>1252.25</ele>
        <time>2025-09-02T12:01:43Z</time>
      </trkpt>
      <trkpt lat="45.02807" lon="4.14603">
        <ele>1252.25</ele>
        <time>2025-09-02T12:01:54Z</time>
      </trkpt>
      <trkpt lat="45.02812" lon="4.14626">
        <ele>1252.74</ele>
        <time>2025-09-02T12:02:06Z</time>
      </trkpt>
      <trkpt lat="45.02832" lon="4.14639">
        <ele>1253.7</ele>
        <time>2025-09-02T12:02:23Z</time>
      </trkpt>
      <trkpt lat="45.02836" lon="4.14641">
        <ele>1253.7</ele>
        <time>2025-09-02T12:02:26Z</time>
      </trkpt>
      <trkpt lat="45.0284" lon="4.14645">
        <ele>1253.7</ele>
        <time>2025-09-02T12:02:30Z</time>
      </trkpt>
      <trkpt lat="45.02863" lon="4.1466">
        <ele>1251.29</ele>
        <time>2025-09-02T12:02:47Z</time>
      </trkpt>
      <trkpt lat="45.02883" lon="4.14675">
        <ele>1249.37</ele>
        <time>2025-09-02T12:03:02Z</time>
      </trkpt>
      <trkpt lat="45.02904" lon="4.14689">
        <ele>1247.45</ele>
        <time>2025-09-02T12:03:19Z</time>
      </trkpt>
      <trkpt lat="45.02927" lon="4.14699">
        <ele>1247.93</ele>
        <time>2025-09-02T12:03:36Z</time>
      </trkpt>
      <trkpt lat="45.02959" lon="4.14706">
        <ele>1249.37</ele>
        <time>2025-09-02T12:03:57Z</time>
      </trkpt>
      <trkpt lat="45.02983" lon="4.14707">
        <ele>1251.29</ele>
        <time>2025-09-02T12:04:13Z</time>
      </trkpt>
      <trkpt lat="45.03008" lon="4.14708">
        <ele>1251.77</ele>
        <time>2025-09-02T12:04:30Z</time>
      </trkpt>
      <trkpt lat="45.03028" lon="4.14713">
        <ele>1254.66</ele>
        <time>2025-09-02T12:04:48Z</time>
      </trkpt>
      <trkpt lat="45.03029" lon="4.14708">
        <ele>1256.58</ele>
        <time>2025-09-02T12:05:06Z</time>
      </trkpt>
      <trkpt lat="45.03027" lon="4.14705">
        <ele>1257.06</ele>
        <time>2025-09-02T12:05:32Z</time>
      </trkpt>
      <trkpt lat="45.03033" lon="4.14708">
        <ele>1257.06</ele>
        <time>2025-09-02T12:05:36Z</time>
      </trkpt>
      <trkpt lat="45.03052" lon="4.14711">
        <ele>1255.62</ele>
        <time>2025-09-02T12:05:50Z</time>
      </trkpt>
      <trkpt lat="45.03072" lon="4.14714">
        <ele>1257.06</ele>
        <time>2025-09-02T12:06:06Z</time>
      </trkpt>
      <trkpt lat="45.03075" lon="4.14717">
        <ele>1257.54</ele>
        <time>2025-09-02T12:06:09Z</time>
      </trkpt>
      <trkpt lat="45.0308" lon="4.14744">
        <ele>1257.54</ele>
        <time>2025-09-02T12:06:25Z</time>
      </trkpt>
      <trkpt lat="45.03091" lon="4.14762">
        <ele>1256.1</ele>
        <time>2025-09-02T12:06:37Z</time>
      </trkpt>
      <trkpt lat="45.03091" lon="4.14775">
        <ele>1253.7</ele>
        <time>2025-09-02T12:06:44Z</time>
      </trkpt>
      <trkpt lat="45.03089" lon="4.14801">
        <ele>1252.25</ele>
        <time>2025-09-02T12:07:00Z</time>
      </trkpt>
      <trkpt lat="45.03077" lon="4.14829">
        <ele>1252.74</ele>
        <time>2025-09-02T12:07:19Z</time>
      </trkpt>
      <trkpt lat="45.03073" lon="4.14838">
        <ele>1253.22</ele>
        <time>2025-09-02T12:07:25Z</time>
      </trkpt>
      <trkpt lat="45.03079" lon="4.14853">
        <ele>1255.62</ele>
        <time>2025-09-02T12:07:35Z</time>
      </trkpt>
      <trkpt lat="45.03089" lon="4.14881">
        <ele>1258.5</ele>
        <time>2025-09-02T12:07:54Z</time>
      </trkpt>
      <trkpt lat="45.03096" lon="4.14911">
        <ele>1256.58</ele>
        <time>2025-09-02T12:08:11Z</time>
      </trkpt>
      <trkpt lat="45.03104" lon="4.14953">
        <ele>1246.49</ele>
        <time>2025-09-02T12:08:31Z</time>
      </trkpt>
      <trkpt lat="45.0311" lon="4.14984">
        <ele>1238.32</ele>
        <time>2025-09-02T12:08:49Z</time>
      </trkpt>
      <trkpt lat="45.0311" lon="4.15011">
        <ele>1231.59</ele>
        <time>2025-09-02T12:09:06Z</time>
      </trkpt>
      <trkpt lat="45.03119" lon="4.15037">
        <ele>1228.22</ele>
        <time>2025-09-02T12:09:20Z</time>
      </trkpt>
      <trkpt lat="45.03124" lon="4.1507">
        <ele>1222.93</ele>
        <time>2025-09-02T12:09:38Z</time>
      </trkpt>
      <trkpt lat="45.0313" lon="4.15107">
        <ele>1218.61</ele>
        <time>2025-09-02T12:09:57Z</time>
      </trkpt>
      <trkpt lat="45.0314" lon="4.15143">
        <ele>1219.57</ele>
        <time>2025-09-02T12:10:18Z</time>
      </trkpt>
      <trkpt lat="45.03148" lon="4.15178">
        <ele>1215.72</ele>
        <time>2025-09-02T12:10:42Z</time>
      </trkpt>
      <trkpt lat="45.03165" lon="4.15213">
        <ele>1215.24</ele>
        <time>2025-09-02T12:11:03Z</time>
      </trkpt>
      <trkpt lat="45.03182" lon="4.15249">
        <ele>1216.69</ele>
        <time>2025-09-02T12:11:23Z</time>
      </trkpt>
      <trkpt lat="45.03199" lon="4.15277">
        <ele>1216.69</ele>
        <time>2025-09-02T12:11:42Z</time>
      </trkpt>
      <trkpt lat="45.03206" lon="4.15294">
        <ele>1219.09</ele>
        <time>2025-09-02T12:11:50Z</time>
      </trkpt>
      <trkpt lat="45.03222" lon="4.15324">
        <ele>1222.93</ele>
        <time>2025-09-02T12:12:08Z</time>
      </trkpt>
      <trkpt lat="45.03238" lon="4.15343">
        <ele>1226.3</ele>
        <time>2025-09-02T12:12:23Z</time>
      </trkpt>
      <trkpt lat="45.03252" lon="4.15359">
        <ele>1226.3</ele>
        <time>2025-09-02T12:12:37Z</time>
      </trkpt>
      <trkpt lat="45.03269" lon="4.15379">
        <ele>1225.34</ele>
        <time>2025-09-02T12:12:54Z</time>
      </trkpt>
      <trkpt lat="45.03281" lon="4.15397">
        <ele>1225.34</ele>
        <time>2025-09-02T12:13:10Z</time>
      </trkpt>
      <trkpt lat="45.03294" lon="4.15408">
        <ele>1224.86</ele>
        <time>2025-09-02T12:13:26Z</time>
      </trkpt>
      <trkpt lat="45.03305" lon="4.15425">
        <ele>1224.38</ele>
        <time>2025-09-02T12:13:40Z</time>
      </trkpt>
      <trkpt lat="45.03319" lon="4.15437">
        <ele>1223.42</ele>
        <time>2025-09-02T12:13:52Z</time>
      </trkpt>
      <trkpt lat="45.03334" lon="4.1546">
        <ele>1220.53</ele>
        <time>2025-09-02T12:14:09Z</time>
      </trkpt>
      <trkpt lat="45.03343" lon="4.15479">
        <ele>1217.17</ele>
        <time>2025-09-02T12:14:26Z</time>
      </trkpt>
      <trkpt lat="45.03361" lon="4.15502">
        <ele>1216.21</ele>
        <time>2025-09-02T12:14:43Z</time>
      </trkpt>
      <trkpt lat="45.03381" lon="4.15536">
        <ele>1213.8</ele>
        <time>2025-09-02T12:15:03Z</time>
      </trkpt>
      <trkpt lat="45.03383" lon="4.15539">
        <ele>1213.8</ele>
        <time>2025-09-02T12:15:05Z</time>
      </trkpt>
      <trkpt lat="45.03398" lon="4.15559">
        <ele>1209</ele>
        <time>2025-09-02T12:15:24Z</time>
      </trkpt>
      <trkpt lat="45.03413" lon="4.15583">
        <ele>1207.55</ele>
        <time>2025-09-02T12:15:40Z</time>
      </trkpt>
      <trkpt lat="45.03439" lon="4.15606">
        <ele>1202.27</ele>
        <time>2025-09-02T12:16:05Z</time>
      </trkpt>
      <trkpt lat="45.03461" lon="4.15637">
        <ele>1202.27</ele>
        <time>2025-09-02T12:16:29Z</time>
      </trkpt>
      <trkpt lat="45.0348" lon="4.1567">
        <ele>1220.05</ele>
        <time>2025-09-02T12:16:49Z</time>
      </trkpt>
      <trkpt lat="45.03497" lon="4.15689">
        <ele>1217.65</ele>
        <time>2025-09-02T12:17:07Z</time>
      </trkpt>
      <trkpt lat="45.03516" lon="4.15702">
        <ele>1215.72</ele>
        <time>2025-09-02T12:17:25Z</time>
      </trkpt>
      <trkpt lat="45.03537" lon="4.1572">
        <ele>1213.32</ele>
        <time>2025-09-02T12:17:42Z</time>
      </trkpt>
      <trkpt lat="45.03558" lon="4.15737">
        <ele>1215.72</ele>
        <time>2025-09-02T12:17:59Z</time>
      </trkpt>
      <trkpt lat="45.03577" lon="4.15755">
        <ele>1221.01</ele>
        <time>2025-09-02T12:18:15Z</time>
      </trkpt>
      <trkpt lat="45.03583" lon="4.15754">
        <ele>1221.01</ele>
        <time>2025-09-02T12:18:20Z</time>
      </trkpt>
      <trkpt lat="45.03605" lon="4.15756">
        <ele>1218.13</ele>
        <time>2025-09-02T12:18:39Z</time>
      </trkpt>
      <trkpt lat="45.03632" lon="4.15763">
        <ele>1214.76</ele>
        <time>2025-09-02T12:18:58Z</time>
      </trkpt>
      <trkpt lat="45.03657" lon="4.15763">
        <ele>1213.32</ele>
        <time>2025-09-02T12:19:17Z</time>
      </trkpt>
      <trkpt lat="45.03669" lon="4.15748">
        <ele>1210.92</ele>
        <time>2025-09-02T12:19:31Z</time>
      </trkpt>
      <trkpt lat="45.03677" lon="4.1571">
        <ele>1209.48</ele>
        <time>2025-09-02T12:19:52Z</time>
      </trkpt>
      <trkpt lat="45.03679" lon="4.15707">
        <ele>1209.96</ele>
        <time>2025-09-02T12:19:53Z</time>
      </trkpt>
      <trkpt lat="45.0369" lon="4.15669">
        <ele>1219.09</ele>
        <time>2025-09-02T12:20:13Z</time>
      </trkpt>
      <trkpt lat="45.03689" lon="4.1566">
        <ele>1219.57</ele>
        <time>2025-09-02T12:20:18Z</time>
      </trkpt>
      <trkpt lat="45.03681" lon="4.15627">
        <ele>1225.82</ele>
        <time>2025-09-02T12:20:36Z</time>
      </trkpt>
      <trkpt lat="45.0367" lon="4.156">
        <ele>1230.14</ele>
        <time>2025-09-02T12:20:53Z</time>
      </trkpt>
      <trkpt lat="45.03663" lon="4.15582">
        <ele>1234.47</ele>
        <time>2025-09-02T12:21:07Z</time>
      </trkpt>
      <trkpt lat="45.03663" lon="4.15567">
        <ele>1239.76</ele>
        <time>2025-09-02T12:21:19Z</time>
      </trkpt>
      <trkpt lat="45.03671" lon="4.15571">
        <ele>1243.6</ele>
        <time>2025-09-02T12:21:29Z</time>
      </trkpt>
      <trkpt lat="45.03684" lon="4.15567">
        <ele>1245.04</ele>
        <time>2025-09-02T12:21:44Z</time>
      </trkpt>
      <trkpt lat="45.0369" lon="4.1556">
        <ele>1246.01</ele>
        <time>2025-09-02T12:21:59Z</time>
      </trkpt>
      <trkpt lat="45.03698" lon="4.15545">
        <ele>1248.89</ele>
        <time>2025-09-02T12:22:15Z</time>
      </trkpt>
      <trkpt lat="45.0369" lon="4.15524">
        <ele>1255.62</ele>
        <time>2025-09-02T12:22:34Z</time>
      </trkpt>
      <trkpt lat="45.03674" lon="4.15518">
        <ele>1260.91</ele>
        <time>2025-09-02T12:22:51Z</time>
      </trkpt>
      <trkpt lat="45.03672" lon="4.15508">
        <ele>1263.79</ele>
        <time>2025-09-02T12:23:06Z</time>
      </trkpt>
      <trkpt lat="45.03683" lon="4.15487">
        <ele>1266.19</ele>
        <time>2025-09-02T12:23:25Z</time>
      </trkpt>
      <trkpt lat="45.03684" lon="4.15482">
        <ele>1267.64</ele>
        <time>2025-09-02T12:23:43Z</time>
      </trkpt>
      <trkpt lat="45.03684" lon="4.15479">
        <ele>1268.6</ele>
        <time>2025-09-02T12:23:54Z</time>
      </trkpt>
      <trkpt lat="45.03691" lon="4.15466">
        <ele>1269.08</ele>
        <time>2025-09-02T12:24:06Z</time>
      </trkpt>
      <trkpt lat="45.03698" lon="4.1545">
        <ele>1271</ele>
        <time>2025-09-02T12:24:19Z</time>
      </trkpt>
      <trkpt lat="45.03704" lon="4.15444">
        <ele>1270.52</ele>
        <time>2025-09-02T12:24:33Z</time>
      </trkpt>
      <trkpt lat="45.03707" lon="4.15437">
        <ele>1268.6</ele>
        <time>2025-09-02T12:24:42Z</time>
      </trkpt>
      <trkpt lat="45.03708" lon="4.15431">
        <ele>1265.71</ele>
        <time>2025-09-02T12:24:59Z</time>
      </trkpt>
      <trkpt lat="45.03705" lon="4.15419">
        <ele>1261.39</ele>
        <time>2025-09-02T12:25:33Z</time>
      </trkpt>
      <trkpt lat="45.03703" lon="4.15425">
        <ele>1261.39</ele>
        <time>2025-09-02T12:26:07Z</time>
      </trkpt>
      <trkpt lat="45.03706" lon="4.15431">
        <ele>1264.27</ele>
        <time>2025-09-02T12:26:36Z</time>
      </trkpt>
      <trkpt lat="45.03702" lon="4.15433">
        <ele>1275.33</ele>
        <time>2025-09-02T12:27:10Z</time>
      </trkpt>
      <trkpt lat="45.03705" lon="4.15434">
        <ele>1271</ele>
        <time>2025-09-02T12:27:45Z</time>
      </trkpt>
      <trkpt lat="45.03707" lon="4.15433">
        <ele>1267.64</ele>
        <time>2025-09-02T12:28:19Z</time>
      </trkpt>
      <trkpt lat="45.03708" lon="4.15437">
        <ele>1265.71</ele>
        <time>2025-09-02T12:28:52Z</time>
      </trkpt>
      <trkpt lat="45.03702" lon="4.15434">
        <ele>1272.44</ele>
        <time>2025-09-02T12:29:19Z</time>
      </trkpt>
      <trkpt lat="45.03707" lon="4.15434">
        <ele>1274.36</ele>
        <time>2025-09-02T12:29:55Z</time>
      </trkpt>
      <trkpt lat="45.03706" lon="4.15433">
        <ele>1274.85</ele>
        <time>2025-09-02T12:30:19Z</time>
      </trkpt>
      <trkpt lat="45.0371" lon="4.15435">
        <ele>1277.73</ele>
        <time>2025-09-02T12:30:41Z</time>
      </trkpt>
      <trkpt lat="45.03704" lon="4.15433">
        <ele>1277.73</ele>
        <time>2025-09-02T12:30:59Z</time>
      </trkpt>
      <trkpt lat="45.03701" lon="4.15434">
        <ele>1276.29</ele>
        <time>2025-09-02T12:31:13Z</time>
      </trkpt>
      <trkpt lat="45.03694" lon="4.15454">
        <ele>1277.25</ele>
        <time>2025-09-02T12:31:31Z</time>
      </trkpt>
      <trkpt lat="45.03693" lon="4.15455">
        <ele>1277.73</ele>
        <time>2025-09-02T12:31:32Z</time>
      </trkpt>
      <trkpt lat="45.03684" lon="4.1547">
        <ele>1280.61</ele>
        <time>2025-09-02T12:31:46Z</time>
      </trkpt>
      <trkpt lat="45.03677" lon="4.15489">
        <ele>1279.65</ele>
        <time>2025-09-02T12:32:01Z</time>
      </trkpt>
      <trkpt lat="45.03664" lon="4.15511">
        <ele>1275.33</ele>
        <time>2025-09-02T12:32:19Z</time>
      </trkpt>
      <trkpt lat="45.03654" lon="4.15515">
        <ele>1272.44</ele>
        <time>2025-09-02T12:32:27Z</time>
      </trkpt>
      <trkpt lat="45.03649" lon="4.15512">
        <ele>1263.31</ele>
        <time>2025-09-02T12:32:33Z</time>
      </trkpt>
      <trkpt lat="45.0365" lon="4.15509">
        <ele>1260.91</ele>
        <time>2025-09-02T12:32:48Z</time>
      </trkpt>
      <trkpt lat="45.03644" lon="4.15504">
        <ele>1261.39</ele>
        <time>2025-09-02T12:33:00Z</time>
      </trkpt>
      <trkpt lat="45.03639" lon="4.15491">
        <ele>1264.27</ele>
        <time>2025-09-02T12:33:15Z</time>
      </trkpt>
      <trkpt lat="45.03646" lon="4.15486">
        <ele>1268.6</ele>
        <time>2025-09-02T12:33:33Z</time>
      </trkpt>
      <trkpt lat="45.03645" lon="4.15469">
        <ele>1271.96</ele>
        <time>2025-09-02T12:33:49Z</time>
      </trkpt>
      <trkpt lat="45.03644" lon="4.15455">
        <ele>1275.33</ele>
        <time>2025-09-02T12:34:03Z</time>
      </trkpt>
      <trkpt lat="45.03648" lon="4.15437">
        <ele>1280.61</ele>
        <time>2025-09-02T12:34:19Z</time>
      </trkpt>
      <trkpt lat="45.03644" lon="4.15418">
        <ele>1283.5</ele>
        <time>2025-09-02T12:34:33Z</time>
      </trkpt>
      <trkpt lat="45.03646" lon="4.15392">
        <ele>1285.9</ele>
        <time>2025-09-02T12:34:54Z</time>
      </trkpt>
      <trkpt lat="45.03653" lon="4.15384">
        <ele>1287.34</ele>
        <time>2025-09-02T12:35:08Z</time>
      </trkpt>
      <trkpt lat="45.03654" lon="4.15381">
        <ele>1286.38</ele>
        <time>2025-09-02T12:35:28Z</time>
      </trkpt>
      <trkpt lat="45.0366" lon="4.15372">
        <ele>1284.46</ele>
        <time>2025-09-02T12:35:48Z</time>
      </trkpt>
      <trkpt lat="45.03674" lon="4.15373">
        <ele>1280.13</ele>
        <time>2025-09-02T12:36:08Z</time>
      </trkpt>
      <trkpt lat="45.03672" lon="4.15374">
        <ele>1279.17</ele>
        <time>2025-09-02T12:36:23Z</time>
      </trkpt>
      <trkpt lat="45.03671" lon="4.15372">
        <ele>1278.69</ele>
        <time>2025-09-02T12:36:49Z</time>
      </trkpt>
      <trkpt lat="45.0367" lon="4.15369">
        <ele>1277.73</ele>
        <time>2025-09-02T12:37:16Z</time>
      </trkpt>
      <trkpt lat="45.03673" lon="4.15369">
        <ele>1278.69</ele>
        <time>2025-09-02T12:37:34Z</time>
      </trkpt>
      <trkpt lat="45.03684" lon="4.1536">
        <ele>1278.69</ele>
        <time>2025-09-02T12:37:51Z</time>
      </trkpt>
      <trkpt lat="45.03692" lon="4.15361">
        <ele>1278.21</ele>
        <time>2025-09-02T12:38:12Z</time>
      </trkpt>
      <trkpt lat="45.03693" lon="4.15353">
        <ele>1276.29</ele>
        <time>2025-09-02T12:38:41Z</time>
      </trkpt>
      <trkpt lat="45.03709" lon="4.15337">
        <ele>1280.13</ele>
        <time>2025-09-02T12:38:59Z</time>
      </trkpt>
      <trkpt lat="45.03706" lon="4.15331">
        <ele>1281.09</ele>
        <time>2025-09-02T12:39:21Z</time>
      </trkpt>
      <trkpt lat="45.03694" lon="4.15316">
        <ele>1283.5</ele>
        <time>2025-09-02T12:39:40Z</time>
      </trkpt>
      <trkpt lat="45.03678" lon="4.15295">
        <ele>1284.94</ele>
        <time>2025-09-02T12:40:01Z</time>
      </trkpt>
      <trkpt lat="45.03667" lon="4.15289">
        <ele>1284.94</ele>
        <time>2025-09-02T12:40:17Z</time>
      </trkpt>
      <trkpt lat="45.03656" lon="4.15272">
        <ele>1283.02</ele>
        <time>2025-09-02T12:40:34Z</time>
      </trkpt>
      <trkpt lat="45.0364" lon="4.15259">
        <ele>1285.42</ele>
        <time>2025-09-02T12:40:55Z</time>
      </trkpt>
      <trkpt lat="45.03621" lon="4.15236">
        <ele>1284.94</ele>
        <time>2025-09-02T12:41:15Z</time>
      </trkpt>
      <trkpt lat="45.03604" lon="4.15221">
        <ele>1284.94</ele>
        <time>2025-09-02T12:41:35Z</time>
      </trkpt>
      <trkpt lat="45.03588" lon="4.15206">
        <ele>1280.13</ele>
        <time>2025-09-02T12:41:56Z</time>
      </trkpt>
      <trkpt lat="45.03584" lon="4.15194">
        <ele>1277.73</ele>
        <time>2025-09-02T12:42:18Z</time>
      </trkpt>
      <trkpt lat="45.03566" lon="4.15175">
        <ele>1275.33</ele>
        <time>2025-09-02T12:42:40Z</time>
      </trkpt>
      <trkpt lat="45.03546" lon="4.15149">
        <ele>1281.57</ele>
        <time>2025-09-02T12:42:57Z</time>
      </trkpt>
      <trkpt lat="45.03524" lon="4.15132">
        <ele>1277.73</ele>
        <time>2025-09-02T12:43:19Z</time>
      </trkpt>
      <trkpt lat="45.03515" lon="4.15124">
        <ele>1273.4</ele>
        <time>2025-09-02T12:43:34Z</time>
      </trkpt>
      <trkpt lat="45.03506" lon="4.15109">
        <ele>1267.64</ele>
        <time>2025-09-02T12:43:51Z</time>
      </trkpt>
      <trkpt lat="45.03479" lon="4.15085">
        <ele>1273.4</ele>
        <time>2025-09-02T12:44:15Z</time>
      </trkpt>
      <trkpt lat="45.03468" lon="4.15063">
        <ele>1268.12</ele>
        <time>2025-09-02T12:44:33Z</time>
      </trkpt>
      <trkpt lat="45.03454" lon="4.15043">
        <ele>1286.38</ele>
        <time>2025-09-02T12:44:49Z</time>
      </trkpt>
      <trkpt lat="45.03448" lon="4.15026">
        <ele>1284.94</ele>
        <time>2025-09-02T12:45:06Z</time>
      </trkpt>
      <trkpt lat="45.0345" lon="4.15022">
        <ele>1280.13</ele>
        <time>2025-09-02T12:45:21Z</time>
      </trkpt>
      <trkpt lat="45.03448" lon="4.14998">
        <ele>1277.25</ele>
        <time>2025-09-02T12:45:43Z</time>
      </trkpt>
      <trkpt lat="45.03442" lon="4.14978">
        <ele>1274.36</ele>
        <time>2025-09-02T12:46:01Z</time>
      </trkpt>
      <trkpt lat="45.03429" lon="4.14948">
        <ele>1274.85</ele>
        <time>2025-09-02T12:46:23Z</time>
      </trkpt>
      <trkpt lat="45.03417" lon="4.14911">
        <ele>1275.81</ele>
        <time>2025-09-02T12:46:45Z</time>
      </trkpt>
      <trkpt lat="45.03398" lon="4.14876">
        <ele>1274.36</ele>
        <time>2025-09-02T12:47:10Z</time>
      </trkpt>
      <trkpt lat="45.03376" lon="4.14849">
        <ele>1272.44</ele>
        <time>2025-09-02T12:47:32Z</time>
      </trkpt>
      <trkpt lat="45.03365" lon="4.14843">
        <ele>1272.44</ele>
        <time>2025-09-02T12:47:54Z</time>
      </trkpt>
      <trkpt lat="45.0338" lon="4.14856">
        <ele>1275.33</ele>
        <time>2025-09-02T12:48:16Z</time>
      </trkpt>
      <trkpt lat="45.03398" lon="4.14864">
        <ele>1285.9</ele>
        <time>2025-09-02T12:48:41Z</time>
      </trkpt>
      <trkpt lat="45.03426" lon="4.14863">
        <ele>1290.71</ele>
        <time>2025-09-02T12:49:03Z</time>
      </trkpt>
      <trkpt lat="45.03457" lon="4.14873">
        <ele>1293.59</ele>
        <time>2025-09-02T12:49:28Z</time>
      </trkpt>
      <trkpt lat="45.03482" lon="4.14887">
        <ele>1295.51</ele>
        <time>2025-09-02T12:49:50Z</time>
      </trkpt>
      <trkpt lat="45.03503" lon="4.14898">
        <ele>1297.92</ele>
        <time>2025-09-02T12:50:11Z</time>
      </trkpt>
      <trkpt lat="45.03526" lon="4.149">
        <ele>1299.84</ele>
        <time>2025-09-02T12:50:34Z</time>
      </trkpt>
      <trkpt lat="45.03561" lon="4.14885">
        <ele>1306.09</ele>
        <time>2025-09-02T12:50:59Z</time>
      </trkpt>
      <trkpt lat="45.03579" lon="4.14881">
        <ele>1313.3</ele>
        <time>2025-09-02T12:51:16Z</time>
      </trkpt>
      <trkpt lat="45.03599" lon="4.14871">
        <ele>1316.18</ele>
        <time>2025-09-02T12:51:38Z</time>
      </trkpt>
      <trkpt lat="45.03622" lon="4.14853">
        <ele>1320.51</ele>
        <time>2025-09-02T12:51:58Z</time>
      </trkpt>
      <trkpt lat="45.0365" lon="4.14839">
        <ele>1323.39</ele>
        <time>2025-09-02T12:52:20Z</time>
      </trkpt>
      <trkpt lat="45.03664" lon="4.14839">
        <ele>1323.87</ele>
        <time>2025-09-02T12:52:35Z</time>
      </trkpt>
      <trkpt lat="45.03686" lon="4.14846">
        <ele>1326.76</ele>
        <time>2025-09-02T12:52:57Z</time>
      </trkpt>
      <trkpt lat="45.03714" lon="4.1485">
        <ele>1327.72</ele>
        <time>2025-09-02T12:53:18Z</time>
      </trkpt>
      <trkpt lat="45.03743" lon="4.14858">
        <ele>1331.08</ele>
        <time>2025-09-02T12:53:40Z</time>
      </trkpt>
      <trkpt lat="45.03763" lon="4.14876">
        <ele>1332.04</ele>
        <time>2025-09-02T12:53:59Z</time>
      </trkpt>
      <trkpt lat="45.03785" lon="4.14885">
        <ele>1333.01</ele>
        <time>2025-09-02T12:54:18Z</time>
      </trkpt>
      <trkpt lat="45.03805" lon="4.14889">
        <ele>1334.93</ele>
        <time>2025-09-02T12:54:38Z</time>
      </trkpt>
      <trkpt lat="45.03814" lon="4.1487">
        <ele>1336.37</ele>
        <time>2025-09-02T12:55:02Z</time>
      </trkpt>
      <trkpt lat="45.03811" lon="4.14868">
        <ele>1339.73</ele>
        <time>2025-09-02T12:55:30Z</time>
      </trkpt>
      <trkpt lat="45.03809" lon="4.14868">
        <ele>1338.29</ele>
        <time>2025-09-02T12:55:57Z</time>
      </trkpt>
      <trkpt lat="45.03813" lon="4.14883">
        <ele>1332.52</ele>
        <time>2025-09-02T12:56:22Z</time>
      </trkpt>
      <trkpt lat="45.03811" lon="4.14883">
        <ele>1328.68</ele>
        <time>2025-09-02T12:56:44Z</time>
      </trkpt>
      <trkpt lat="45.03801" lon="4.14871">
        <ele>1329.64</ele>
        <time>2025-09-02T12:57:04Z</time>
      </trkpt>
      <trkpt lat="45.03781" lon="4.14861">
        <ele>1323.39</ele>
        <time>2025-09-02T12:57:27Z</time>
      </trkpt>
      <trkpt lat="45.03794" lon="4.14881">
        <ele>1321.47</ele>
        <time>2025-09-02T12:57:48Z</time>
      </trkpt>
      <trkpt lat="45.03812" lon="4.14885">
        <ele>1320.99</ele>
        <time>2025-09-02T12:58:07Z</time>
      </trkpt>
      <trkpt lat="45.03821" lon="4.14882">
        <ele>1319.07</ele>
        <time>2025-09-02T12:58:31Z</time>
      </trkpt>
      <trkpt lat="45.03822" lon="4.14883">
        <ele>1322.91</ele>
        <time>2025-09-02T12:58:55Z</time>
      </trkpt>
      <trkpt lat="45.03816" lon="4.14882">
        <ele>1325.31</ele>
        <time>2025-09-02T12:59:25Z</time>
      </trkpt>
      <trkpt lat="45.03818" lon="4.14877">
        <ele>1323.87</ele>
        <time>2025-09-02T12:59:48Z</time>
      </trkpt>
      <trkpt lat="45.03817" lon="4.1484">
        <ele>1321.95</ele>
        <time>2025-09-02T13:00:06Z</time>
      </trkpt>
      <trkpt lat="45.03814" lon="4.14807">
        <ele>1321.95</ele>
        <time>2025-09-02T13:00:25Z</time>
      </trkpt>
      <trkpt lat="45.03803" lon="4.14771">
        <ele>1325.31</ele>
        <time>2025-09-02T13:00:44Z</time>
      </trkpt>
      <trkpt lat="45.03803" lon="4.14741">
        <ele>1328.2</ele>
        <time>2025-09-02T13:01:04Z</time>
      </trkpt>
      <trkpt lat="45.03792" lon="4.14733">
        <ele>1327.24</ele>
        <time>2025-09-02T13:01:29Z</time>
      </trkpt>
      <trkpt lat="45.03791" lon="4.14704">
        <ele>1324.83</ele>
        <time>2025-09-02T13:01:50Z</time>
      </trkpt>
      <trkpt lat="45.03788" lon="4.14663">
        <ele>1324.83</ele>
        <time>2025-09-02T13:02:11Z</time>
      </trkpt>
      <trkpt lat="45.03781" lon="4.14628">
        <ele>1325.8</ele>
        <time>2025-09-02T13:02:31Z</time>
      </trkpt>
      <trkpt lat="45.03773" lon="4.14593">
        <ele>1324.35</ele>
        <time>2025-09-02T13:02:52Z</time>
      </trkpt>
      <trkpt lat="45.03768" lon="4.14559">
        <ele>1323.39</ele>
        <time>2025-09-02T13:03:11Z</time>
      </trkpt>
      <trkpt lat="45.0376" lon="4.14524">
        <ele>1322.91</ele>
        <time>2025-09-02T13:03:29Z</time>
      </trkpt>
      <trkpt lat="45.03761" lon="4.14507">
        <ele>1322.91</ele>
        <time>2025-09-02T13:03:45Z</time>
      </trkpt>
      <trkpt lat="45.03774" lon="4.145">
        <ele>1330.12</ele>
        <time>2025-09-02T13:04:04Z</time>
      </trkpt>
      <trkpt lat="45.03796" lon="4.14495">
        <ele>1333.97</ele>
        <time>2025-09-02T13:04:25Z</time>
      </trkpt>
      <trkpt lat="45.03819" lon="4.14494">
        <ele>1340.7</ele>
        <time>2025-09-02T13:04:47Z</time>
      </trkpt>
      <trkpt lat="45.03846" lon="4.14476">
        <ele>1349.35</ele>
        <time>2025-09-02T13:05:09Z</time>
      </trkpt>
      <trkpt lat="45.03865" lon="4.14458">
        <ele>1354.63</ele>
        <time>2025-09-02T13:05:28Z</time>
      </trkpt>
      <trkpt lat="45.03881" lon="4.14446">
        <ele>1359.92</ele>
        <time>2025-09-02T13:05:46Z</time>
      </trkpt>
      <trkpt lat="45.03906" lon="4.14428">
        <ele>1372.9</ele>
        <time>2025-09-02T13:06:07Z</time>
      </trkpt>
      <trkpt lat="45.03921" lon="4.14411">
        <ele>1378.19</ele>
        <time>2025-09-02T13:06:27Z</time>
      </trkpt>
      <trkpt lat="45.0394" lon="4.14387">
        <ele>1376.75</ele>
        <time>2025-09-02T13:06:49Z</time>
      </trkpt>
      <trkpt lat="45.0395" lon="4.14358">
        <ele>1375.78</ele>
        <time>2025-09-02T13:07:08Z</time>
      </trkpt>
      <trkpt lat="45.03951" lon="4.1435">
        <ele>1375.78</ele>
        <time>2025-09-02T13:07:11Z</time>
      </trkpt>
      <trkpt lat="45.03962" lon="4.14318">
        <ele>1375.78</ele>
        <time>2025-09-02T13:07:30Z</time>
      </trkpt>
      <trkpt lat="45.03971" lon="4.14281">
        <ele>1374.34</ele>
        <time>2025-09-02T13:07:49Z</time>
      </trkpt>
      <trkpt lat="45.03985" lon="4.14265">
        <ele>1370.98</ele>
        <time>2025-09-02T13:08:07Z</time>
      </trkpt>
      <trkpt lat="45.04006" lon="4.14246">
        <ele>1368.57</ele>
        <time>2025-09-02T13:08:25Z</time>
      </trkpt>
      <trkpt lat="45.0401" lon="4.14243">
        <ele>1368.57</ele>
        <time>2025-09-02T13:08:28Z</time>
      </trkpt>
      <trkpt lat="45.04027" lon="4.14226">
        <ele>1368.09</ele>
        <time>2025-09-02T13:08:45Z</time>
      </trkpt>
      <trkpt lat="45.04041" lon="4.14211">
        <ele>1368.09</ele>
        <time>2025-09-02T13:09:01Z</time>
      </trkpt>
      <trkpt lat="45.04053" lon="4.14198">
        <ele>1367.13</ele>
        <time>2025-09-02T13:09:15Z</time>
      </trkpt>
      <trkpt lat="45.0407" lon="4.14189">
        <ele>1365.69</ele>
        <time>2025-09-02T13:09:33Z</time>
      </trkpt>
      <trkpt lat="45.04088" lon="4.14176">
        <ele>1365.69</ele>
        <time>2025-09-02T13:09:48Z</time>
      </trkpt>
      <trkpt lat="45.04103" lon="4.14166">
        <ele>1361.84</ele>
        <time>2025-09-02T13:10:04Z</time>
      </trkpt>
      <trkpt lat="45.04124" lon="4.14158">
        <ele>1358.48</ele>
        <time>2025-09-02T13:10:22Z</time>
      </trkpt>
      <trkpt lat="45.04147" lon="4.14142">
        <ele>1353.19</ele>
        <time>2025-09-02T13:10:41Z</time>
      </trkpt>
      <trkpt lat="45.04164" lon="4.14127">
        <ele>1347.43</ele>
        <time>2025-09-02T13:10:58Z</time>
      </trkpt>
      <trkpt lat="45.04186" lon="4.14118">
        <ele>1343.1</ele>
        <time>2025-09-02T13:11:17Z</time>
      </trkpt>
      <trkpt lat="45.04214" lon="4.14106">
        <ele>1341.18</ele>
        <time>2025-09-02T13:11:39Z</time>
      </trkpt>
      <trkpt lat="45.04238" lon="4.14086">
        <ele>1339.73</ele>
        <time>2025-09-02T13:11:59Z</time>
      </trkpt>
      <trkpt lat="45.04264" lon="4.14069">
        <ele>1343.58</ele>
        <time>2025-09-02T13:12:18Z</time>
      </trkpt>
      <trkpt lat="45.04292" lon="4.14052">
        <ele>1348.87</ele>
        <time>2025-09-02T13:12:39Z</time>
      </trkpt>
      <trkpt lat="45.04314" lon="4.14043">
        <ele>1351.27</ele>
        <time>2025-09-02T13:12:59Z</time>
      </trkpt>
      <trkpt lat="45.04336" lon="4.14035">
        <ele>1354.15</ele>
        <time>2025-09-02T13:13:18Z</time>
      </trkpt>
      <trkpt lat="45.04362" lon="4.14026">
        <ele>1358.48</ele>
        <time>2025-09-02T13:13:36Z</time>
      </trkpt>
      <trkpt lat="45.04382" lon="4.14016">
        <ele>1361.84</ele>
        <time>2025-09-02T13:13:56Z</time>
      </trkpt>
      <trkpt lat="45.04404" lon="4.14006">
        <ele>1364.73</ele>
        <time>2025-09-02T13:14:13Z</time>
      </trkpt>
      <trkpt lat="45.04425" lon="4.13997">
        <ele>1366.17</ele>
        <time>2025-09-02T13:14:31Z</time>
      </trkpt>
      <trkpt lat="45.04449" lon="4.13995">
        <ele>1363.29</ele>
        <time>2025-09-02T13:14:48Z</time>
      </trkpt>
      <trkpt lat="45.04474" lon="4.13996">
        <ele>1356.56</ele>
        <time>2025-09-02T13:15:07Z</time>
      </trkpt>
      <trkpt lat="45.04496" lon="4.13998">
        <ele>1356.56</ele>
        <time>2025-09-02T13:15:25Z</time>
      </trkpt>
      <trkpt lat="45.0452" lon="4.14004">
        <ele>1357.04</ele>
        <time>2025-09-02T13:15:44Z</time>
      </trkpt>
      <trkpt lat="45.04528" lon="4.14005">
        <ele>1356.08</ele>
        <time>2025-09-02T13:15:48Z</time>
      </trkpt>
      <trkpt lat="45.04553" lon="4.1401">
        <ele>1353.67</ele>
        <time>2025-09-02T13:16:07Z</time>
      </trkpt>
      <trkpt lat="45.04578" lon="4.14009">
        <ele>1353.19</ele>
        <time>2025-09-02T13:16:26Z</time>
      </trkpt>
      <trkpt lat="45.04605" lon="4.14011">
        <ele>1354.63</ele>
        <time>2025-09-02T13:16:46Z</time>
      </trkpt>
      <trkpt lat="45.04624" lon="4.14015">
        <ele>1356.56</ele>
        <time>2025-09-02T13:17:04Z</time>
      </trkpt>
      <trkpt lat="45.04643" lon="4.14016">
        <ele>1357.52</ele>
        <time>2025-09-02T13:17:22Z</time>
      </trkpt>
      <trkpt lat="45.04661" lon="4.14009">
        <ele>1358</ele>
        <time>2025-09-02T13:17:40Z</time>
      </trkpt>
      <trkpt lat="45.04668" lon="4.14002">
        <ele>1358.96</ele>
        <time>2025-09-02T13:17:48Z</time>
      </trkpt>
      <trkpt lat="45.0469" lon="4.13997">
        <ele>1361.84</ele>
        <time>2025-09-02T13:18:05Z</time>
      </trkpt>
      <trkpt lat="45.04706" lon="4.1399">
        <ele>1362.33</ele>
        <time>2025-09-02T13:18:23Z</time>
      </trkpt>
      <trkpt lat="45.04724" lon="4.1398">
        <ele>1360.4</ele>
        <time>2025-09-02T13:18:40Z</time>
      </trkpt>
      <trkpt lat="45.0474" lon="4.1399">
        <ele>1357.52</ele>
        <time>2025-09-02T13:18:54Z</time>
      </trkpt>
      <trkpt lat="45.04745" lon="4.13999">
        <ele>1353.19</ele>
        <time>2025-09-02T13:19:04Z</time>
      </trkpt>
      <trkpt lat="45.04758" lon="4.14014">
        <ele>1347.43</ele>
        <time>2025-09-02T13:19:20Z</time>
      </trkpt>
      <trkpt lat="45.04769" lon="4.14004">
        <ele>1343.58</ele>
        <time>2025-09-02T13:19:38Z</time>
      </trkpt>
      <trkpt lat="45.04776" lon="4.13983">
        <ele>1343.1</ele>
        <time>2025-09-02T13:19:55Z</time>
      </trkpt>
      <trkpt lat="45.04779" lon="4.13975">
        <ele>1343.1</ele>
        <time>2025-09-02T13:20:01Z</time>
      </trkpt>
      <trkpt lat="45.04791" lon="4.13957">
        <ele>1344.06</ele>
        <time>2025-09-02T13:20:17Z</time>
      </trkpt>
      <trkpt lat="45.04792" lon="4.13956">
        <ele>1344.06</ele>
        <time>2025-09-02T13:20:18Z</time>
      </trkpt>
      <trkpt lat="45.04809" lon="4.13936">
        <ele>1346.46</ele>
        <time>2025-09-02T13:20:36Z</time>
      </trkpt>
      <trkpt lat="45.04819" lon="4.13928">
        <ele>1347.91</ele>
        <time>2025-09-02T13:20:45Z</time>
      </trkpt>
      <trkpt lat="45.0483" lon="4.13922">
        <ele>1348.39</ele>
        <time>2025-09-02T13:20:53Z</time>
      </trkpt>
      <trkpt lat="45.04846" lon="4.13901">
        <ele>1350.79</ele>
        <time>2025-09-02T13:21:09Z</time>
      </trkpt>
      <trkpt lat="45.04854" lon="4.13877">
        <ele>1353.19</ele>
        <time>2025-09-02T13:21:27Z</time>
      </trkpt>
      <trkpt lat="45.04863" lon="4.13848">
        <ele>1354.15</ele>
        <time>2025-09-02T13:21:44Z</time>
      </trkpt>
      <trkpt lat="45.0487" lon="4.13816">
        <ele>1354.15</ele>
        <time>2025-09-02T13:22:07Z</time>
      </trkpt>
      <trkpt lat="45.04886" lon="4.13792">
        <ele>1357.04</ele>
        <time>2025-09-02T13:22:25Z</time>
      </trkpt>
      <trkpt lat="45.04901" lon="4.13768">
        <ele>1360.88</ele>
        <time>2025-09-02T13:22:43Z</time>
      </trkpt>
      <trkpt lat="45.04913" lon="4.13743">
        <ele>1363.77</ele>
        <time>2025-09-02T13:23:03Z</time>
      </trkpt>
      <trkpt lat="45.0493" lon="4.1372">
        <ele>1367.13</ele>
        <time>2025-09-02T13:23:23Z</time>
      </trkpt>
      <trkpt lat="45.04943" lon="4.13705">
        <ele>1370.98</ele>
        <time>2025-09-02T13:23:40Z</time>
      </trkpt>
      <trkpt lat="45.04965" lon="4.1369">
        <ele>1372.42</ele>
        <time>2025-09-02T13:23:58Z</time>
      </trkpt>
      <trkpt lat="45.04984" lon="4.13665">
        <ele>1370.98</ele>
        <time>2025-09-02T13:24:21Z</time>
      </trkpt>
      <trkpt lat="45.04994" lon="4.13637">
        <ele>1368.57</ele>
        <time>2025-09-02T13:24:45Z</time>
      </trkpt>
      <trkpt lat="45.05006" lon="4.13609">
        <ele>1369.05</ele>
        <time>2025-09-02T13:25:10Z</time>
      </trkpt>
      <trkpt lat="45.05018" lon="4.13588">
        <ele>1369.05</ele>
        <time>2025-09-02T13:25:28Z</time>
      </trkpt>
      <trkpt lat="45.05024" lon="4.13562">
        <ele>1365.69</ele>
        <time>2025-09-02T13:25:49Z</time>
      </trkpt>
      <trkpt lat="45.05025" lon="4.13529">
        <ele>1372.42</ele>
        <time>2025-09-02T13:26:14Z</time>
      </trkpt>
      <trkpt lat="45.05025" lon="4.13509">
        <ele>1370.98</ele>
        <time>2025-09-02T13:26:37Z</time>
      </trkpt>
      <trkpt lat="45.05042" lon="4.13498">
        <ele>1368.09</ele>
        <time>2025-09-02T13:26:55Z</time>
      </trkpt>
      <trkpt lat="45.05059" lon="4.13479">
        <ele>1369.05</ele>
        <time>2025-09-02T13:27:14Z</time>
      </trkpt>
      <trkpt lat="45.05075" lon="4.13464">
        <ele>1368.57</ele>
        <time>2025-09-02T13:27:30Z</time>
      </trkpt>
      <trkpt lat="45.05094" lon="4.13453">
        <ele>1369.54</ele>
        <time>2025-09-02T13:27:45Z</time>
      </trkpt>
      <trkpt lat="45.05117" lon="4.13438">
        <ele>1370.02</ele>
        <time>2025-09-02T13:28:02Z</time>
      </trkpt>
      <trkpt lat="45.05136" lon="4.13423">
        <ele>1368.57</ele>
        <time>2025-09-02T13:28:22Z</time>
      </trkpt>
      <trkpt lat="45.05154" lon="4.13416">
        <ele>1366.17</ele>
        <time>2025-09-02T13:28:40Z</time>
      </trkpt>
      <trkpt lat="45.05168" lon="4.13428">
        <ele>1363.77</ele>
        <time>2025-09-02T13:28:58Z</time>
      </trkpt>
      <trkpt lat="45.05166" lon="4.13433">
        <ele>1360.4</ele>
        <time>2025-09-02T13:29:14Z</time>
      </trkpt>
      <trkpt lat="45.05186" lon="4.13432">
        <ele>1358.96</ele>
        <time>2025-09-02T13:29:34Z</time>
      </trkpt>
      <trkpt lat="45.05185" lon="4.13411">
        <ele>1357.52</ele>
        <time>2025-09-02T13:29:49Z</time>
      </trkpt>
      <trkpt lat="45.05188" lon="4.1341">
        <ele>1356.08</ele>
        <time>2025-09-02T13:30:05Z</time>
      </trkpt>
      <trkpt lat="45.05191" lon="4.13395">
        <ele>1354.15</ele>
        <time>2025-09-02T13:30:22Z</time>
      </trkpt>
      <trkpt lat="45.05191" lon="4.13397">
        <ele>1354.63</ele>
        <time>2025-09-02T13:30:40Z</time>
      </trkpt>
      <trkpt lat="45.05188" lon="4.13408">
        <ele>1354.63</ele>
        <time>2025-09-02T13:31:04Z</time>
      </trkpt>
      <trkpt lat="45.0519" lon="4.13403">
        <ele>1354.15</ele>
        <time>2025-09-02T13:31:13Z</time>
      </trkpt>
      <trkpt lat="45.052" lon="4.13384">
        <ele>1354.63</ele>
        <time>2025-09-02T13:31:30Z</time>
      </trkpt>
      <trkpt lat="45.0521" lon="4.13382">
        <ele>1355.12</ele>
        <time>2025-09-02T13:31:38Z</time>
      </trkpt>
      <trkpt lat="45.05232" lon="4.13362">
        <ele>1358</ele>
        <time>2025-09-02T13:31:56Z</time>
      </trkpt>
      <trkpt lat="45.05241" lon="4.1334">
        <ele>1358</ele>
        <time>2025-09-02T13:32:11Z</time>
      </trkpt>
      <trkpt lat="45.05255" lon="4.13321">
        <ele>1358.96</ele>
        <time>2025-09-02T13:32:28Z</time>
      </trkpt>
      <trkpt lat="45.05268" lon="4.13301">
        <ele>1359.44</ele>
        <time>2025-09-02T13:32:44Z</time>
      </trkpt>
      <trkpt lat="45.05282" lon="4.13285">
        <ele>1360.88</ele>
        <time>2025-09-02T13:33:02Z</time>
      </trkpt>
      <trkpt lat="45.05308" lon="4.13279">
        <ele>1365.69</ele>
        <time>2025-09-02T13:33:23Z</time>
      </trkpt>
      <trkpt lat="45.05322" lon="4.13283">
        <ele>1364.73</ele>
        <time>2025-09-02T13:33:40Z</time>
      </trkpt>
      <trkpt lat="45.05335" lon="4.13285">
        <ele>1364.73</ele>
        <time>2025-09-02T13:33:50Z</time>
      </trkpt>
      <trkpt lat="45.05363" lon="4.13295">
        <ele>1364.25</ele>
        <time>2025-09-02T13:34:11Z</time>
      </trkpt>
      <trkpt lat="45.05384" lon="4.13301">
        <ele>1365.69</ele>
        <time>2025-09-02T13:34:32Z</time>
      </trkpt>
      <trkpt lat="45.05408" lon="4.13309">
        <ele>1370.5</ele>
        <time>2025-09-02T13:34:52Z</time>
      </trkpt>
      <trkpt lat="45.05434" lon="4.13306">
        <ele>1377.23</ele>
        <time>2025-09-02T13:35:16Z</time>
      </trkpt>
      <trkpt lat="45.05451" lon="4.13297">
        <ele>1380.59</ele>
        <time>2025-09-02T13:35:35Z</time>
      </trkpt>
      <trkpt lat="45.05461" lon="4.13285">
        <ele>1380.59</ele>
        <time>2025-09-02T13:35:49Z</time>
      </trkpt>
      <trkpt lat="45.05478" lon="4.13272">
        <ele>1380.59</ele>
        <time>2025-09-02T13:36:07Z</time>
      </trkpt>
      <trkpt lat="45.05492" lon="4.13256">
        <ele>1380.11</ele>
        <time>2025-09-02T13:36:25Z</time>
      </trkpt>
      <trkpt lat="45.05493" lon="4.13238">
        <ele>1381.07</ele>
        <time>2025-09-02T13:36:42Z</time>
      </trkpt>
      <trkpt lat="45.05491" lon="4.13204">
        <ele>1389.24</ele>
        <time>2025-09-02T13:37:07Z</time>
      </trkpt>
      <trkpt lat="45.05489" lon="4.13182">
        <ele>1392.13</ele>
        <time>2025-09-02T13:37:29Z</time>
      </trkpt>
      <trkpt lat="45.0549" lon="4.13171">
        <ele>1395.97</ele>
        <time>2025-09-02T13:37:50Z</time>
      </trkpt>
      <trkpt lat="45.05482" lon="4.13155">
        <ele>1398.37</ele>
        <time>2025-09-02T13:38:06Z</time>
      </trkpt>
      <trkpt lat="45.05489" lon="4.13154">
        <ele>1407.99</ele>
        <time>2025-09-02T13:38:25Z</time>
      </trkpt>
      <trkpt lat="45.05496" lon="4.13139">
        <ele>1408.47</ele>
        <time>2025-09-02T13:38:42Z</time>
      </trkpt>
      <trkpt lat="45.05507" lon="4.13128">
        <ele>1412.79</ele>
        <time>2025-09-02T13:39:00Z</time>
      </trkpt>
      <trkpt lat="45.05512" lon="4.13111">
        <ele>1416.16</ele>
        <time>2025-09-02T13:39:17Z</time>
      </trkpt>
      <trkpt lat="45.05504" lon="4.13096">
        <ele>1420.97</ele>
        <time>2025-09-02T13:39:36Z</time>
      </trkpt>
      <trkpt lat="45.05498" lon="4.13077">
        <ele>1423.37</ele>
        <time>2025-09-02T13:39:53Z</time>
      </trkpt>
      <trkpt lat="45.05497" lon="4.13071">
        <ele>1423.37</ele>
        <time>2025-09-02T13:39:58Z</time>
      </trkpt>
      <trkpt lat="45.05489" lon="4.13055">
        <ele>1424.81</ele>
        <time>2025-09-02T13:40:14Z</time>
      </trkpt>
      <trkpt lat="45.05487" lon="4.13043">
        <ele>1424.81</ele>
        <time>2025-09-02T13:40:29Z</time>
      </trkpt>
      <trkpt lat="45.05483" lon="4.13042">
        <ele>1428.18</ele>
        <time>2025-09-02T13:40:49Z</time>
      </trkpt>
      <trkpt lat="45.05483" lon="4.13044">
        <ele>1428.18</ele>
        <time>2025-09-02T13:41:09Z</time>
      </trkpt>
      <trkpt lat="45.05479" lon="4.13045">
        <ele>1430.58</ele>
        <time>2025-09-02T13:41:35Z</time>
      </trkpt>
      <trkpt lat="45.05475" lon="4.13047">
        <ele>1438.75</ele>
        <time>2025-09-02T13:42:08Z</time>
      </trkpt>
      <trkpt lat="45.05476" lon="4.13044">
        <ele>1439.71</ele>
        <time>2025-09-02T13:42:39Z</time>
      </trkpt>
      <trkpt lat="45.05478" lon="4.13049">
        <ele>1439.71</ele>
        <time>2025-09-02T13:43:06Z</time>
      </trkpt>
      <trkpt lat="45.05475" lon="4.13048">
        <ele>1440.67</ele>
        <time>2025-09-02T13:43:37Z</time>
      </trkpt>
      <trkpt lat="45.05476" lon="4.13051">
        <ele>1439.23</ele>
        <time>2025-09-02T13:44:06Z</time>
      </trkpt>
      <trkpt lat="45.05474" lon="4.13051">
        <ele>1437.79</ele>
        <time>2025-09-02T13:44:39Z</time>
      </trkpt>
      <trkpt lat="45.05476" lon="4.13049">
        <ele>1439.23</ele>
        <time>2025-09-02T13:45:12Z</time>
      </trkpt>
      <trkpt lat="45.05475" lon="4.13048">
        <ele>1440.67</ele>
        <time>2025-09-02T13:45:44Z</time>
      </trkpt>
      <trkpt lat="45.05475" lon="4.1305">
        <ele>1441.63</ele>
        <time>2025-09-02T13:46:10Z</time>
      </trkpt>
      <trkpt lat="45.0548" lon="4.13053">
        <ele>1440.67</ele>
        <time>2025-09-02T13:46:33Z</time>
      </trkpt>
      <trkpt lat="45.0548" lon="4.13052">
        <ele>1440.19</ele>
        <time>2025-09-02T13:47:04Z</time>
      </trkpt>
      <trkpt lat="45.05479" lon="4.13053">
        <ele>1440.67</ele>
        <time>2025-09-02T13:47:36Z</time>
      </trkpt>
      <trkpt lat="45.05479" lon="4.13054">
        <ele>1439.23</ele>
        <time>2025-09-02T13:47:51Z</time>
      </trkpt>
      <trkpt lat="45.05479" lon="4.13054">
        <ele>1438.27</ele>
        <time>2025-09-02T13:48:08Z</time>
      </trkpt>
      <trkpt lat="45.05479" lon="4.13061">
        <ele>1436.83</ele>
        <time>2025-09-02T13:48:19Z</time>
      </trkpt>
      <trkpt lat="45.05485" lon="4.13071">
        <ele>1437.79</ele>
        <time>2025-09-02T13:48:31Z</time>
      </trkpt>
      <trkpt lat="45.05486" lon="4.13085">
        <ele>1437.31</ele>
        <time>2025-09-02T13:48:45Z</time>
      </trkpt>
      <trkpt lat="45.05489" lon="4.131">
        <ele>1437.79</ele>
        <time>2025-09-02T13:48:59Z</time>
      </trkpt>
      <trkpt lat="45.05499" lon="4.13107">
        <ele>1437.31</ele>
        <time>2025-09-02T13:49:15Z</time>
      </trkpt>
      <trkpt lat="45.05504" lon="4.13128">
        <ele>1437.31</ele>
        <time>2025-09-02T13:49:29Z</time>
      </trkpt>
      <trkpt lat="45.0551" lon="4.13144">
        <ele>1437.31</ele>
        <time>2025-09-02T13:49:45Z</time>
      </trkpt>
      <trkpt lat="45.05509" lon="4.13151">
        <ele>1437.79</ele>
        <time>2025-09-02T13:49:59Z</time>
      </trkpt>
      <trkpt lat="45.05505" lon="4.13153">
        <ele>1438.27</ele>
        <time>2025-09-02T13:50:30Z</time>
      </trkpt>
      <trkpt lat="45.05509" lon="4.13162">
        <ele>1437.79</ele>
        <time>2025-09-02T13:50:45Z</time>
      </trkpt>
      <trkpt lat="45.05516" lon="4.13161">
        <ele>1434.42</ele>
        <time>2025-09-02T13:51:02Z</time>
      </trkpt>
      <trkpt lat="45.05519" lon="4.13175">
        <ele>1430.58</ele>
        <time>2025-09-02T13:51:19Z</time>
      </trkpt>
      <trkpt lat="45.05529" lon="4.13183">
        <ele>1427.7</ele>
        <time>2025-09-02T13:51:36Z</time>
      </trkpt>
      <trkpt lat="45.05538" lon="4.13193">
        <ele>1422.89</ele>
        <time>2025-09-02T13:51:57Z</time>
      </trkpt>
      <trkpt lat="45.05548" lon="4.13207">
        <ele>1416.16</ele>
        <time>2025-09-02T13:52:14Z</time>
      </trkpt>
      <trkpt lat="45.05551" lon="4.13213">
        <ele>1413.28</ele>
        <time>2025-09-02T13:52:31Z</time>
      </trkpt>
      <trkpt lat="45.05544" lon="4.1323">
        <ele>1411.83</ele>
        <time>2025-09-02T13:52:49Z</time>
      </trkpt>
      <trkpt lat="45.05544" lon="4.1324">
        <ele>1410.87</ele>
        <time>2025-09-02T13:53:07Z</time>
      </trkpt>
      <trkpt lat="45.05549" lon="4.13242">
        <ele>1408.47</ele>
        <time>2025-09-02T13:53:40Z</time>
      </trkpt>
      <trkpt lat="45.05548" lon="4.13243">
        <ele>1409.43</ele>
        <time>2025-09-02T13:54:09Z</time>
      </trkpt>
      <trkpt lat="45.05548" lon="4.13245">
        <ele>1409.91</ele>
        <time>2025-09-02T13:54:43Z</time>
      </trkpt>
      <trkpt lat="45.05549" lon="4.13243">
        <ele>1410.39</ele>
        <time>2025-09-02T13:55:16Z</time>
      </trkpt>
      <trkpt lat="45.05547" lon="4.13268">
        <ele>1408.95</ele>
        <time>2025-09-02T13:55:32Z</time>
      </trkpt>
      <trkpt lat="45.05555" lon="4.13291">
        <ele>1408.95</ele>
        <time>2025-09-02T13:55:46Z</time>
      </trkpt>
      <trkpt lat="45.05569" lon="4.13303">
        <ele>1408.47</ele>
        <time>2025-09-02T13:56:01Z</time>
      </trkpt>
      <trkpt lat="45.05595" lon="4.13326">
        <ele>1410.39</ele>
        <time>2025-09-02T13:56:23Z</time>
      </trkpt>
      <trkpt lat="45.05614" lon="4.13324">
        <ele>1410.87</ele>
        <time>2025-09-02T13:56:41Z</time>
      </trkpt>
      <trkpt lat="45.05636" lon="4.13325">
        <ele>1409.91</ele>
        <time>2025-09-02T13:57:02Z</time>
      </trkpt>
      <trkpt lat="45.05649" lon="4.13316">
        <ele>1406.55</ele>
        <time>2025-09-02T13:57:12Z</time>
      </trkpt>
      <trkpt lat="45.05664" lon="4.13292">
        <ele>1402.22</ele>
        <time>2025-09-02T13:57:28Z</time>
      </trkpt>
      <trkpt lat="45.05663" lon="4.13278">
        <ele>1398.86</ele>
        <time>2025-09-02T13:57:40Z</time>
      </trkpt>
      <trkpt lat="45.0567" lon="4.13261">
        <ele>1395.49</ele>
        <time>2025-09-02T13:57:55Z</time>
      </trkpt>
      <trkpt lat="45.05675" lon="4.1325">
        <ele>1394.05</ele>
        <time>2025-09-02T13:58:01Z</time>
      </trkpt>
      <trkpt lat="45.05673" lon="4.13232">
        <ele>1391.65</ele>
        <time>2025-09-02T13:58:12Z</time>
      </trkpt>
      <trkpt lat="45.05671" lon="4.13224">
        <ele>1390.68</ele>
        <time>2025-09-02T13:58:18Z</time>
      </trkpt>
      <trkpt lat="45.05665" lon="4.13205">
        <ele>1389.24</ele>
        <time>2025-09-02T13:58:33Z</time>
      </trkpt>
      <trkpt lat="45.05665" lon="4.13184">
        <ele>1385.88</ele>
        <time>2025-09-02T13:58:47Z</time>
      </trkpt>
      <trkpt lat="45.05665" lon="4.13168">
        <ele>1382.99</ele>
        <time>2025-09-02T13:59:01Z</time>
      </trkpt>
      <trkpt lat="45.05672" lon="4.1315">
        <ele>1380.59</ele>
        <time>2025-09-02T13:59:18Z</time>
      </trkpt>
      <trkpt lat="45.05678" lon="4.13129">
        <ele>1377.23</ele>
        <time>2025-09-02T13:59:35Z</time>
      </trkpt>
      <trkpt lat="45.05682" lon="4.13108">
        <ele>1374.82</ele>
        <time>2025-09-02T13:59:50Z</time>
      </trkpt>
      <trkpt lat="45.05688" lon="4.13085">
        <ele>1372.42</ele>
        <time>2025-09-02T14:00:06Z</time>
      </trkpt>
      <trkpt lat="45.05694" lon="4.13064">
        <ele>1369.54</ele>
        <time>2025-09-02T14:00:23Z</time>
      </trkpt>
      <trkpt lat="45.05696" lon="4.13047">
        <ele>1367.13</ele>
        <time>2025-09-02T14:00:37Z</time>
      </trkpt>
      <trkpt lat="45.05703" lon="4.13026">
        <ele>1363.77</ele>
        <time>2025-09-02T14:00:53Z</time>
      </trkpt>
      <trkpt lat="45.05711" lon="4.13019">
        <ele>1360.4</ele>
        <time>2025-09-02T14:01:05Z</time>
      </trkpt>
      <trkpt lat="45.05714" lon="4.13031">
        <ele>1358</ele>
        <time>2025-09-02T14:01:20Z</time>
      </trkpt>
      <trkpt lat="45.05718" lon="4.13038">
        <ele>1358.96</ele>
        <time>2025-09-02T14:01:35Z</time>
      </trkpt>
      <trkpt lat="45.05719" lon="4.13039">
        <ele>1359.44</ele>
        <time>2025-09-02T14:01:56Z</time>
      </trkpt>
      <trkpt lat="45.05722" lon="4.13047">
        <ele>1358</ele>
        <time>2025-09-02T14:02:14Z</time>
      </trkpt>
      <trkpt lat="45.05724" lon="4.13046">
        <ele>1358</ele>
        <time>2025-09-02T14:02:35Z</time>
      </trkpt>
      <trkpt lat="45.05728" lon="4.13052">
        <ele>1358.96</ele>
        <time>2025-09-02T14:02:49Z</time>
      </trkpt>
      <trkpt lat="45.05736" lon="4.13066">
        <ele>1358.96</ele>
        <time>2025-09-02T14:03:05Z</time>
      </trkpt>
      <trkpt lat="45.05736" lon="4.13067">
        <ele>1358.48</ele>
        <time>2025-09-02T14:03:06Z</time>
      </trkpt>
      <trkpt lat="45.05744" lon="4.13078">
        <ele>1356.56</ele>
        <time>2025-09-02T14:03:16Z</time>
      </trkpt>
      <trkpt lat="45.05754" lon="4.13091">
        <ele>1354.15</ele>
        <time>2025-09-02T14:03:29Z</time>
      </trkpt>
      <trkpt lat="45.05765" lon="4.13107">
        <ele>1352.23</ele>
        <time>2025-09-02T14:03:42Z</time>
      </trkpt>
      <trkpt lat="45.05778" lon="4.13127">
        <ele>1349.35</ele>
        <time>2025-09-02T14:03:56Z</time>
      </trkpt>
      <trkpt lat="45.05784" lon="4.1314">
        <ele>1348.39</ele>
        <time>2025-09-02T14:04:04Z</time>
      </trkpt>
      <trkpt lat="45.05787" lon="4.13148">
        <ele>1346.94</ele>
        <time>2025-09-02T14:04:10Z</time>
      </trkpt>
      <trkpt lat="45.05799" lon="4.13159">
        <ele>1344.54</ele>
        <time>2025-09-02T14:04:22Z</time>
      </trkpt>
      <trkpt lat="45.05809" lon="4.13168">
        <ele>1342.62</ele>
        <time>2025-09-02T14:04:32Z</time>
      </trkpt>
      <trkpt lat="45.05816" lon="4.13178">
        <ele>1341.66</ele>
        <time>2025-09-02T14:04:40Z</time>
      </trkpt>
      <trkpt lat="45.05825" lon="4.13188">
        <ele>1340.7</ele>
        <time>2025-09-02T14:04:50Z</time>
      </trkpt>
      <trkpt lat="45.05838" lon="4.13193">
        <ele>1340.22</ele>
        <time>2025-09-02T14:05:01Z</time>
      </trkpt>
      <trkpt lat="45.05852" lon="4.13199">
        <ele>1337.33</ele>
        <time>2025-09-02T14:05:14Z</time>
      </trkpt>
      <trkpt lat="45.05865" lon="4.13203">
        <ele>1335.89</ele>
        <time>2025-09-02T14:05:24Z</time>
      </trkpt>
      <trkpt lat="45.05867" lon="4.13204">
        <ele>1335.41</ele>
        <time>2025-09-02T14:05:26Z</time>
      </trkpt>
      <trkpt lat="45.05875" lon="4.13206">
        <ele>1333.97</ele>
        <time>2025-09-02T14:05:32Z</time>
      </trkpt>
      <trkpt lat="45.05894" lon="4.13212">
        <ele>1333.01</ele>
        <time>2025-09-02T14:05:46Z</time>
      </trkpt>
      <trkpt lat="45.0591" lon="4.1322">
        <ele>1333.01</ele>
        <time>2025-09-02T14:06:02Z</time>
      </trkpt>
      <trkpt lat="45.05912" lon="4.13221">
        <ele>1333.01</ele>
        <time>2025-09-02T14:06:03Z</time>
      </trkpt>
      <trkpt lat="45.05926" lon="4.1323">
        <ele>1328.68</ele>
        <time>2025-09-02T14:06:17Z</time>
      </trkpt>
      <trkpt lat="45.05941" lon="4.13238">
        <ele>1325.8</ele>
        <time>2025-09-02T14:06:29Z</time>
      </trkpt>
      <trkpt lat="45.05956" lon="4.13244">
        <ele>1325.31</ele>
        <time>2025-09-02T14:06:42Z</time>
      </trkpt>
      <trkpt lat="45.05957" lon="4.13245">
        <ele>1325.31</ele>
        <time>2025-09-02T14:06:43Z</time>
      </trkpt>
      <trkpt lat="45.05969" lon="4.13255">
        <ele>1324.35</ele>
        <time>2025-09-02T14:06:54Z</time>
      </trkpt>
      <trkpt lat="45.05972" lon="4.13258">
        <ele>1323.87</ele>
        <time>2025-09-02T14:06:58Z</time>
      </trkpt>
      <trkpt lat="45.05984" lon="4.1327">
        <ele>1319.07</ele>
        <time>2025-09-02T14:07:11Z</time>
      </trkpt>
      <trkpt lat="45.0599" lon="4.13272">
        <ele>1317.14</ele>
        <time>2025-09-02T14:07:16Z</time>
      </trkpt>
      <trkpt lat="45.06003" lon="4.13283">
        <ele>1314.74</ele>
        <time>2025-09-02T14:07:28Z</time>
      </trkpt>
      <trkpt lat="45.06014" lon="4.13295">
        <ele>1310.9</ele>
        <time>2025-09-02T14:07:41Z</time>
      </trkpt>
      <trkpt lat="45.06018" lon="4.13299">
        <ele>1309.93</ele>
        <time>2025-09-02T14:07:45Z</time>
      </trkpt>
      <trkpt lat="45.06025" lon="4.13306">
        <ele>1306.57</ele>
        <time>2025-09-02T14:07:53Z</time>
      </trkpt>
      <trkpt lat="45.06042" lon="4.13321">
        <ele>1305.13</ele>
        <time>2025-09-02T14:08:08Z</time>
      </trkpt>
      <trkpt lat="45.0605" lon="4.1334">
        <ele>1308.01</ele>
        <time>2025-09-02T14:08:23Z</time>
      </trkpt>
      <trkpt lat="45.0605" lon="4.13342">
        <ele>1308.01</ele>
        <time>2025-09-02T14:08:24Z</time>
      </trkpt>
      <trkpt lat="45.06056" lon="4.13353">
        <ele>1311.86</ele>
        <time>2025-09-02T14:08:37Z</time>
      </trkpt>
      <trkpt lat="45.06067" lon="4.13351">
        <ele>1312.82</ele>
        <time>2025-09-02T14:08:53Z</time>
      </trkpt>
      <trkpt lat="45.06078" lon="4.13351">
        <ele>1311.86</ele>
        <time>2025-09-02T14:09:10Z</time>
      </trkpt>
      <trkpt lat="45.06087" lon="4.13351">
        <ele>1309.45</ele>
        <time>2025-09-02T14:09:24Z</time>
      </trkpt>
      <trkpt lat="45.06088" lon="4.13352">
        <ele>1308.49</ele>
        <time>2025-09-02T14:09:34Z</time>
      </trkpt>
      <trkpt lat="45.061" lon="4.1334">
        <ele>1304.65</ele>
        <time>2025-09-02T14:09:48Z</time>
      </trkpt>
      <trkpt lat="45.06108" lon="4.13334">
        <ele>1301.76</ele>
        <time>2025-09-02T14:09:59Z</time>
      </trkpt>
      <trkpt lat="45.06119" lon="4.13331">
        <ele>1296.96</ele>
        <time>2025-09-02T14:10:12Z</time>
      </trkpt>
      <trkpt lat="45.06135" lon="4.13328">
        <ele>1296.48</ele>
        <time>2025-09-02T14:10:21Z</time>
      </trkpt>
      <trkpt lat="45.0615" lon="4.13319">
        <ele>1295.03</ele>
        <time>2025-09-02T14:10:33Z</time>
      </trkpt>
      <trkpt lat="45.06167" lon="4.13307">
        <ele>1285.9</ele>
        <time>2025-09-02T14:10:46Z</time>
      </trkpt>
      <trkpt lat="45.06181" lon="4.133">
        <ele>1283.5</ele>
        <time>2025-09-02T14:10:59Z</time>
      </trkpt>
      <trkpt lat="45.06197" lon="4.13292">
        <ele>1284.94</ele>
        <time>2025-09-02T14:11:13Z</time>
      </trkpt>
      <trkpt lat="45.06211" lon="4.13285">
        <ele>1284.94</ele>
        <time>2025-09-02T14:11:25Z</time>
      </trkpt>
      <trkpt lat="45.06218" lon="4.13284">
        <ele>1284.46</ele>
        <time>2025-09-02T14:11:32Z</time>
      </trkpt>
      <trkpt lat="45.06239" lon="4.13275">
        <ele>1284.94</ele>
        <time>2025-09-02T14:11:49Z</time>
      </trkpt>
      <trkpt lat="45.06258" lon="4.13269">
        <ele>1286.38</ele>
        <time>2025-09-02T14:12:03Z</time>
      </trkpt>
      <trkpt lat="45.06272" lon="4.13262">
        <ele>1287.34</ele>
        <time>2025-09-02T14:12:16Z</time>
      </trkpt>
      <trkpt lat="45.0628" lon="4.1326">
        <ele>1289.27</ele>
        <time>2025-09-02T14:12:29Z</time>
      </trkpt>
      <trkpt lat="45.06294" lon="4.13253">
        <ele>1287.34</ele>
        <time>2025-09-02T14:12:43Z</time>
      </trkpt>
      <trkpt lat="45.06307" lon="4.13247">
        <ele>1283.02</ele>
        <time>2025-09-02T14:12:54Z</time>
      </trkpt>
      <trkpt lat="45.06322" lon="4.13239">
        <ele>1278.21</ele>
        <time>2025-09-02T14:13:08Z</time>
      </trkpt>
      <trkpt lat="45.06342" lon="4.13232">
        <ele>1277.25</ele>
        <time>2025-09-02T14:13:22Z</time>
      </trkpt>
      <trkpt lat="45.06358" lon="4.13227">
        <ele>1273.4</ele>
        <time>2025-09-02T14:13:35Z</time>
      </trkpt>
      <trkpt lat="45.06372" lon="4.13219">
        <ele>1268.6</ele>
        <time>2025-09-02T14:13:47Z</time>
      </trkpt>
      <trkpt lat="45.06386" lon="4.13212">
        <ele>1267.16</ele>
        <time>2025-09-02T14:13:59Z</time>
      </trkpt>
      <trkpt lat="45.06396" lon="4.13215">
        <ele>1268.12</ele>
        <time>2025-09-02T14:14:07Z</time>
      </trkpt>
      <trkpt lat="45.06417" lon="4.13198">
        <ele>1268.12</ele>
        <time>2025-09-02T14:14:21Z</time>
      </trkpt>
      <trkpt lat="45.06434" lon="4.13192">
        <ele>1267.16</ele>
        <time>2025-09-02T14:14:35Z</time>
      </trkpt>
      <trkpt lat="45.06454" lon="4.13183">
        <ele>1271</ele>
        <time>2025-09-02T14:14:47Z</time>
      </trkpt>
      <trkpt lat="45.06482" lon="4.13171">
        <ele>1278.69</ele>
        <time>2025-09-02T14:15:02Z</time>
      </trkpt>
      <trkpt lat="45.06496" lon="4.13162">
        <ele>1283.5</ele>
        <time>2025-09-02T14:15:13Z</time>
      </trkpt>
      <trkpt lat="45.06515" lon="4.13155">
        <ele>1290.23</ele>
        <time>2025-09-02T14:15:30Z</time>
      </trkpt>
      <trkpt lat="45.06534" lon="4.13144">
        <ele>1295.51</ele>
        <time>2025-09-02T14:15:47Z</time>
      </trkpt>
      <trkpt lat="45.06546" lon="4.13144">
        <ele>1296.96</ele>
        <time>2025-09-02T14:15:59Z</time>
      </trkpt>
      <trkpt lat="45.06567" lon="4.13135">
        <ele>1297.44</ele>
        <time>2025-09-02T14:16:13Z</time>
      </trkpt>
      <trkpt lat="45.0659" lon="4.13123">
        <ele>1293.11</ele>
        <time>2025-09-02T14:16:27Z</time>
      </trkpt>
      <trkpt lat="45.06606" lon="4.13114">
        <ele>1287.82</ele>
        <time>2025-09-02T14:16:42Z</time>
      </trkpt>
      <trkpt lat="45.06621" lon="4.13107">
        <ele>1285.9</ele>
        <time>2025-09-02T14:16:55Z</time>
      </trkpt>
      <trkpt lat="45.06635" lon="4.13104">
        <ele>1283.98</ele>
        <time>2025-09-02T14:17:09Z</time>
      </trkpt>
      <trkpt lat="45.06655" lon="4.13095">
        <ele>1283.98</ele>
        <time>2025-09-02T14:17:24Z</time>
      </trkpt>
      <trkpt lat="45.06669" lon="4.13088">
        <ele>1285.9</ele>
        <time>2025-09-02T14:17:37Z</time>
      </trkpt>
      <trkpt lat="45.06687" lon="4.13077">
        <ele>1289.27</ele>
        <time>2025-09-02T14:17:51Z</time>
      </trkpt>
      <trkpt lat="45.06706" lon="4.13069">
        <ele>1292.15</ele>
        <time>2025-09-02T14:18:05Z</time>
      </trkpt>
      <trkpt lat="45.06708" lon="4.13068">
        <ele>1292.15</ele>
        <time>2025-09-02T14:18:06Z</time>
      </trkpt>
      <trkpt lat="45.06721" lon="4.13057">
        <ele>1290.71</ele>
        <time>2025-09-02T14:18:13Z</time>
      </trkpt>
      <trkpt lat="45.06739" lon="4.13041">
        <ele>1283.98</ele>
        <time>2025-09-02T14:18:29Z</time>
      </trkpt>
      <trkpt lat="45.06744" lon="4.1304">
        <ele>1284.46</ele>
        <time>2025-09-02T14:18:43Z</time>
      </trkpt>
      <trkpt lat="45.06746" lon="4.1304">
        <ele>1283.98</ele>
        <time>2025-09-02T14:18:58Z</time>
      </trkpt>
      <trkpt lat="45.0676" lon="4.13037">
        <ele>1279.65</ele>
        <time>2025-09-02T14:19:12Z</time>
      </trkpt>
      <trkpt lat="45.06778" lon="4.13032">
        <ele>1281.09</ele>
        <time>2025-09-02T14:19:25Z</time>
      </trkpt>
      <trkpt lat="45.06788" lon="4.13028">
        <ele>1281.09</ele>
        <time>2025-09-02T14:19:33Z</time>
      </trkpt>
      <trkpt lat="45.06792" lon="4.13024">
        <ele>1281.09</ele>
        <time>2025-09-02T14:19:36Z</time>
      </trkpt>
      <trkpt lat="45.06797" lon="4.13018">
        <ele>1281.09</ele>
        <time>2025-09-02T14:19:41Z</time>
      </trkpt>
      <trkpt lat="45.06812" lon="4.13016">
        <ele>1282.06</ele>
        <time>2025-09-02T14:19:54Z</time>
      </trkpt>
      <trkpt lat="45.06824" lon="4.13007">
        <ele>1283.02</ele>
        <time>2025-09-02T14:20:07Z</time>
      </trkpt>
      <trkpt lat="45.06831" lon="4.13003">
        <ele>1283.5</ele>
        <time>2025-09-02T14:20:13Z</time>
      </trkpt>
      <trkpt lat="45.06849" lon="4.13">
        <ele>1284.94</ele>
        <time>2025-09-02T14:20:29Z</time>
      </trkpt>
      <trkpt lat="45.06865" lon="4.12992">
        <ele>1284.94</ele>
        <time>2025-09-02T14:20:45Z</time>
      </trkpt>
      <trkpt lat="45.06877" lon="4.12985">
        <ele>1282.54</ele>
        <time>2025-09-02T14:20:57Z</time>
      </trkpt>
      <trkpt lat="45.0689" lon="4.1298">
        <ele>1280.61</ele>
        <time>2025-09-02T14:21:09Z</time>
      </trkpt>
      <trkpt lat="45.06908" lon="4.12972">
        <ele>1279.65</ele>
        <time>2025-09-02T14:21:25Z</time>
      </trkpt>
      <trkpt lat="45.0692" lon="4.12968">
        <ele>1279.17</ele>
        <time>2025-09-02T14:21:38Z</time>
      </trkpt>
      <trkpt lat="45.06934" lon="4.1296">
        <ele>1278.21</ele>
        <time>2025-09-02T14:21:51Z</time>
      </trkpt>
      <trkpt lat="45.06945" lon="4.12956">
        <ele>1279.65</ele>
        <time>2025-09-02T14:22:03Z</time>
      </trkpt>
      <trkpt lat="45.06945" lon="4.12953">
        <ele>1281.57</ele>
        <time>2025-09-02T14:22:15Z</time>
      </trkpt>
      <trkpt lat="45.06943" lon="4.12948">
        <ele>1282.06</ele>
        <time>2025-09-02T14:22:36Z</time>
      </trkpt>
      <trkpt lat="45.06947" lon="4.12952">
        <ele>1284.46</ele>
        <time>2025-09-02T14:22:51Z</time>
      </trkpt>
      <trkpt lat="45.06951" lon="4.12952">
        <ele>1284.94</ele>
        <time>2025-09-02T14:22:55Z</time>
      </trkpt>
      <trkpt lat="45.06962" lon="4.12954">
        <ele>1286.38</ele>
        <time>2025-09-02T14:23:08Z</time>
      </trkpt>
      <trkpt lat="45.06967" lon="4.12953">
        <ele>1286.38</ele>
        <time>2025-09-02T14:23:17Z</time>
      </trkpt>
      <trkpt lat="45.06984" lon="4.12949">
        <ele>1283.02</ele>
        <time>2025-09-02T14:23:30Z</time>
      </trkpt>
      <trkpt lat="45.06998" lon="4.12945">
        <ele>1280.13</ele>
        <time>2025-09-02T14:23:42Z</time>
      </trkpt>
      <trkpt lat="45.07012" lon="4.12944">
        <ele>1276.29</ele>
        <time>2025-09-02T14:23:53Z</time>
      </trkpt>
      <trkpt lat="45.07029" lon="4.12943">
        <ele>1271</ele>
        <time>2025-09-02T14:24:05Z</time>
      </trkpt>
      <trkpt lat="45.0703" lon="4.12943">
        <ele>1271.48</ele>
        <time>2025-09-02T14:24:06Z</time>
      </trkpt>
      <trkpt lat="45.07048" lon="4.12946">
        <ele>1272.92</ele>
        <time>2025-09-02T14:24:19Z</time>
      </trkpt>
      <trkpt lat="45.0706" lon="4.12941">
        <ele>1270.52</ele>
        <time>2025-09-02T14:24:28Z</time>
      </trkpt>
      <trkpt lat="45.07076" lon="4.12937">
        <ele>1268.12</ele>
        <time>2025-09-02T14:24:42Z</time>
      </trkpt>
      <trkpt lat="45.0709" lon="4.12936">
        <ele>1267.64</ele>
        <time>2025-09-02T14:24:56Z</time>
      </trkpt>
      <trkpt lat="45.07099" lon="4.12936">
        <ele>1268.6</ele>
        <time>2025-09-02T14:25:02Z</time>
      </trkpt>
      <trkpt lat="45.07115" lon="4.12936">
        <ele>1269.56</ele>
        <time>2025-09-02T14:25:16Z</time>
      </trkpt>
      <trkpt lat="45.07118" lon="4.12931">
        <ele>1267.64</ele>
        <time>2025-09-02T14:25:31Z</time>
      </trkpt>
      <trkpt lat="45.07121" lon="4.12927">
        <ele>1266.19</ele>
        <time>2025-09-02T14:25:53Z</time>
      </trkpt>
      <trkpt lat="45.07131" lon="4.12935">
        <ele>1267.64</ele>
        <time>2025-09-02T14:26:07Z</time>
      </trkpt>
      <trkpt lat="45.07141" lon="4.12933">
        <ele>1267.16</ele>
        <time>2025-09-02T14:26:19Z</time>
      </trkpt>
      <trkpt lat="45.07157" lon="4.12924">
        <ele>1263.79</ele>
        <time>2025-09-02T14:26:31Z</time>
      </trkpt>
      <trkpt lat="45.07178" lon="4.12908">
        <ele>1258.5</ele>
        <time>2025-09-02T14:26:47Z</time>
      </trkpt>
      <trkpt lat="45.072" lon="4.12906">
        <ele>1259.94</ele>
        <time>2025-09-02T14:27:01Z</time>
      </trkpt>
      <trkpt lat="45.07204" lon="4.12905">
        <ele>1259.94</ele>
        <time>2025-09-02T14:27:04Z</time>
      </trkpt>
      <trkpt lat="45.07211" lon="4.12903">
        <ele>1260.91</ele>
        <time>2025-09-02T14:27:09Z</time>
      </trkpt>
      <trkpt lat="45.07226" lon="4.12895">
        <ele>1258.98</ele>
        <time>2025-09-02T14:27:21Z</time>
      </trkpt>
      <trkpt lat="45.07236" lon="4.12891">
        <ele>1255.14</ele>
        <time>2025-09-02T14:27:29Z</time>
      </trkpt>
      <trkpt lat="45.07256" lon="4.12886">
        <ele>1251.29</ele>
        <time>2025-09-02T14:27:44Z</time>
      </trkpt>
      <trkpt lat="45.07267" lon="4.1288">
        <ele>1248.89</ele>
        <time>2025-09-02T14:28:00Z</time>
      </trkpt>
      <trkpt lat="45.07274" lon="4.12877">
        <ele>1247.93</ele>
        <time>2025-09-02T14:28:08Z</time>
      </trkpt>
      <trkpt lat="45.07281" lon="4.12866">
        <ele>1245.53</ele>
        <time>2025-09-02T14:28:17Z</time>
      </trkpt>
      <trkpt lat="45.07286" lon="4.12862">
        <ele>1244.56</ele>
        <time>2025-09-02T14:28:21Z</time>
      </trkpt>
      <trkpt lat="45.07291" lon="4.12858">
        <ele>1243.12</ele>
        <time>2025-09-02T14:28:26Z</time>
      </trkpt>
      <trkpt lat="45.07308" lon="4.12855">
        <ele>1240.72</ele>
        <time>2025-09-02T14:28:41Z</time>
      </trkpt>
      <trkpt lat="45.07318" lon="4.12844">
        <ele>1240.72</ele>
        <time>2025-09-02T14:28:55Z</time>
      </trkpt>
      <trkpt lat="45.07317" lon="4.12834">
        <ele>1240.72</ele>
        <time>2025-09-02T14:29:13Z</time>
      </trkpt>
      <trkpt lat="45.07315" lon="4.12824">
        <ele>1240.24</ele>
        <time>2025-09-02T14:29:20Z</time>
      </trkpt>
      <trkpt lat="45.07308" lon="4.12805">
        <ele>1241.68</ele>
        <time>2025-09-02T14:29:35Z</time>
      </trkpt>
      <trkpt lat="45.073" lon="4.12784">
        <ele>1245.04</ele>
        <time>2025-09-02T14:29:51Z</time>
      </trkpt>
      <trkpt lat="45.07295" lon="4.12767">
        <ele>1248.89</ele>
        <time>2025-09-02T14:30:05Z</time>
      </trkpt>
      <trkpt lat="45.0729" lon="4.12749">
        <ele>1251.29</ele>
        <time>2025-09-02T14:30:18Z</time>
      </trkpt>
      <trkpt lat="45.07284" lon="4.12735">
        <ele>1253.7</ele>
        <time>2025-09-02T14:30:30Z</time>
      </trkpt>
      <trkpt lat="45.07277" lon="4.12724">
        <ele>1255.62</ele>
        <time>2025-09-02T14:30:42Z</time>
      </trkpt>
      <trkpt lat="45.0727" lon="4.12707">
        <ele>1257.54</ele>
        <time>2025-09-02T14:30:55Z</time>
      </trkpt>
      <trkpt lat="45.07264" lon="4.12689">
        <ele>1258.02</ele>
        <time>2025-09-02T14:31:08Z</time>
      </trkpt>
      <trkpt lat="45.07259" lon="4.12674">
        <ele>1258.02</ele>
        <time>2025-09-02T14:31:21Z</time>
      </trkpt>
      <trkpt lat="45.07249" lon="4.12659">
        <ele>1260.43</ele>
        <time>2025-09-02T14:31:36Z</time>
      </trkpt>
      <trkpt lat="45.07243" lon="4.12646">
        <ele>1261.39</ele>
        <time>2025-09-02T14:31:48Z</time>
      </trkpt>
      <trkpt lat="45.07239" lon="4.12638">
        <ele>1262.83</ele>
        <time>2025-09-02T14:31:55Z</time>
      </trkpt>
      <trkpt lat="45.0722" lon="4.12632">
        <ele>1261.87</ele>
        <time>2025-09-02T14:32:08Z</time>
      </trkpt>
      <trkpt lat="45.07218" lon="4.12631">
        <ele>1261.87</ele>
        <time>2025-09-02T14:32:10Z</time>
      </trkpt>
      <trkpt lat="45.07203" lon="4.12621">
        <ele>1262.35</ele>
        <time>2025-09-02T14:32:24Z</time>
      </trkpt>
      <trkpt lat="45.07194" lon="4.12604">
        <ele>1264.27</ele>
        <time>2025-09-02T14:32:37Z</time>
      </trkpt>
      <trkpt lat="45.07188" lon="4.12584">
        <ele>1265.71</ele>
        <time>2025-09-02T14:32:51Z</time>
      </trkpt>
      <trkpt lat="45.07183" lon="4.12568">
        <ele>1266.19</ele>
        <time>2025-09-02T14:33:04Z</time>
      </trkpt>
      <trkpt lat="45.07183" lon="4.12566">
        <ele>1266.19</ele>
        <time>2025-09-02T14:33:05Z</time>
      </trkpt>
      <trkpt lat="45.07179" lon="4.12544">
        <ele>1267.64</ele>
        <time>2025-09-02T14:33:19Z</time>
      </trkpt>
      <trkpt lat="45.07175" lon="4.12528">
        <ele>1269.08</ele>
        <time>2025-09-02T14:33:32Z</time>
      </trkpt>
      <trkpt lat="45.07173" lon="4.12512">
        <ele>1270.04</ele>
        <time>2025-09-02T14:33:44Z</time>
      </trkpt>
      <trkpt lat="45.07169" lon="4.12492">
        <ele>1271.96</ele>
        <time>2025-09-02T14:33:57Z</time>
      </trkpt>
      <trkpt lat="45.07166" lon="4.12474">
        <ele>1271.96</ele>
        <time>2025-09-02T14:34:10Z</time>
      </trkpt>
      <trkpt lat="45.07163" lon="4.12453">
        <ele>1272.44</ele>
        <time>2025-09-02T14:34:23Z</time>
      </trkpt>
      <trkpt lat="45.07164" lon="4.12449">
        <ele>1272.92</ele>
        <time>2025-09-02T14:34:26Z</time>
      </trkpt>
      <trkpt lat="45.07162" lon="4.12437">
        <ele>1275.81</ele>
        <time>2025-09-02T14:34:38Z</time>
      </trkpt>
      <trkpt lat="45.07162" lon="4.12435">
        <ele>1276.77</ele>
        <time>2025-09-02T14:34:43Z</time>
      </trkpt>
      <trkpt lat="45.07158" lon="4.12433">
        <ele>1277.25</ele>
        <time>2025-09-02T14:34:52Z</time>
      </trkpt>
      <trkpt lat="45.07153" lon="4.12432">
        <ele>1277.73</ele>
        <time>2025-09-02T14:35:02Z</time>
      </trkpt>
      <trkpt lat="45.0715" lon="4.12426">
        <ele>1279.17</ele>
        <time>2025-09-02T14:35:12Z</time>
      </trkpt>
      <trkpt lat="45.07142" lon="4.12405">
        <ele>1279.65</ele>
        <time>2025-09-02T14:35:26Z</time>
      </trkpt>
      <trkpt lat="45.07133" lon="4.12386">
        <ele>1281.57</ele>
        <time>2025-09-02T14:35:39Z</time>
      </trkpt>
      <trkpt lat="45.07122" lon="4.12365">
        <ele>1282.06</ele>
        <time>2025-09-02T14:35:53Z</time>
      </trkpt>
      <trkpt lat="45.07112" lon="4.12346">
        <ele>1282.06</ele>
        <time>2025-09-02T14:36:07Z</time>
      </trkpt>
      <trkpt lat="45.071" lon="4.12332">
        <ele>1280.13</ele>
        <time>2025-09-02T14:36:20Z</time>
      </trkpt>
      <trkpt lat="45.07086" lon="4.12318">
        <ele>1277.73</ele>
        <time>2025-09-02T14:36:33Z</time>
      </trkpt>
      <trkpt lat="45.07074" lon="4.12303">
        <ele>1275.81</ele>
        <time>2025-09-02T14:36:46Z</time>
      </trkpt>
      <trkpt lat="45.07063" lon="4.12278">
        <ele>1276.77</ele>
        <time>2025-09-02T14:37:01Z</time>
      </trkpt>
      <trkpt lat="45.07052" lon="4.12254">
        <ele>1278.69</ele>
        <time>2025-09-02T14:37:16Z</time>
      </trkpt>
      <trkpt lat="45.07043" lon="4.12234">
        <ele>1277.25</ele>
        <time>2025-09-02T14:37:29Z</time>
      </trkpt>
      <trkpt lat="45.07033" lon="4.12215">
        <ele>1279.17</ele>
        <time>2025-09-02T14:37:43Z</time>
      </trkpt>
      <trkpt lat="45.07022" lon="4.12187">
        <ele>1283.02</ele>
        <time>2025-09-02T14:37:57Z</time>
      </trkpt>
      <trkpt lat="45.0702" lon="4.12183">
        <ele>1283.98</ele>
        <time>2025-09-02T14:38:00Z</time>
      </trkpt>
      <trkpt lat="45.07018" lon="4.12177">
        <ele>1284.94</ele>
        <time>2025-09-02T14:38:04Z</time>
      </trkpt>
      <trkpt lat="45.07009" lon="4.12154">
        <ele>1289.27</ele>
        <time>2025-09-02T14:38:19Z</time>
      </trkpt>
      <trkpt lat="45.07" lon="4.12128">
        <ele>1290.23</ele>
        <time>2025-09-02T14:38:32Z</time>
      </trkpt>
      <trkpt lat="45.06997" lon="4.12116">
        <ele>1289.75</ele>
        <time>2025-09-02T14:38:39Z</time>
      </trkpt>
      <trkpt lat="45.06991" lon="4.12101">
        <ele>1287.82</ele>
        <time>2025-09-02T14:38:46Z</time>
      </trkpt>
      <trkpt lat="45.06988" lon="4.12092">
        <ele>1286.86</ele>
        <time>2025-09-02T14:38:52Z</time>
      </trkpt>
      <trkpt lat="45.06986" lon="4.12085">
        <ele>1286.38</ele>
        <time>2025-09-02T14:38:56Z</time>
      </trkpt>
      <trkpt lat="45.06982" lon="4.1207">
        <ele>1284.94</ele>
        <time>2025-09-02T14:39:04Z</time>
      </trkpt>
      <trkpt lat="45.06976" lon="4.12042">
        <ele>1282.06</ele>
        <time>2025-09-02T14:39:19Z</time>
      </trkpt>
      <trkpt lat="45.06969" lon="4.12024">
        <ele>1282.54</ele>
        <time>2025-09-02T14:39:32Z</time>
      </trkpt>
      <trkpt lat="45.06956" lon="4.12038">
        <ele>1283.5</ele>
        <time>2025-09-02T14:39:45Z</time>
      </trkpt>
      <trkpt lat="45.06939" lon="4.12048">
        <ele>1282.06</ele>
        <time>2025-09-02T14:40:00Z</time>
      </trkpt>
      <trkpt lat="45.06925" lon="4.12056">
        <ele>1281.57</ele>
        <time>2025-09-02T14:40:12Z</time>
      </trkpt>
      <trkpt lat="45.06907" lon="4.12066">
        <ele>1280.61</ele>
        <time>2025-09-02T14:40:27Z</time>
      </trkpt>
      <trkpt lat="45.0689" lon="4.12075">
        <ele>1277.73</ele>
        <time>2025-09-02T14:40:42Z</time>
      </trkpt>
      <trkpt lat="45.06873" lon="4.12074">
        <ele>1273.4</ele>
        <time>2025-09-02T14:40:56Z</time>
      </trkpt>
      <trkpt lat="45.06858" lon="4.12068">
        <ele>1271.48</ele>
        <time>2025-09-02T14:41:10Z</time>
      </trkpt>
      <trkpt lat="45.06848" lon="4.12065">
        <ele>1270.52</ele>
        <time>2025-09-02T14:41:19Z</time>
      </trkpt>
      <trkpt lat="45.06829" lon="4.12057">
        <ele>1269.56</ele>
        <time>2025-09-02T14:41:33Z</time>
      </trkpt>
      <trkpt lat="45.06817" lon="4.12044">
        <ele>1269.56</ele>
        <time>2025-09-02T14:41:47Z</time>
      </trkpt>
      <trkpt lat="45.06817" lon="4.12042">
        <ele>1269.56</ele>
        <time>2025-09-02T14:41:50Z</time>
      </trkpt>
      <trkpt lat="45.06815" lon="4.12032">
        <ele>1269.56</ele>
        <time>2025-09-02T14:41:56Z</time>
      </trkpt>
      <trkpt lat="45.06814" lon="4.12007">
        <ele>1269.56</ele>
        <time>2025-09-02T14:42:10Z</time>
      </trkpt>
      <trkpt lat="45.06815" lon="4.11986">
        <ele>1270.52</ele>
        <time>2025-09-02T14:42:24Z</time>
      </trkpt>
      <trkpt lat="45.06816" lon="4.11981">
        <ele>1270.52</ele>
        <time>2025-09-02T14:42:31Z</time>
      </trkpt>
      <trkpt lat="45.06821" lon="4.11954">
        <ele>1270.52</ele>
        <time>2025-09-02T14:42:47Z</time>
      </trkpt>
      <trkpt lat="45.06827" lon="4.11929">
        <ele>1269.08</ele>
        <time>2025-09-02T14:43:02Z</time>
      </trkpt>
      <trkpt lat="45.06826" lon="4.11926">
        <ele>1268.6</ele>
        <time>2025-09-02T14:43:05Z</time>
      </trkpt>
      <trkpt lat="45.06824" lon="4.11921">
        <ele>1268.6</ele>
        <time>2025-09-02T14:43:09Z</time>
      </trkpt>
      <trkpt lat="45.06825" lon="4.11897">
        <ele>1266.67</ele>
        <time>2025-09-02T14:43:23Z</time>
      </trkpt>
      <trkpt lat="45.06823" lon="4.11874">
        <ele>1262.83</ele>
        <time>2025-09-02T14:43:37Z</time>
      </trkpt>
      <trkpt lat="45.06821" lon="4.11856">
        <ele>1258.98</ele>
        <time>2025-09-02T14:43:48Z</time>
      </trkpt>
      <trkpt lat="45.06822" lon="4.11831">
        <ele>1257.54</ele>
        <time>2025-09-02T14:44:02Z</time>
      </trkpt>
      <trkpt lat="45.06826" lon="4.11806">
        <ele>1255.14</ele>
        <time>2025-09-02T14:44:15Z</time>
      </trkpt>
      <trkpt lat="45.06826" lon="4.11794">
        <ele>1255.14</ele>
        <time>2025-09-02T14:44:27Z</time>
      </trkpt>
      <trkpt lat="45.06824" lon="4.1179">
        <ele>1256.1</ele>
        <time>2025-09-02T14:44:44Z</time>
      </trkpt>
      <trkpt lat="45.06828" lon="4.11796">
        <ele>1258.02</ele>
        <time>2025-09-02T14:44:55Z</time>
      </trkpt>
      <trkpt lat="45.06811" lon="4.11793">
        <ele>1255.62</ele>
        <time>2025-09-02T14:46:25Z</time>
      </trkpt>
      <trkpt lat="45.06823" lon="4.11776">
        <ele>1259.46</ele>
        <time>2025-09-02T14:46:42Z</time>
      </trkpt>
      <trkpt lat="45.06827" lon="4.11783">
        <ele>1255.14</ele>
        <time>2025-09-02T14:46:54Z</time>
      </trkpt>
      <trkpt lat="45.06832" lon="4.11783">
        <ele>1253.22</ele>
        <time>2025-09-02T14:47:07Z</time>
      </trkpt>
      <trkpt lat="45.06831" lon="4.11778">
        <ele>1253.7</ele>
        <time>2025-09-02T14:47:21Z</time>
      </trkpt>
      <trkpt lat="45.06829" lon="4.11776">
        <ele>1255.14</ele>
        <time>2025-09-02T14:47:41Z</time>
      </trkpt>
      <trkpt lat="45.06831" lon="4.11773">
        <ele>1254.66</ele>
        <time>2025-09-02T14:47:55Z</time>
      </trkpt>
      <trkpt lat="45.06828" lon="4.11773">
        <ele>1257.54</ele>
        <time>2025-09-02T14:48:20Z</time>
      </trkpt>
      <trkpt lat="45.06828" lon="4.11772">
        <ele>1258.98</ele>
        <time>2025-09-02T14:48:42Z</time>
      </trkpt>
      <trkpt lat="45.06828" lon="4.11774">
        <ele>1259.46</ele>
        <time>2025-09-02T14:48:59Z</time>
      </trkpt>
      <trkpt lat="45.06834" lon="4.11773">
        <ele>1256.58</ele>
        <time>2025-09-02T14:49:10Z</time>
      </trkpt>
      <trkpt lat="45.0684" lon="4.11764">
        <ele>1254.66</ele>
        <time>2025-09-02T14:49:23Z</time>
      </trkpt>
      <trkpt lat="45.06839" lon="4.11763">
        <ele>1253.22</ele>
        <time>2025-09-02T14:49:42Z</time>
      </trkpt>
      <trkpt lat="45.06838" lon="4.11762">
        <ele>1254.66</ele>
        <time>2025-09-02T14:50:03Z</time>
      </trkpt>
      <trkpt lat="45.06841" lon="4.11756">
        <ele>1253.22</ele>
        <time>2025-09-02T14:50:17Z</time>
      </trkpt>
      <trkpt lat="45.06846" lon="4.1174">
        <ele>1251.77</ele>
        <time>2025-09-02T14:50:29Z</time>
      </trkpt>
      <trkpt lat="45.06853" lon="4.11721">
        <ele>1250.81</ele>
        <time>2025-09-02T14:50:42Z</time>
      </trkpt>
      <trkpt lat="45.06859" lon="4.11701">
        <ele>1247.93</ele>
        <time>2025-09-02T14:50:55Z</time>
      </trkpt>
      <trkpt lat="45.06864" lon="4.11687">
        <ele>1245.53</ele>
        <time>2025-09-02T14:51:07Z</time>
      </trkpt>
      <trkpt lat="45.06864" lon="4.11688">
        <ele>1245.53</ele>
        <time>2025-09-02T14:51:09Z</time>
      </trkpt>
      <trkpt lat="45.06859" lon="4.11709">
        <ele>1249.85</ele>
        <time>2025-09-02T14:51:25Z</time>
      </trkpt>
      <trkpt lat="45.06852" lon="4.11728">
        <ele>1254.66</ele>
        <time>2025-09-02T14:51:40Z</time>
      </trkpt>
      <trkpt lat="45.06852" lon="4.1173">
        <ele>1255.14</ele>
        <time>2025-09-02T14:51:42Z</time>
      </trkpt>
      <trkpt lat="45.06855" lon="4.11739">
        <ele>1257.54</ele>
        <time>2025-09-02T14:51:49Z</time>
      </trkpt>
      <trkpt lat="45.06859" lon="4.11735">
        <ele>1258.02</ele>
        <time>2025-09-02T14:51:56Z</time>
      </trkpt>
      <trkpt lat="45.06866" lon="4.11718">
        <ele>1256.58</ele>
        <time>2025-09-02T14:52:08Z</time>
      </trkpt>
      <trkpt lat="45.06873" lon="4.11696">
        <ele>1253.7</ele>
        <time>2025-09-02T14:52:23Z</time>
      </trkpt>
      <trkpt lat="45.0688" lon="4.11673">
        <ele>1250.81</ele>
        <time>2025-09-02T14:52:37Z</time>
      </trkpt>
      <trkpt lat="45.06887" lon="4.1165">
        <ele>1247.93</ele>
        <time>2025-09-02T14:52:51Z</time>
      </trkpt>
      <trkpt lat="45.06899" lon="4.11635">
        <ele>1246.01</ele>
        <time>2025-09-02T14:53:06Z</time>
      </trkpt>
      <trkpt lat="45.06902" lon="4.11632">
        <ele>1246.49</ele>
        <time>2025-09-02T14:53:10Z</time>
      </trkpt>
      <trkpt lat="45.06904" lon="4.1163">
        <ele>1247.45</ele>
        <time>2025-09-02T14:53:13Z</time>
      </trkpt>
      <trkpt lat="45.06915" lon="4.11622">
        <ele>1251.29</ele>
        <time>2025-09-02T14:53:28Z</time>
      </trkpt>
      <trkpt lat="45.06918" lon="4.1162">
        <ele>1253.7</ele>
        <time>2025-09-02T14:53:33Z</time>
      </trkpt>
      <trkpt lat="45.0692" lon="4.11623">
        <ele>1255.62</ele>
        <time>2025-09-02T14:53:37Z</time>
      </trkpt>
      <trkpt lat="45.06923" lon="4.11638">
        <ele>1259.46</ele>
        <time>2025-09-02T14:53:50Z</time>
      </trkpt>
      <trkpt lat="45.06924" lon="4.11647">
        <ele>1261.39</ele>
        <time>2025-09-02T14:53:59Z</time>
      </trkpt>
      <trkpt lat="45.06927" lon="4.11645">
        <ele>1261.87</ele>
        <time>2025-09-02T14:54:03Z</time>
      </trkpt>
      <trkpt lat="45.06932" lon="4.11622">
        <ele>1261.39</ele>
        <time>2025-09-02T14:54:18Z</time>
      </trkpt>
      <trkpt lat="45.06932" lon="4.11618">
        <ele>1261.39</ele>
        <time>2025-09-02T14:54:22Z</time>
      </trkpt>
      <trkpt lat="45.06931" lon="4.11613">
        <ele>1260.91</ele>
        <time>2025-09-02T14:54:26Z</time>
      </trkpt>
      <trkpt lat="45.0694" lon="4.11593">
        <ele>1261.87</ele>
        <time>2025-09-02T14:54:40Z</time>
      </trkpt>
      <trkpt lat="45.06948" lon="4.11569">
        <ele>1263.79</ele>
        <time>2025-09-02T14:54:54Z</time>
      </trkpt>
      <trkpt lat="45.06952" lon="4.11543">
        <ele>1264.75</ele>
        <time>2025-09-02T14:55:08Z</time>
      </trkpt>
      <trkpt lat="45.06955" lon="4.1152">
        <ele>1265.23</ele>
        <time>2025-09-02T14:55:22Z</time>
      </trkpt>
      <trkpt lat="45.06961" lon="4.11501">
        <ele>1264.75</ele>
        <time>2025-09-02T14:55:37Z</time>
      </trkpt>
      <trkpt lat="45.06962" lon="4.1148">
        <ele>1264.27</ele>
        <time>2025-09-02T14:55:52Z</time>
      </trkpt>
      <trkpt lat="45.06961" lon="4.11463">
        <ele>1262.83</ele>
        <time>2025-09-02T14:56:08Z</time>
      </trkpt>
      <trkpt lat="45.06959" lon="4.11445">
        <ele>1258.98</ele>
        <time>2025-09-02T14:56:22Z</time>
      </trkpt>
      <trkpt lat="45.06961" lon="4.11419">
        <ele>1254.66</ele>
        <time>2025-09-02T14:56:38Z</time>
      </trkpt>
      <trkpt lat="45.06964" lon="4.114">
        <ele>1253.7</ele>
        <time>2025-09-02T14:56:52Z</time>
      </trkpt>
      <trkpt lat="45.06964" lon="4.11389">
        <ele>1250.33</ele>
        <time>2025-09-02T14:57:03Z</time>
      </trkpt>
      <trkpt lat="45.06962" lon="4.11387">
        <ele>1251.77</ele>
        <time>2025-09-02T14:57:22Z</time>
      </trkpt>
      <trkpt lat="45.06962" lon="4.11383">
        <ele>1252.74</ele>
        <time>2025-09-02T14:57:37Z</time>
      </trkpt>
      <trkpt lat="45.06962" lon="4.11379">
        <ele>1253.22</ele>
        <time>2025-09-02T14:57:54Z</time>
      </trkpt>
      <trkpt lat="45.06963" lon="4.11372">
        <ele>1254.18</ele>
        <time>2025-09-02T14:58:15Z</time>
      </trkpt>
      <trkpt lat="45.06968" lon="4.1136">
        <ele>1249.85</ele>
        <time>2025-09-02T14:58:27Z</time>
      </trkpt>
      <trkpt lat="45.06971" lon="4.11342">
        <ele>1248.41</ele>
        <time>2025-09-02T14:58:43Z</time>
      </trkpt>
      <trkpt lat="45.06975" lon="4.11324">
        <ele>1248.89</ele>
        <time>2025-09-02T14:58:55Z</time>
      </trkpt>
      <trkpt lat="45.06977" lon="4.11317">
        <ele>1247.93</ele>
        <time>2025-09-02T14:59:00Z</time>
      </trkpt>
      <trkpt lat="45.06979" lon="4.11295">
        <ele>1243.6</ele>
        <time>2025-09-02T14:59:14Z</time>
      </trkpt>
      <trkpt lat="45.06986" lon="4.11267">
        <ele>1238.8</ele>
        <time>2025-09-02T14:59:29Z</time>
      </trkpt>
      <trkpt lat="45.06987" lon="4.11261">
        <ele>1238.32</ele>
        <time>2025-09-02T14:59:32Z</time>
      </trkpt>
      <trkpt lat="45.0699" lon="4.11248">
        <ele>1237.35</ele>
        <time>2025-09-02T14:59:40Z</time>
      </trkpt>
      <trkpt lat="45.06991" lon="4.11241">
        <ele>1236.87</ele>
        <time>2025-09-02T14:59:44Z</time>
      </trkpt>
      <trkpt lat="45.06992" lon="4.11226">
        <ele>1235.91</ele>
        <time>2025-09-02T14:59:51Z</time>
      </trkpt>
      <trkpt lat="45.06994" lon="4.11208">
        <ele>1229.18</ele>
        <time>2025-09-02T15:00:03Z</time>
      </trkpt>
      <trkpt lat="45.06996" lon="4.11196">
        <ele>1226.3</ele>
        <time>2025-09-02T15:00:10Z</time>
      </trkpt>
      <trkpt lat="45.07" lon="4.11171">
        <ele>1224.38</ele>
        <time>2025-09-02T15:00:24Z</time>
      </trkpt>
      <trkpt lat="45.07007" lon="4.11143">
        <ele>1222.93</ele>
        <time>2025-09-02T15:00:39Z</time>
      </trkpt>
      <trkpt lat="45.07012" lon="4.11119">
        <ele>1220.53</ele>
        <time>2025-09-02T15:00:52Z</time>
      </trkpt>
      <trkpt lat="45.07016" lon="4.11093">
        <ele>1219.09</ele>
        <time>2025-09-02T15:01:06Z</time>
      </trkpt>
      <trkpt lat="45.07024" lon="4.11063">
        <ele>1217.65</ele>
        <time>2025-09-02T15:01:22Z</time>
      </trkpt>
      <trkpt lat="45.07027" lon="4.11056">
        <ele>1218.13</ele>
        <time>2025-09-02T15:01:27Z</time>
      </trkpt>
      <trkpt lat="45.07028" lon="4.11055">
        <ele>1218.61</ele>
        <time>2025-09-02T15:01:28Z</time>
      </trkpt>
      <trkpt lat="45.07029" lon="4.11053">
        <ele>1218.61</ele>
        <time>2025-09-02T15:01:29Z</time>
      </trkpt>
      <trkpt lat="45.0703" lon="4.11051">
        <ele>1218.61</ele>
        <time>2025-09-02T15:01:30Z</time>
      </trkpt>
      <trkpt lat="45.07031" lon="4.11049">
        <ele>1219.09</ele>
        <time>2025-09-02T15:01:31Z</time>
      </trkpt>
      <trkpt lat="45.07041" lon="4.11024">
        <ele>1216.21</ele>
        <time>2025-09-02T15:01:45Z</time>
      </trkpt>
      <trkpt lat="45.07044" lon="4.11019">
        <ele>1214.28</ele>
        <time>2025-09-02T15:01:57Z</time>
      </trkpt>
      <trkpt lat="45.0705" lon="4.11013">
        <ele>1213.8</ele>
        <time>2025-09-02T15:02:05Z</time>
      </trkpt>
      <trkpt lat="45.07051" lon="4.11012">
        <ele>1213.8</ele>
        <time>2025-09-02T15:02:06Z</time>
      </trkpt>
      <trkpt lat="45.07052" lon="4.11011">
        <ele>1213.8</ele>
        <time>2025-09-02T15:02:07Z</time>
      </trkpt>
      <trkpt lat="45.07053" lon="4.1101">
        <ele>1213.8</ele>
        <time>2025-09-02T15:02:08Z</time>
      </trkpt>
      <trkpt lat="45.07057" lon="4.11006">
        <ele>1213.32</ele>
        <time>2025-09-02T15:02:13Z</time>
      </trkpt>
      <trkpt lat="45.07059" lon="4.11004">
        <ele>1213.32</ele>
        <time>2025-09-02T15:02:14Z</time>
      </trkpt>
      <trkpt lat="45.0706" lon="4.11003">
        <ele>1212.84</ele>
        <time>2025-09-02T15:02:15Z</time>
      </trkpt>
      <trkpt lat="45.07061" lon="4.11001">
        <ele>1212.84</ele>
        <time>2025-09-02T15:02:16Z</time>
      </trkpt>
      <trkpt lat="45.07062" lon="4.11">
        <ele>1212.36</ele>
        <time>2025-09-02T15:02:17Z</time>
      </trkpt>
      <trkpt lat="45.07066" lon="4.10991">
        <ele>1211.88</ele>
        <time>2025-09-02T15:02:27Z</time>
      </trkpt>
      <trkpt lat="45.07067" lon="4.1099">
        <ele>1211.88</ele>
        <time>2025-09-02T15:02:28Z</time>
      </trkpt>
      <trkpt lat="45.07068" lon="4.10988">
        <ele>1211.4</ele>
        <time>2025-09-02T15:02:29Z</time>
      </trkpt>
      <trkpt lat="45.07069" lon="4.10987">
        <ele>1210.92</ele>
        <time>2025-09-02T15:02:30Z</time>
      </trkpt>
      <trkpt lat="45.07078" lon="4.10967">
        <ele>1210.44</ele>
        <time>2025-09-02T15:02:44Z</time>
      </trkpt>
      <trkpt lat="45.07079" lon="4.10965">
        <ele>1209.96</ele>
        <time>2025-09-02T15:02:45Z</time>
      </trkpt>
      <trkpt lat="45.07088" lon="4.10945">
        <ele>1203.71</ele>
        <time>2025-09-02T15:03:00Z</time>
      </trkpt>
      <trkpt lat="45.07091" lon="4.10939">
        <ele>1201.3</ele>
        <time>2025-09-02T15:03:05Z</time>
      </trkpt>
      <trkpt lat="45.071" lon="4.10922">
        <ele>1197.46</ele>
        <time>2025-09-02T15:03:18Z</time>
      </trkpt>
      <trkpt lat="45.07104" lon="4.10913">
        <ele>1195.06</ele>
        <time>2025-09-02T15:03:27Z</time>
      </trkpt>
      <trkpt lat="45.07112" lon="4.10894">
        <ele>1191.69</ele>
        <time>2025-09-02T15:03:41Z</time>
      </trkpt>
      <trkpt lat="45.07123" lon="4.1088">
        <ele>1190.25</ele>
        <time>2025-09-02T15:03:53Z</time>
      </trkpt>
      <trkpt lat="45.07124" lon="4.10879">
        <ele>1190.25</ele>
        <time>2025-09-02T15:03:54Z</time>
      </trkpt>
      <trkpt lat="45.07141" lon="4.10864">
        <ele>1187.85</ele>
        <time>2025-09-02T15:04:09Z</time>
      </trkpt>
      <trkpt lat="45.07145" lon="4.10858">
        <ele>1186.88</ele>
        <time>2025-09-02T15:04:14Z</time>
      </trkpt>
      <trkpt lat="45.07165" lon="4.10842">
        <ele>1191.21</ele>
        <time>2025-09-02T15:04:27Z</time>
      </trkpt>
      <trkpt lat="45.07184" lon="4.10826">
        <ele>1196.02</ele>
        <time>2025-09-02T15:04:41Z</time>
      </trkpt>
      <trkpt lat="45.07193" lon="4.10818">
        <ele>1195.54</ele>
        <time>2025-09-02T15:04:49Z</time>
      </trkpt>
      <trkpt lat="45.07204" lon="4.10808">
        <ele>1194.58</ele>
        <time>2025-09-02T15:05:04Z</time>
      </trkpt>
      <trkpt lat="45.07204" lon="4.10809">
        <ele>1195.06</ele>
        <time>2025-09-02T15:05:05Z</time>
      </trkpt>
      <trkpt lat="45.07204" lon="4.1081">
        <ele>1195.06</ele>
        <time>2025-09-02T15:05:06Z</time>
      </trkpt>
      <trkpt lat="45.07207" lon="4.10813">
        <ele>1198.42</ele>
        <time>2025-09-02T15:05:17Z</time>
      </trkpt>
      <trkpt lat="45.07212" lon="4.10817">
        <ele>1201.79</ele>
        <time>2025-09-02T15:05:42Z</time>
      </trkpt>
      <trkpt lat="45.07209" lon="4.10809">
        <ele>1202.75</ele>
        <time>2025-09-02T15:06:03Z</time>
      </trkpt>
      <trkpt lat="45.07202" lon="4.10805">
        <ele>1204.67</ele>
        <time>2025-09-02T15:06:14Z</time>
      </trkpt>
      <trkpt lat="45.07203" lon="4.10802">
        <ele>1203.71</ele>
        <time>2025-09-02T15:06:17Z</time>
      </trkpt>
      <trkpt lat="45.07205" lon="4.10799">
        <ele>1203.23</ele>
        <time>2025-09-02T15:06:19Z</time>
      </trkpt>
      <trkpt lat="45.0722" lon="4.10783">
        <ele>1197.46</ele>
        <time>2025-09-02T15:06:35Z</time>
      </trkpt>
      <trkpt lat="45.07226" lon="4.10778">
        <ele>1194.58</ele>
        <time>2025-09-02T15:06:41Z</time>
      </trkpt>
      <trkpt lat="45.0724" lon="4.10768">
        <ele>1190.25</ele>
        <time>2025-09-02T15:06:53Z</time>
      </trkpt>
      <trkpt lat="45.07255" lon="4.10752">
        <ele>1189.77</ele>
        <time>2025-09-02T15:07:07Z</time>
      </trkpt>
      <trkpt lat="45.07274" lon="4.10735">
        <ele>1191.21</ele>
        <time>2025-09-02T15:07:23Z</time>
      </trkpt>
      <trkpt lat="45.07288" lon="4.10725">
        <ele>1192.17</ele>
        <time>2025-09-02T15:07:35Z</time>
      </trkpt>
      <trkpt lat="45.07301" lon="4.10709">
        <ele>1192.65</ele>
        <time>2025-09-02T15:07:49Z</time>
      </trkpt>
      <trkpt lat="45.07313" lon="4.10697">
        <ele>1194.09</ele>
        <time>2025-09-02T15:08:02Z</time>
      </trkpt>
      <trkpt lat="45.07324" lon="4.10686">
        <ele>1196.02</ele>
        <time>2025-09-02T15:08:13Z</time>
      </trkpt>
      <trkpt lat="45.07332" lon="4.10676">
        <ele>1196.5</ele>
        <time>2025-09-02T15:08:22Z</time>
      </trkpt>
      <trkpt lat="45.07347" lon="4.1066">
        <ele>1198.9</ele>
        <time>2025-09-02T15:08:38Z</time>
      </trkpt>
      <trkpt lat="45.07358" lon="4.1065">
        <ele>1199.86</ele>
        <time>2025-09-02T15:08:50Z</time>
      </trkpt>
      <trkpt lat="45.07371" lon="4.1064">
        <ele>1199.38</ele>
        <time>2025-09-02T15:09:02Z</time>
      </trkpt>
      <trkpt lat="45.07378" lon="4.10632">
        <ele>1198.42</ele>
        <time>2025-09-02T15:09:10Z</time>
      </trkpt>
      <trkpt lat="45.07393" lon="4.10616">
        <ele>1196.02</ele>
        <time>2025-09-02T15:09:25Z</time>
      </trkpt>
      <trkpt lat="45.07409" lon="4.10602">
        <ele>1193.13</ele>
        <time>2025-09-02T15:09:41Z</time>
      </trkpt>
      <trkpt lat="45.07416" lon="4.10598">
        <ele>1192.17</ele>
        <time>2025-09-02T15:09:46Z</time>
      </trkpt>
      <trkpt lat="45.07418" lon="4.10597">
        <ele>1191.69</ele>
        <time>2025-09-02T15:09:47Z</time>
      </trkpt>
      <trkpt lat="45.07429" lon="4.10585">
        <ele>1191.69</ele>
        <time>2025-09-02T15:09:58Z</time>
      </trkpt>
      <trkpt lat="45.0745" lon="4.10569">
        <ele>1192.17</ele>
        <time>2025-09-02T15:10:11Z</time>
      </trkpt>
      <trkpt lat="45.07471" lon="4.10549">
        <ele>1193.61</ele>
        <time>2025-09-02T15:10:26Z</time>
      </trkpt>
      <trkpt lat="45.07476" lon="4.10543">
        <ele>1193.61</ele>
        <time>2025-09-02T15:10:30Z</time>
      </trkpt>
      <trkpt lat="45.07479" lon="4.10539">
        <ele>1193.61</ele>
        <time>2025-09-02T15:10:34Z</time>
      </trkpt>
      <trkpt lat="45.07492" lon="4.10526">
        <ele>1192.17</ele>
        <time>2025-09-02T15:10:47Z</time>
      </trkpt>
      <trkpt lat="45.07509" lon="4.10515">
        <ele>1191.21</ele>
        <time>2025-09-02T15:11:01Z</time>
      </trkpt>
      <trkpt lat="45.07526" lon="4.1051">
        <ele>1190.25</ele>
        <time>2025-09-02T15:11:15Z</time>
      </trkpt>
      <trkpt lat="45.0754" lon="4.10502">
        <ele>1192.65</ele>
        <time>2025-09-02T15:11:27Z</time>
      </trkpt>
      <trkpt lat="45.07543" lon="4.105">
        <ele>1192.65</ele>
        <time>2025-09-02T15:11:30Z</time>
      </trkpt>
      <trkpt lat="45.07546" lon="4.10496">
        <ele>1193.13</ele>
        <time>2025-09-02T15:11:34Z</time>
      </trkpt>
      <trkpt lat="45.07547" lon="4.10494">
        <ele>1192.65</ele>
        <time>2025-09-02T15:11:35Z</time>
      </trkpt>
      <trkpt lat="45.07548" lon="4.10493">
        <ele>1192.65</ele>
        <time>2025-09-02T15:11:36Z</time>
      </trkpt>
      <trkpt lat="45.07551" lon="4.10487">
        <ele>1192.17</ele>
        <time>2025-09-02T15:11:41Z</time>
      </trkpt>
      <trkpt lat="45.07553" lon="4.10483">
        <ele>1191.69</ele>
        <time>2025-09-02T15:11:43Z</time>
      </trkpt>
      <trkpt lat="45.07558" lon="4.10477">
        <ele>1191.69</ele>
        <time>2025-09-02T15:11:49Z</time>
      </trkpt>
      <trkpt lat="45.07558" lon="4.10476">
        <ele>1191.69</ele>
        <time>2025-09-02T15:11:50Z</time>
      </trkpt>
      <trkpt lat="45.07569" lon="4.10455">
        <ele>1188.81</ele>
        <time>2025-09-02T15:12:04Z</time>
      </trkpt>
      <trkpt lat="45.07582" lon="4.10436">
        <ele>1186.4</ele>
        <time>2025-09-02T15:12:19Z</time>
      </trkpt>
      <trkpt lat="45.07593" lon="4.10417">
        <ele>1185.44</ele>
        <time>2025-09-02T15:12:33Z</time>
      </trkpt>
      <trkpt lat="45.07601" lon="4.10395">
        <ele>1182.08</ele>
        <time>2025-09-02T15:12:47Z</time>
      </trkpt>
      <trkpt lat="45.07603" lon="4.10391">
        <ele>1182.08</ele>
        <time>2025-09-02T15:12:50Z</time>
      </trkpt>
      <trkpt lat="45.07604" lon="4.10389">
        <ele>1182.08</ele>
        <time>2025-09-02T15:12:51Z</time>
      </trkpt>
      <trkpt lat="45.07613" lon="4.1037">
        <ele>1182.56</ele>
        <time>2025-09-02T15:13:04Z</time>
      </trkpt>
      <trkpt lat="45.07618" lon="4.10346">
        <ele>1183.04</ele>
        <time>2025-09-02T15:13:17Z</time>
      </trkpt>
      <trkpt lat="45.07617" lon="4.10319">
        <ele>1181.12</ele>
        <time>2025-09-02T15:13:31Z</time>
      </trkpt>
      <trkpt lat="45.07617" lon="4.10294">
        <ele>1183.52</ele>
        <time>2025-09-02T15:13:43Z</time>
      </trkpt>
      <trkpt lat="45.07616" lon="4.10267">
        <ele>1186.4</ele>
        <time>2025-09-02T15:13:57Z</time>
      </trkpt>
      <trkpt lat="45.07616" lon="4.10241">
        <ele>1187.85</ele>
        <time>2025-09-02T15:14:10Z</time>
      </trkpt>
      <trkpt lat="45.07615" lon="4.10227">
        <ele>1189.29</ele>
        <time>2025-09-02T15:14:18Z</time>
      </trkpt>
      <trkpt lat="45.07616" lon="4.10225">
        <ele>1189.77</ele>
        <time>2025-09-02T15:14:19Z</time>
      </trkpt>
      <trkpt lat="45.07615" lon="4.10218">
        <ele>1191.69</ele>
        <time>2025-09-02T15:14:24Z</time>
      </trkpt>
      <trkpt lat="45.07615" lon="4.10216">
        <ele>1192.17</ele>
        <time>2025-09-02T15:14:25Z</time>
      </trkpt>
      <trkpt lat="45.07608" lon="4.10195">
        <ele>1196.98</ele>
        <time>2025-09-02T15:14:40Z</time>
      </trkpt>
      <trkpt lat="45.07594" lon="4.10178">
        <ele>1198.42</ele>
        <time>2025-09-02T15:14:55Z</time>
      </trkpt>
      <trkpt lat="45.07579" lon="4.10152">
        <ele>1192.17</ele>
        <time>2025-09-02T15:15:10Z</time>
      </trkpt>
      <trkpt lat="45.07568" lon="4.10133">
        <ele>1188.33</ele>
        <time>2025-09-02T15:15:24Z</time>
      </trkpt>
      <trkpt lat="45.07563" lon="4.10128">
        <ele>1186.4</ele>
        <time>2025-09-02T15:15:31Z</time>
      </trkpt>
      <trkpt lat="45.07563" lon="4.10127">
        <ele>1186.4</ele>
        <time>2025-09-02T15:15:32Z</time>
      </trkpt>
      <trkpt lat="45.07562" lon="4.1011">
        <ele>1182.56</ele>
        <time>2025-09-02T15:15:44Z</time>
      </trkpt>
      <trkpt lat="45.0756" lon="4.10082">
        <ele>1178.23</ele>
        <time>2025-09-02T15:15:59Z</time>
      </trkpt>
      <trkpt lat="45.07553" lon="4.10055">
        <ele>1176.31</ele>
        <time>2025-09-02T15:16:14Z</time>
      </trkpt>
      <trkpt lat="45.07549" lon="4.10039">
        <ele>1172.95</ele>
        <time>2025-09-02T15:16:26Z</time>
      </trkpt>
      <trkpt lat="45.07542" lon="4.10024">
        <ele>1168.14</ele>
        <time>2025-09-02T15:16:36Z</time>
      </trkpt>
      <trkpt lat="45.07541" lon="4.10018">
        <ele>1167.18</ele>
        <time>2025-09-02T15:16:40Z</time>
      </trkpt>
      <trkpt lat="45.07541" lon="4.10016">
        <ele>1167.18</ele>
        <time>2025-09-02T15:16:41Z</time>
      </trkpt>
      <trkpt lat="45.0754" lon="4.09994">
        <ele>1164.29</ele>
        <time>2025-09-02T15:16:54Z</time>
      </trkpt>
      <trkpt lat="45.07537" lon="4.0999">
        <ele>1164.29</ele>
        <time>2025-09-02T15:16:58Z</time>
      </trkpt>
      <trkpt lat="45.07536" lon="4.09989">
        <ele>1164.29</ele>
        <time>2025-09-02T15:16:59Z</time>
      </trkpt>
      <trkpt lat="45.0752" lon="4.09983">
        <ele>1162.37</ele>
        <time>2025-09-02T15:17:11Z</time>
      </trkpt>
      <trkpt lat="45.07519" lon="4.09983">
        <ele>1162.37</ele>
        <time>2025-09-02T15:17:12Z</time>
      </trkpt>
      <trkpt lat="45.07518" lon="4.09982">
        <ele>1161.89</ele>
        <time>2025-09-02T15:17:13Z</time>
      </trkpt>
      <trkpt lat="45.07504" lon="4.09966">
        <ele>1160.93</ele>
        <time>2025-09-02T15:17:27Z</time>
      </trkpt>
      <trkpt lat="45.07493" lon="4.09954">
        <ele>1159.49</ele>
        <time>2025-09-02T15:17:40Z</time>
      </trkpt>
      <trkpt lat="45.07488" lon="4.0995">
        <ele>1158.53</ele>
        <time>2025-09-02T15:17:46Z</time>
      </trkpt>
      <trkpt lat="45.07486" lon="4.09951">
        <ele>1158.53</ele>
        <time>2025-09-02T15:17:47Z</time>
      </trkpt>
      <trkpt lat="45.07483" lon="4.09948">
        <ele>1158.05</ele>
        <time>2025-09-02T15:17:51Z</time>
      </trkpt>
      <trkpt lat="45.07481" lon="4.09947">
        <ele>1158.05</ele>
        <time>2025-09-02T15:17:53Z</time>
      </trkpt>
      <trkpt lat="45.0748" lon="4.09947">
        <ele>1157.56</ele>
        <time>2025-09-02T15:17:54Z</time>
      </trkpt>
      <trkpt lat="45.07468" lon="4.09939">
        <ele>1156.6</ele>
        <time>2025-09-02T15:18:07Z</time>
      </trkpt>
      <trkpt lat="45.07456" lon="4.09931">
        <ele>1155.16</ele>
        <time>2025-09-02T15:18:20Z</time>
      </trkpt>
      <trkpt lat="45.07443" lon="4.09921">
        <ele>1155.16</ele>
        <time>2025-09-02T15:18:33Z</time>
      </trkpt>
      <trkpt lat="45.07434" lon="4.09916">
        <ele>1154.2</ele>
        <time>2025-09-02T15:18:45Z</time>
      </trkpt>
      <trkpt lat="45.07431" lon="4.09914">
        <ele>1153.72</ele>
        <time>2025-09-02T15:18:48Z</time>
      </trkpt>
      <trkpt lat="45.07431" lon="4.09919">
        <ele>1154.2</ele>
        <time>2025-09-02T15:19:00Z</time>
      </trkpt>
      <trkpt lat="45.07422" lon="4.09913">
        <ele>1153.72</ele>
        <time>2025-09-02T15:19:13Z</time>
      </trkpt>
      <trkpt lat="45.07414" lon="4.0991">
        <ele>1153.24</ele>
        <time>2025-09-02T15:19:20Z</time>
      </trkpt>
      <trkpt lat="45.07413" lon="4.09909">
        <ele>1153.24</ele>
        <time>2025-09-02T15:19:21Z</time>
      </trkpt>
      <trkpt lat="45.07399" lon="4.09903">
        <ele>1153.72</ele>
        <time>2025-09-02T15:19:34Z</time>
      </trkpt>
      <trkpt lat="45.07397" lon="4.09902">
        <ele>1153.72</ele>
        <time>2025-09-02T15:19:36Z</time>
      </trkpt>
      <trkpt lat="45.07395" lon="4.09901">
        <ele>1154.2</ele>
        <time>2025-09-02T15:19:38Z</time>
      </trkpt>
      <trkpt lat="45.07393" lon="4.09901">
        <ele>1153.72</ele>
        <time>2025-09-02T15:19:39Z</time>
      </trkpt>
      <trkpt lat="45.07378" lon="4.09904">
        <ele>1154.68</ele>
        <time>2025-09-02T15:19:53Z</time>
      </trkpt>
      <trkpt lat="45.07377" lon="4.09904">
        <ele>1155.16</ele>
        <time>2025-09-02T15:19:54Z</time>
      </trkpt>
      <trkpt lat="45.07366" lon="4.0992">
        <ele>1156.12</ele>
        <time>2025-09-02T15:20:08Z</time>
      </trkpt>
      <trkpt lat="45.07363" lon="4.09926">
        <ele>1156.6</ele>
        <time>2025-09-02T15:20:13Z</time>
      </trkpt>
      <trkpt lat="45.07363" lon="4.09927">
        <ele>1157.08</ele>
        <time>2025-09-02T15:20:14Z</time>
      </trkpt>
      <trkpt lat="45.07356" lon="4.09949">
        <ele>1157.08</ele>
        <time>2025-09-02T15:20:29Z</time>
      </trkpt>
      <trkpt lat="45.07347" lon="4.09973">
        <ele>1158.05</ele>
        <time>2025-09-02T15:20:46Z</time>
      </trkpt>
      <trkpt lat="45.07342" lon="4.09983">
        <ele>1157.08</ele>
        <time>2025-09-02T15:20:53Z</time>
      </trkpt>
      <trkpt lat="45.07342" lon="4.09984">
        <ele>1157.08</ele>
        <time>2025-09-02T15:20:54Z</time>
      </trkpt>
      <trkpt lat="45.07341" lon="4.09986">
        <ele>1157.08</ele>
        <time>2025-09-02T15:20:55Z</time>
      </trkpt>
      <trkpt lat="45.0734" lon="4.09987">
        <ele>1157.08</ele>
        <time>2025-09-02T15:20:56Z</time>
      </trkpt>
      <trkpt lat="45.07339" lon="4.09989">
        <ele>1157.08</ele>
        <time>2025-09-02T15:20:57Z</time>
      </trkpt>
      <trkpt lat="45.07331" lon="4.10003">
        <ele>1157.08</ele>
        <time>2025-09-02T15:21:10Z</time>
      </trkpt>
    </trkseg>
  </trk>
</gpx>